<?xml version="1.0" encoding="UTF-8" standalone="no" ?>
<gpx xmlns="http://www.topografix.com/GPX/1/1" xmlns:xsi="http://www.w3.org/2001/XMLSchema-instance" xsi:schemaLocation="http://www.topografix.com/GPX/1/1 http://www.topografix.com/GPX/1/1/gpx.xsd" version="1.1" creator="VisuGPX - https://www.visugpx.com">
  <metadata>
    <name>13-Mimet </name>
    <desc><![CDATA[13-Mimet : pilon du roi 
2017-09-14]]></desc>
  </metadata>
  <trk>
    <name><![CDATA[Mimet pilon du roi 2017-09-14-01]]></name>
    <trkseg>
      <trkpt lat="43.41364" lon="5.5078">
        <ele>518</ele>
        <time>2017-09-14T07:18:27Z</time>
      </trkpt>
      <trkpt lat="43.41364" lon="5.5078">
        <ele>518</ele>
        <time>2017-09-14T07:18:28Z</time>
      </trkpt>
      <trkpt lat="43.41361" lon="5.50768">
        <ele>517.8</ele>
        <time>2017-09-14T07:19:03Z</time>
      </trkpt>
      <trkpt lat="43.41357" lon="5.50755">
        <ele>517.9</ele>
        <time>2017-09-14T07:19:12Z</time>
      </trkpt>
      <trkpt lat="43.41357" lon="5.50741">
        <ele>517.9</ele>
        <time>2017-09-14T07:19:22Z</time>
      </trkpt>
      <trkpt lat="43.41354" lon="5.50729">
        <ele>518.2</ele>
        <time>2017-09-14T07:19:31Z</time>
      </trkpt>
      <trkpt lat="43.41352" lon="5.50716">
        <ele>518.5</ele>
        <time>2017-09-14T07:19:39Z</time>
      </trkpt>
      <trkpt lat="43.41353" lon="5.50702">
        <ele>518.6</ele>
        <time>2017-09-14T07:19:47Z</time>
      </trkpt>
      <trkpt lat="43.41357" lon="5.50691">
        <ele>519.2</ele>
        <time>2017-09-14T07:19:54Z</time>
      </trkpt>
      <trkpt lat="43.41357" lon="5.50678">
        <ele>519.1</ele>
        <time>2017-09-14T07:20:02Z</time>
      </trkpt>
      <trkpt lat="43.41359" lon="5.50666">
        <ele>519.8</ele>
        <time>2017-09-14T07:20:09Z</time>
      </trkpt>
      <trkpt lat="43.41361" lon="5.50653">
        <ele>520.2</ele>
        <time>2017-09-14T07:20:17Z</time>
      </trkpt>
      <trkpt lat="43.41362" lon="5.50639">
        <ele>520.6</ele>
        <time>2017-09-14T07:20:27Z</time>
      </trkpt>
      <trkpt lat="43.41362" lon="5.50626">
        <ele>520.9</ele>
        <time>2017-09-14T07:20:34Z</time>
      </trkpt>
      <trkpt lat="43.41364" lon="5.50613">
        <ele>521</ele>
        <time>2017-09-14T07:20:42Z</time>
      </trkpt>
      <trkpt lat="43.41365" lon="5.506">
        <ele>520.9</ele>
        <time>2017-09-14T07:20:50Z</time>
      </trkpt>
      <trkpt lat="43.41367" lon="5.50591">
        <ele>520.9</ele>
        <time>2017-09-14T07:21:05Z</time>
      </trkpt>
      <trkpt lat="43.41363" lon="5.50604">
        <ele>520.7</ele>
        <time>2017-09-14T07:25:06Z</time>
      </trkpt>
      <trkpt lat="43.41361" lon="5.50618">
        <ele>520.7</ele>
        <time>2017-09-14T07:25:14Z</time>
      </trkpt>
      <trkpt lat="43.41357" lon="5.50629">
        <ele>521.1</ele>
        <time>2017-09-14T07:25:22Z</time>
      </trkpt>
      <trkpt lat="43.41354" lon="5.50642">
        <ele>522.2</ele>
        <time>2017-09-14T07:25:31Z</time>
      </trkpt>
      <trkpt lat="43.41345" lon="5.5065">
        <ele>522.5</ele>
        <time>2017-09-14T07:25:37Z</time>
      </trkpt>
      <trkpt lat="43.41338" lon="5.50659">
        <ele>523.2</ele>
        <time>2017-09-14T07:25:44Z</time>
      </trkpt>
      <trkpt lat="43.41334" lon="5.5067">
        <ele>523.8</ele>
        <time>2017-09-14T07:25:50Z</time>
      </trkpt>
      <trkpt lat="43.41332" lon="5.50683">
        <ele>524.3</ele>
        <time>2017-09-14T07:25:56Z</time>
      </trkpt>
      <trkpt lat="43.41329" lon="5.50695">
        <ele>525</ele>
        <time>2017-09-14T07:26:03Z</time>
      </trkpt>
      <trkpt lat="43.41327" lon="5.50707">
        <ele>525.6</ele>
        <time>2017-09-14T07:26:10Z</time>
      </trkpt>
      <trkpt lat="43.41325" lon="5.5072">
        <ele>526.7</ele>
        <time>2017-09-14T07:26:17Z</time>
      </trkpt>
      <trkpt lat="43.41322" lon="5.50733">
        <ele>527.9</ele>
        <time>2017-09-14T07:26:25Z</time>
      </trkpt>
      <trkpt lat="43.41319" lon="5.50746">
        <ele>529.1</ele>
        <time>2017-09-14T07:26:33Z</time>
      </trkpt>
      <trkpt lat="43.41315" lon="5.50759">
        <ele>530.1</ele>
        <time>2017-09-14T07:26:40Z</time>
      </trkpt>
      <trkpt lat="43.4131" lon="5.50772">
        <ele>531.4</ele>
        <time>2017-09-14T07:26:48Z</time>
      </trkpt>
      <trkpt lat="43.41308" lon="5.50785">
        <ele>532.4</ele>
        <time>2017-09-14T07:26:56Z</time>
      </trkpt>
      <trkpt lat="43.41303" lon="5.50796">
        <ele>533.5</ele>
        <time>2017-09-14T07:27:04Z</time>
      </trkpt>
      <trkpt lat="43.41296" lon="5.50806">
        <ele>535.1</ele>
        <time>2017-09-14T07:27:14Z</time>
      </trkpt>
      <trkpt lat="43.41292" lon="5.50817">
        <ele>536.6</ele>
        <time>2017-09-14T07:27:22Z</time>
      </trkpt>
      <trkpt lat="43.41289" lon="5.50829">
        <ele>537.9</ele>
        <time>2017-09-14T07:27:30Z</time>
      </trkpt>
      <trkpt lat="43.41284" lon="5.50841">
        <ele>539.1</ele>
        <time>2017-09-14T07:27:38Z</time>
      </trkpt>
      <trkpt lat="43.4128" lon="5.50853">
        <ele>540.2</ele>
        <time>2017-09-14T07:27:46Z</time>
      </trkpt>
      <trkpt lat="43.41277" lon="5.50866">
        <ele>542.1</ele>
        <time>2017-09-14T07:27:55Z</time>
      </trkpt>
      <trkpt lat="43.41271" lon="5.50876">
        <ele>543.5</ele>
        <time>2017-09-14T07:28:03Z</time>
      </trkpt>
      <trkpt lat="43.41269" lon="5.50888">
        <ele>544.7</ele>
        <time>2017-09-14T07:28:10Z</time>
      </trkpt>
      <trkpt lat="43.41264" lon="5.50899">
        <ele>546.6</ele>
        <time>2017-09-14T07:28:18Z</time>
      </trkpt>
      <trkpt lat="43.41258" lon="5.50909">
        <ele>548.2</ele>
        <time>2017-09-14T07:28:26Z</time>
      </trkpt>
      <trkpt lat="43.41255" lon="5.50921">
        <ele>549.9</ele>
        <time>2017-09-14T07:28:36Z</time>
      </trkpt>
      <trkpt lat="43.41247" lon="5.50928">
        <ele>551.6</ele>
        <time>2017-09-14T07:28:43Z</time>
      </trkpt>
      <trkpt lat="43.41241" lon="5.50937">
        <ele>552.1</ele>
        <time>2017-09-14T07:28:50Z</time>
      </trkpt>
      <trkpt lat="43.41234" lon="5.50947">
        <ele>553</ele>
        <time>2017-09-14T07:28:58Z</time>
      </trkpt>
      <trkpt lat="43.41227" lon="5.50957">
        <ele>553.7</ele>
        <time>2017-09-14T07:29:06Z</time>
      </trkpt>
      <trkpt lat="43.4122" lon="5.50965">
        <ele>554.2</ele>
        <time>2017-09-14T07:29:13Z</time>
      </trkpt>
      <trkpt lat="43.41213" lon="5.50974">
        <ele>554.4</ele>
        <time>2017-09-14T07:29:21Z</time>
      </trkpt>
      <trkpt lat="43.41204" lon="5.50982">
        <ele>554.9</ele>
        <time>2017-09-14T07:29:28Z</time>
      </trkpt>
      <trkpt lat="43.41198" lon="5.50992">
        <ele>555.3</ele>
        <time>2017-09-14T07:29:35Z</time>
      </trkpt>
      <trkpt lat="43.41191" lon="5.51001">
        <ele>555.9</ele>
        <time>2017-09-14T07:29:42Z</time>
      </trkpt>
      <trkpt lat="43.41186" lon="5.51012">
        <ele>556.5</ele>
        <time>2017-09-14T07:29:49Z</time>
      </trkpt>
      <trkpt lat="43.4118" lon="5.51022">
        <ele>557.5</ele>
        <time>2017-09-14T07:29:57Z</time>
      </trkpt>
      <trkpt lat="43.41176" lon="5.51034">
        <ele>558.4</ele>
        <time>2017-09-14T07:30:05Z</time>
      </trkpt>
      <trkpt lat="43.41173" lon="5.51046">
        <ele>559.8</ele>
        <time>2017-09-14T07:30:13Z</time>
      </trkpt>
      <trkpt lat="43.41169" lon="5.51058">
        <ele>561</ele>
        <time>2017-09-14T07:30:21Z</time>
      </trkpt>
      <trkpt lat="43.41166" lon="5.5107">
        <ele>562.5</ele>
        <time>2017-09-14T07:30:30Z</time>
      </trkpt>
      <trkpt lat="43.41163" lon="5.51083">
        <ele>563.8</ele>
        <time>2017-09-14T07:30:38Z</time>
      </trkpt>
      <trkpt lat="43.41163" lon="5.51097">
        <ele>565.2</ele>
        <time>2017-09-14T07:30:45Z</time>
      </trkpt>
      <trkpt lat="43.4116" lon="5.5111">
        <ele>566.6</ele>
        <time>2017-09-14T07:30:53Z</time>
      </trkpt>
      <trkpt lat="43.41154" lon="5.51119">
        <ele>567.6</ele>
        <time>2017-09-14T07:30:58Z</time>
      </trkpt>
      <trkpt lat="43.4115" lon="5.51131">
        <ele>569.1</ele>
        <time>2017-09-14T07:31:06Z</time>
      </trkpt>
      <trkpt lat="43.41147" lon="5.51143">
        <ele>570.3</ele>
        <time>2017-09-14T07:31:14Z</time>
      </trkpt>
      <trkpt lat="43.41143" lon="5.51155">
        <ele>571.7</ele>
        <time>2017-09-14T07:31:22Z</time>
      </trkpt>
      <trkpt lat="43.41142" lon="5.51169">
        <ele>573</ele>
        <time>2017-09-14T07:31:30Z</time>
      </trkpt>
      <trkpt lat="43.41137" lon="5.5118">
        <ele>574.1</ele>
        <time>2017-09-14T07:31:39Z</time>
      </trkpt>
      <trkpt lat="43.41134" lon="5.51193">
        <ele>575.5</ele>
        <time>2017-09-14T07:31:46Z</time>
      </trkpt>
      <trkpt lat="43.41133" lon="5.51205">
        <ele>577.1</ele>
        <time>2017-09-14T07:31:54Z</time>
      </trkpt>
      <trkpt lat="43.4113" lon="5.51219">
        <ele>579.1</ele>
        <time>2017-09-14T07:32:04Z</time>
      </trkpt>
      <trkpt lat="43.4113" lon="5.51233">
        <ele>580.6</ele>
        <time>2017-09-14T07:32:12Z</time>
      </trkpt>
      <trkpt lat="43.41128" lon="5.51246">
        <ele>582.2</ele>
        <time>2017-09-14T07:32:22Z</time>
      </trkpt>
      <trkpt lat="43.41125" lon="5.51259">
        <ele>583.8</ele>
        <time>2017-09-14T07:32:29Z</time>
      </trkpt>
      <trkpt lat="43.41122" lon="5.51273">
        <ele>585.2</ele>
        <time>2017-09-14T07:32:38Z</time>
      </trkpt>
      <trkpt lat="43.41121" lon="5.51286">
        <ele>586</ele>
        <time>2017-09-14T07:32:47Z</time>
      </trkpt>
      <trkpt lat="43.41119" lon="5.51299">
        <ele>586.8</ele>
        <time>2017-09-14T07:32:54Z</time>
      </trkpt>
      <trkpt lat="43.41117" lon="5.51312">
        <ele>587.8</ele>
        <time>2017-09-14T07:33:02Z</time>
      </trkpt>
      <trkpt lat="43.41121" lon="5.51324">
        <ele>590.2</ele>
        <time>2017-09-14T07:33:11Z</time>
      </trkpt>
      <trkpt lat="43.41122" lon="5.51336">
        <ele>592</ele>
        <time>2017-09-14T07:33:19Z</time>
      </trkpt>
      <trkpt lat="43.41123" lon="5.51349">
        <ele>593.9</ele>
        <time>2017-09-14T07:33:28Z</time>
      </trkpt>
      <trkpt lat="43.41119" lon="5.51361">
        <ele>595.3</ele>
        <time>2017-09-14T07:33:38Z</time>
      </trkpt>
      <trkpt lat="43.4111" lon="5.5137">
        <ele>597.1</ele>
        <time>2017-09-14T07:33:45Z</time>
      </trkpt>
      <trkpt lat="43.41101" lon="5.51372">
        <ele>599.2</ele>
        <time>2017-09-14T07:33:56Z</time>
      </trkpt>
      <trkpt lat="43.41091" lon="5.5137">
        <ele>601.1</ele>
        <time>2017-09-14T07:34:06Z</time>
      </trkpt>
      <trkpt lat="43.41082" lon="5.51373">
        <ele>603.5</ele>
        <time>2017-09-14T07:34:19Z</time>
      </trkpt>
      <trkpt lat="43.41073" lon="5.51373">
        <ele>605.4</ele>
        <time>2017-09-14T07:34:32Z</time>
      </trkpt>
      <trkpt lat="43.41062" lon="5.51372">
        <ele>606.8</ele>
        <time>2017-09-14T07:34:41Z</time>
      </trkpt>
      <trkpt lat="43.41053" lon="5.51371">
        <ele>608.2</ele>
        <time>2017-09-14T07:34:49Z</time>
      </trkpt>
      <trkpt lat="43.4105" lon="5.51359">
        <ele>610.5</ele>
        <time>2017-09-14T07:34:59Z</time>
      </trkpt>
      <trkpt lat="43.41047" lon="5.51346">
        <ele>611.8</ele>
        <time>2017-09-14T07:35:09Z</time>
      </trkpt>
      <trkpt lat="43.41042" lon="5.51335">
        <ele>612.8</ele>
        <time>2017-09-14T07:35:18Z</time>
      </trkpt>
      <trkpt lat="43.41037" lon="5.51322">
        <ele>614.4</ele>
        <time>2017-09-14T07:35:27Z</time>
      </trkpt>
      <trkpt lat="43.41035" lon="5.51309">
        <ele>615.1</ele>
        <time>2017-09-14T07:35:35Z</time>
      </trkpt>
      <trkpt lat="43.41032" lon="5.51296">
        <ele>616.3</ele>
        <time>2017-09-14T07:35:45Z</time>
      </trkpt>
      <trkpt lat="43.41031" lon="5.51284">
        <ele>617.8</ele>
        <time>2017-09-14T07:35:54Z</time>
      </trkpt>
      <trkpt lat="43.41024" lon="5.51275">
        <ele>619.4</ele>
        <time>2017-09-14T07:36:04Z</time>
      </trkpt>
      <trkpt lat="43.4102" lon="5.51263">
        <ele>621</ele>
        <time>2017-09-14T07:36:13Z</time>
      </trkpt>
      <trkpt lat="43.41012" lon="5.51255">
        <ele>623.4</ele>
        <time>2017-09-14T07:36:24Z</time>
      </trkpt>
      <trkpt lat="43.41006" lon="5.51244">
        <ele>624.7</ele>
        <time>2017-09-14T07:36:32Z</time>
      </trkpt>
      <trkpt lat="43.40999" lon="5.51237">
        <ele>627.5</ele>
        <time>2017-09-14T07:36:43Z</time>
      </trkpt>
      <trkpt lat="43.40995" lon="5.51226">
        <ele>629.7</ele>
        <time>2017-09-14T07:36:54Z</time>
      </trkpt>
      <trkpt lat="43.40991" lon="5.51215">
        <ele>631.8</ele>
        <time>2017-09-14T07:37:04Z</time>
      </trkpt>
      <trkpt lat="43.40988" lon="5.51202">
        <ele>633.9</ele>
        <time>2017-09-14T07:37:15Z</time>
      </trkpt>
      <trkpt lat="43.40979" lon="5.51195">
        <ele>634.9</ele>
        <time>2017-09-14T07:37:22Z</time>
      </trkpt>
      <trkpt lat="43.40975" lon="5.51183">
        <ele>636.7</ele>
        <time>2017-09-14T07:37:34Z</time>
      </trkpt>
      <trkpt lat="43.40973" lon="5.51169">
        <ele>638.2</ele>
        <time>2017-09-14T07:37:43Z</time>
      </trkpt>
      <trkpt lat="43.40968" lon="5.51159">
        <ele>640</ele>
        <time>2017-09-14T07:37:52Z</time>
      </trkpt>
      <trkpt lat="43.40965" lon="5.51146">
        <ele>644</ele>
        <time>2017-09-14T07:38:13Z</time>
      </trkpt>
      <trkpt lat="43.40965" lon="5.51133">
        <ele>645.6</ele>
        <time>2017-09-14T07:38:19Z</time>
      </trkpt>
      <trkpt lat="43.40964" lon="5.5112">
        <ele>647</ele>
        <time>2017-09-14T07:38:27Z</time>
      </trkpt>
      <trkpt lat="43.40956" lon="5.51111">
        <ele>650</ele>
        <time>2017-09-14T07:38:38Z</time>
      </trkpt>
      <trkpt lat="43.40961" lon="5.511">
        <ele>651.9</ele>
        <time>2017-09-14T07:38:48Z</time>
      </trkpt>
      <trkpt lat="43.40957" lon="5.51087">
        <ele>654.4</ele>
        <time>2017-09-14T07:39:00Z</time>
      </trkpt>
      <trkpt lat="43.40961" lon="5.51075">
        <ele>656.2</ele>
        <time>2017-09-14T07:39:10Z</time>
      </trkpt>
      <trkpt lat="43.40965" lon="5.51063">
        <ele>658</ele>
        <time>2017-09-14T07:39:22Z</time>
      </trkpt>
      <trkpt lat="43.40967" lon="5.5105">
        <ele>660.3</ele>
        <time>2017-09-14T07:39:35Z</time>
      </trkpt>
      <trkpt lat="43.4096" lon="5.51041">
        <ele>661</ele>
        <time>2017-09-14T07:39:50Z</time>
      </trkpt>
      <trkpt lat="43.40951" lon="5.51045">
        <ele>662.2</ele>
        <time>2017-09-14T07:39:59Z</time>
      </trkpt>
      <trkpt lat="43.40942" lon="5.51049">
        <ele>665.2</ele>
        <time>2017-09-14T07:40:11Z</time>
      </trkpt>
      <trkpt lat="43.4094" lon="5.51036">
        <ele>668.1</ele>
        <time>2017-09-14T07:40:23Z</time>
      </trkpt>
      <trkpt lat="43.40931" lon="5.51033">
        <ele>669.8</ele>
        <time>2017-09-14T07:40:33Z</time>
      </trkpt>
      <trkpt lat="43.40922" lon="5.51032">
        <ele>671.2</ele>
        <time>2017-09-14T07:40:45Z</time>
      </trkpt>
      <trkpt lat="43.40912" lon="5.51027">
        <ele>673.2</ele>
        <time>2017-09-14T07:40:55Z</time>
      </trkpt>
      <trkpt lat="43.40903" lon="5.51021">
        <ele>675.4</ele>
        <time>2017-09-14T07:41:06Z</time>
      </trkpt>
      <trkpt lat="43.40895" lon="5.51013">
        <ele>678.5</ele>
        <time>2017-09-14T07:41:20Z</time>
      </trkpt>
      <trkpt lat="43.4089" lon="5.51003">
        <ele>681.1</ele>
        <time>2017-09-14T07:41:32Z</time>
      </trkpt>
      <trkpt lat="43.40881" lon="5.51">
        <ele>681.4</ele>
        <time>2017-09-14T07:41:50Z</time>
      </trkpt>
      <trkpt lat="43.40872" lon="5.50995">
        <ele>683.7</ele>
        <time>2017-09-14T07:42:03Z</time>
      </trkpt>
      <trkpt lat="43.40862" lon="5.50992">
        <ele>684.9</ele>
        <time>2017-09-14T07:42:12Z</time>
      </trkpt>
      <trkpt lat="43.40853" lon="5.50989">
        <ele>687.1</ele>
        <time>2017-09-14T07:42:24Z</time>
      </trkpt>
      <trkpt lat="43.40844" lon="5.50984">
        <ele>687.6</ele>
        <time>2017-09-14T07:42:31Z</time>
      </trkpt>
      <trkpt lat="43.40835" lon="5.50981">
        <ele>688.9</ele>
        <time>2017-09-14T07:42:40Z</time>
      </trkpt>
      <trkpt lat="43.40825" lon="5.50978">
        <ele>690.3</ele>
        <time>2017-09-14T07:42:51Z</time>
      </trkpt>
      <trkpt lat="43.40815" lon="5.50977">
        <ele>690.9</ele>
        <time>2017-09-14T07:42:58Z</time>
      </trkpt>
      <trkpt lat="43.40807" lon="5.50973">
        <ele>692.1</ele>
        <time>2017-09-14T07:43:06Z</time>
      </trkpt>
      <trkpt lat="43.40804" lon="5.5096">
        <ele>693.3</ele>
        <time>2017-09-14T07:43:14Z</time>
      </trkpt>
      <trkpt lat="43.408" lon="5.50949">
        <ele>694.7</ele>
        <time>2017-09-14T07:43:24Z</time>
      </trkpt>
      <trkpt lat="43.40795" lon="5.50938">
        <ele>696.8</ele>
        <time>2017-09-14T07:43:35Z</time>
      </trkpt>
      <trkpt lat="43.40788" lon="5.50929">
        <ele>699.3</ele>
        <time>2017-09-14T07:43:47Z</time>
      </trkpt>
      <trkpt lat="43.40782" lon="5.50919">
        <ele>701.4</ele>
        <time>2017-09-14T07:43:57Z</time>
      </trkpt>
      <trkpt lat="43.40774" lon="5.50912">
        <ele>703.3</ele>
        <time>2017-09-14T07:44:06Z</time>
      </trkpt>
      <trkpt lat="43.40766" lon="5.50906">
        <ele>705.5</ele>
        <time>2017-09-14T07:44:16Z</time>
      </trkpt>
      <trkpt lat="43.40763" lon="5.50918">
        <ele>707.3</ele>
        <time>2017-09-14T07:44:27Z</time>
      </trkpt>
      <trkpt lat="43.40764" lon="5.50931">
        <ele>710.1</ele>
        <time>2017-09-14T07:44:40Z</time>
      </trkpt>
      <trkpt lat="43.40757" lon="5.50939">
        <ele>712.6</ele>
        <time>2017-09-14T07:44:51Z</time>
      </trkpt>
      <trkpt lat="43.40754" lon="5.50951">
        <ele>715.4</ele>
        <time>2017-09-14T07:45:06Z</time>
      </trkpt>
      <trkpt lat="43.40749" lon="5.50963">
        <ele>718.9</ele>
        <time>2017-09-14T07:45:21Z</time>
      </trkpt>
      <trkpt lat="43.40751" lon="5.50975">
        <ele>720.8</ele>
        <time>2017-09-14T07:45:59Z</time>
      </trkpt>
      <trkpt lat="43.40747" lon="5.50986">
        <ele>724.5</ele>
        <time>2017-09-14T07:46:14Z</time>
      </trkpt>
      <trkpt lat="43.40747" lon="5.51">
        <ele>727.9</ele>
        <time>2017-09-14T07:46:29Z</time>
      </trkpt>
      <trkpt lat="43.40742" lon="5.51011">
        <ele>731</ele>
        <time>2017-09-14T07:46:44Z</time>
      </trkpt>
      <trkpt lat="43.40738" lon="5.51023">
        <ele>734.7</ele>
        <time>2017-09-14T07:47:00Z</time>
      </trkpt>
      <trkpt lat="43.40737" lon="5.51036">
        <ele>738.3</ele>
        <time>2017-09-14T07:47:17Z</time>
      </trkpt>
      <trkpt lat="43.40733" lon="5.51048">
        <ele>742.4</ele>
        <time>2017-09-14T07:47:33Z</time>
      </trkpt>
      <trkpt lat="43.40732" lon="5.51062">
        <ele>745.9</ele>
        <time>2017-09-14T07:47:50Z</time>
      </trkpt>
      <trkpt lat="43.4073" lon="5.51074">
        <ele>750.3</ele>
        <time>2017-09-14T07:48:09Z</time>
      </trkpt>
      <trkpt lat="43.40723" lon="5.51083">
        <ele>754.3</ele>
        <time>2017-09-14T07:48:27Z</time>
      </trkpt>
      <trkpt lat="43.40723" lon="5.51095">
        <ele>757.8</ele>
        <time>2017-09-14T07:48:50Z</time>
      </trkpt>
      <trkpt lat="43.4072" lon="5.51107">
        <ele>763.1</ele>
        <time>2017-09-14T07:49:16Z</time>
      </trkpt>
      <trkpt lat="43.40714" lon="5.51117">
        <ele>767.5</ele>
        <time>2017-09-14T07:49:45Z</time>
      </trkpt>
      <trkpt lat="43.40714" lon="5.5113">
        <ele>770.1</ele>
        <time>2017-09-14T07:49:58Z</time>
      </trkpt>
      <trkpt lat="43.40715" lon="5.51143">
        <ele>773.4</ele>
        <time>2017-09-14T07:50:11Z</time>
      </trkpt>
      <trkpt lat="43.40714" lon="5.51157">
        <ele>776.4</ele>
        <time>2017-09-14T07:50:24Z</time>
      </trkpt>
      <trkpt lat="43.40717" lon="5.51169">
        <ele>779.2</ele>
        <time>2017-09-14T07:50:37Z</time>
      </trkpt>
      <trkpt lat="43.40719" lon="5.51182">
        <ele>781.9</ele>
        <time>2017-09-14T07:50:49Z</time>
      </trkpt>
      <trkpt lat="43.40712" lon="5.51191">
        <ele>783.5</ele>
        <time>2017-09-14T07:50:59Z</time>
      </trkpt>
      <trkpt lat="43.40707" lon="5.51203">
        <ele>783.7</ele>
        <time>2017-09-14T07:51:08Z</time>
      </trkpt>
      <trkpt lat="43.40703" lon="5.51215">
        <ele>784.5</ele>
        <time>2017-09-14T07:51:19Z</time>
      </trkpt>
      <trkpt lat="43.40695" lon="5.51223">
        <ele>786.1</ele>
        <time>2017-09-14T07:51:30Z</time>
      </trkpt>
      <trkpt lat="43.40687" lon="5.5123">
        <ele>787.4</ele>
        <time>2017-09-14T07:51:40Z</time>
      </trkpt>
      <trkpt lat="43.40679" lon="5.51237">
        <ele>788.4</ele>
        <time>2017-09-14T07:51:49Z</time>
      </trkpt>
      <trkpt lat="43.40674" lon="5.51247">
        <ele>789.1</ele>
        <time>2017-09-14T07:51:58Z</time>
      </trkpt>
      <trkpt lat="43.4067" lon="5.5126">
        <ele>789.1</ele>
        <time>2017-09-14T07:52:07Z</time>
      </trkpt>
      <trkpt lat="43.40661" lon="5.51264">
        <ele>788.9</ele>
        <time>2017-09-14T07:52:21Z</time>
      </trkpt>
      <trkpt lat="43.40652" lon="5.51267">
        <ele>787.6</ele>
        <time>2017-09-14T07:52:46Z</time>
      </trkpt>
      <trkpt lat="43.40643" lon="5.51274">
        <ele>786.5</ele>
        <time>2017-09-14T07:52:53Z</time>
      </trkpt>
      <trkpt lat="43.40635" lon="5.51281">
        <ele>786</ele>
        <time>2017-09-14T07:53:01Z</time>
      </trkpt>
      <trkpt lat="43.40627" lon="5.51286">
        <ele>785.2</ele>
        <time>2017-09-14T07:53:09Z</time>
      </trkpt>
      <trkpt lat="43.40617" lon="5.51288">
        <ele>784.9</ele>
        <time>2017-09-14T07:53:17Z</time>
      </trkpt>
      <trkpt lat="43.40607" lon="5.51291">
        <ele>784</ele>
        <time>2017-09-14T07:53:25Z</time>
      </trkpt>
      <trkpt lat="43.40598" lon="5.51294">
        <ele>783.3</ele>
        <time>2017-09-14T07:53:33Z</time>
      </trkpt>
      <trkpt lat="43.40589" lon="5.5129">
        <ele>782.5</ele>
        <time>2017-09-14T07:53:42Z</time>
      </trkpt>
      <trkpt lat="43.40581" lon="5.51283">
        <ele>781.8</ele>
        <time>2017-09-14T07:53:49Z</time>
      </trkpt>
      <trkpt lat="43.40572" lon="5.51275">
        <ele>781.6</ele>
        <time>2017-09-14T07:53:57Z</time>
      </trkpt>
      <trkpt lat="43.40565" lon="5.51266">
        <ele>782.3</ele>
        <time>2017-09-14T07:54:04Z</time>
      </trkpt>
      <trkpt lat="43.40557" lon="5.5126">
        <ele>781.8</ele>
        <time>2017-09-14T07:54:12Z</time>
      </trkpt>
      <trkpt lat="43.4055" lon="5.5125">
        <ele>781.8</ele>
        <time>2017-09-14T07:54:20Z</time>
      </trkpt>
      <trkpt lat="43.40543" lon="5.51242">
        <ele>781.7</ele>
        <time>2017-09-14T07:54:28Z</time>
      </trkpt>
      <trkpt lat="43.40536" lon="5.51234">
        <ele>781.7</ele>
        <time>2017-09-14T07:54:37Z</time>
      </trkpt>
      <trkpt lat="43.4053" lon="5.51224">
        <ele>780.9</ele>
        <time>2017-09-14T07:54:44Z</time>
      </trkpt>
      <trkpt lat="43.40534" lon="5.51212">
        <ele>779.6</ele>
        <time>2017-09-14T07:55:02Z</time>
      </trkpt>
      <trkpt lat="43.40535" lon="5.51199">
        <ele>778.5</ele>
        <time>2017-09-14T07:55:09Z</time>
      </trkpt>
      <trkpt lat="43.4053" lon="5.51188">
        <ele>777.5</ele>
        <time>2017-09-14T07:55:17Z</time>
      </trkpt>
      <trkpt lat="43.40524" lon="5.51178">
        <ele>776.4</ele>
        <time>2017-09-14T07:55:25Z</time>
      </trkpt>
      <trkpt lat="43.40516" lon="5.51172">
        <ele>775.6</ele>
        <time>2017-09-14T07:55:32Z</time>
      </trkpt>
      <trkpt lat="43.40511" lon="5.51161">
        <ele>774.4</ele>
        <time>2017-09-14T07:55:41Z</time>
      </trkpt>
      <trkpt lat="43.40501" lon="5.51161">
        <ele>773.3</ele>
        <time>2017-09-14T07:55:50Z</time>
      </trkpt>
      <trkpt lat="43.40506" lon="5.5115">
        <ele>773.1</ele>
        <time>2017-09-14T07:56:33Z</time>
      </trkpt>
      <trkpt lat="43.40508" lon="5.51137">
        <ele>771.9</ele>
        <time>2017-09-14T07:56:42Z</time>
      </trkpt>
      <trkpt lat="43.40509" lon="5.51124">
        <ele>770.6</ele>
        <time>2017-09-14T07:56:52Z</time>
      </trkpt>
      <trkpt lat="43.40505" lon="5.51112">
        <ele>769.2</ele>
        <time>2017-09-14T07:57:00Z</time>
      </trkpt>
      <trkpt lat="43.40501" lon="5.511">
        <ele>768.4</ele>
        <time>2017-09-14T07:57:09Z</time>
      </trkpt>
      <trkpt lat="43.40501" lon="5.51087">
        <ele>766.5</ele>
        <time>2017-09-14T07:57:21Z</time>
      </trkpt>
      <trkpt lat="43.40497" lon="5.51075">
        <ele>764.4</ele>
        <time>2017-09-14T07:57:33Z</time>
      </trkpt>
      <trkpt lat="43.40503" lon="5.51064">
        <ele>762.4</ele>
        <time>2017-09-14T07:57:47Z</time>
      </trkpt>
      <trkpt lat="43.40497" lon="5.51054">
        <ele>760.9</ele>
        <time>2017-09-14T07:57:58Z</time>
      </trkpt>
      <trkpt lat="43.40495" lon="5.51041">
        <ele>759</ele>
        <time>2017-09-14T07:58:08Z</time>
      </trkpt>
      <trkpt lat="43.40497" lon="5.51028">
        <ele>758.4</ele>
        <time>2017-09-14T07:58:19Z</time>
      </trkpt>
      <trkpt lat="43.40496" lon="5.51016">
        <ele>758.4</ele>
        <time>2017-09-14T07:58:32Z</time>
      </trkpt>
      <trkpt lat="43.40496" lon="5.51002">
        <ele>759.1</ele>
        <time>2017-09-14T07:58:42Z</time>
      </trkpt>
      <trkpt lat="43.40494" lon="5.50989">
        <ele>758.6</ele>
        <time>2017-09-14T07:58:52Z</time>
      </trkpt>
      <trkpt lat="43.40492" lon="5.50976">
        <ele>758.1</ele>
        <time>2017-09-14T07:59:00Z</time>
      </trkpt>
      <trkpt lat="43.40487" lon="5.50966">
        <ele>758</ele>
        <time>2017-09-14T07:59:09Z</time>
      </trkpt>
      <trkpt lat="43.40486" lon="5.50953">
        <ele>758.4</ele>
        <time>2017-09-14T07:59:18Z</time>
      </trkpt>
      <trkpt lat="43.40486" lon="5.5094">
        <ele>758.4</ele>
        <time>2017-09-14T07:59:29Z</time>
      </trkpt>
      <trkpt lat="43.40487" lon="5.50927">
        <ele>756.7</ele>
        <time>2017-09-14T07:59:41Z</time>
      </trkpt>
      <trkpt lat="43.40481" lon="5.50916">
        <ele>755.2</ele>
        <time>2017-09-14T07:59:55Z</time>
      </trkpt>
      <trkpt lat="43.40483" lon="5.50903">
        <ele>754.6</ele>
        <time>2017-09-14T08:00:04Z</time>
      </trkpt>
      <trkpt lat="43.40481" lon="5.50888">
        <ele>753.5</ele>
        <time>2017-09-14T08:00:17Z</time>
      </trkpt>
      <trkpt lat="43.40478" lon="5.50876">
        <ele>752.7</ele>
        <time>2017-09-14T08:00:27Z</time>
      </trkpt>
      <trkpt lat="43.4048" lon="5.50863">
        <ele>753</ele>
        <time>2017-09-14T08:00:34Z</time>
      </trkpt>
      <trkpt lat="43.40483" lon="5.5085">
        <ele>751.3</ele>
        <time>2017-09-14T08:00:47Z</time>
      </trkpt>
      <trkpt lat="43.40478" lon="5.5084">
        <ele>748.3</ele>
        <time>2017-09-14T08:01:09Z</time>
      </trkpt>
      <trkpt lat="43.40483" lon="5.50829">
        <ele>744.8</ele>
        <time>2017-09-14T08:01:22Z</time>
      </trkpt>
      <trkpt lat="43.40487" lon="5.50817">
        <ele>743.4</ele>
        <time>2017-09-14T08:01:30Z</time>
      </trkpt>
      <trkpt lat="43.4049" lon="5.50804">
        <ele>742</ele>
        <time>2017-09-14T08:01:37Z</time>
      </trkpt>
      <trkpt lat="43.40488" lon="5.50791">
        <ele>740.9</ele>
        <time>2017-09-14T08:01:48Z</time>
      </trkpt>
      <trkpt lat="43.40483" lon="5.5078">
        <ele>738.4</ele>
        <time>2017-09-14T08:01:59Z</time>
      </trkpt>
      <trkpt lat="43.40482" lon="5.50766">
        <ele>736.2</ele>
        <time>2017-09-14T08:02:09Z</time>
      </trkpt>
      <trkpt lat="43.40484" lon="5.50752">
        <ele>734.3</ele>
        <time>2017-09-14T08:02:20Z</time>
      </trkpt>
      <trkpt lat="43.40484" lon="5.5074">
        <ele>733</ele>
        <time>2017-09-14T08:02:31Z</time>
      </trkpt>
      <trkpt lat="43.40488" lon="5.50728">
        <ele>732.2</ele>
        <time>2017-09-14T08:02:39Z</time>
      </trkpt>
      <trkpt lat="43.40491" lon="5.50716">
        <ele>730.9</ele>
        <time>2017-09-14T08:02:48Z</time>
      </trkpt>
      <trkpt lat="43.40493" lon="5.50703">
        <ele>729.5</ele>
        <time>2017-09-14T08:02:59Z</time>
      </trkpt>
      <trkpt lat="43.40493" lon="5.50691">
        <ele>728.3</ele>
        <time>2017-09-14T08:03:14Z</time>
      </trkpt>
      <trkpt lat="43.40491" lon="5.50678">
        <ele>727.5</ele>
        <time>2017-09-14T08:03:24Z</time>
      </trkpt>
      <trkpt lat="43.40492" lon="5.50664">
        <ele>727.2</ele>
        <time>2017-09-14T08:03:33Z</time>
      </trkpt>
      <trkpt lat="43.40489" lon="5.50652">
        <ele>727.1</ele>
        <time>2017-09-14T08:03:42Z</time>
      </trkpt>
      <trkpt lat="43.40487" lon="5.50639">
        <ele>727</ele>
        <time>2017-09-14T08:03:50Z</time>
      </trkpt>
      <trkpt lat="43.40486" lon="5.50626">
        <ele>728.3</ele>
        <time>2017-09-14T08:03:58Z</time>
      </trkpt>
      <trkpt lat="43.40481" lon="5.50615">
        <ele>729</ele>
        <time>2017-09-14T08:04:11Z</time>
      </trkpt>
      <trkpt lat="43.40473" lon="5.50609">
        <ele>728.8</ele>
        <time>2017-09-14T08:04:21Z</time>
      </trkpt>
      <trkpt lat="43.4048" lon="5.50618">
        <ele>728.7</ele>
        <time>2017-09-14T08:04:30Z</time>
      </trkpt>
      <trkpt lat="43.40482" lon="5.50605">
        <ele>730.4</ele>
        <time>2017-09-14T08:04:43Z</time>
      </trkpt>
      <trkpt lat="43.40477" lon="5.50594">
        <ele>731.5</ele>
        <time>2017-09-14T08:04:52Z</time>
      </trkpt>
      <trkpt lat="43.40478" lon="5.50581">
        <ele>732.9</ele>
        <time>2017-09-14T08:05:02Z</time>
      </trkpt>
      <trkpt lat="43.40476" lon="5.50568">
        <ele>734.4</ele>
        <time>2017-09-14T08:05:12Z</time>
      </trkpt>
      <trkpt lat="43.40474" lon="5.50556">
        <ele>735.3</ele>
        <time>2017-09-14T08:05:21Z</time>
      </trkpt>
      <trkpt lat="43.40469" lon="5.50545">
        <ele>738</ele>
        <time>2017-09-14T08:05:34Z</time>
      </trkpt>
      <trkpt lat="43.40468" lon="5.50533">
        <ele>739.9</ele>
        <time>2017-09-14T08:05:47Z</time>
      </trkpt>
      <trkpt lat="43.40463" lon="5.50521">
        <ele>739.5</ele>
        <time>2017-09-14T08:05:57Z</time>
      </trkpt>
      <trkpt lat="43.4046" lon="5.50508">
        <ele>739</ele>
        <time>2017-09-14T08:06:06Z</time>
      </trkpt>
      <trkpt lat="43.40464" lon="5.50496">
        <ele>738.1</ele>
        <time>2017-09-14T08:06:15Z</time>
      </trkpt>
      <trkpt lat="43.40464" lon="5.50482">
        <ele>737.4</ele>
        <time>2017-09-14T08:06:25Z</time>
      </trkpt>
      <trkpt lat="43.40464" lon="5.5047">
        <ele>736.9</ele>
        <time>2017-09-14T08:06:34Z</time>
      </trkpt>
      <trkpt lat="43.40469" lon="5.50458">
        <ele>738</ele>
        <time>2017-09-14T08:06:43Z</time>
      </trkpt>
      <trkpt lat="43.40472" lon="5.50445">
        <ele>739.9</ele>
        <time>2017-09-14T08:06:53Z</time>
      </trkpt>
      <trkpt lat="43.4047" lon="5.50433">
        <ele>740.5</ele>
        <time>2017-09-14T08:07:03Z</time>
      </trkpt>
      <trkpt lat="43.40467" lon="5.5042">
        <ele>741.2</ele>
        <time>2017-09-14T08:07:14Z</time>
      </trkpt>
      <trkpt lat="43.40466" lon="5.50407">
        <ele>742.2</ele>
        <time>2017-09-14T08:07:25Z</time>
      </trkpt>
      <trkpt lat="43.40461" lon="5.50395">
        <ele>742.3</ele>
        <time>2017-09-14T08:07:34Z</time>
      </trkpt>
      <trkpt lat="43.40458" lon="5.50383">
        <ele>742.4</ele>
        <time>2017-09-14T08:07:48Z</time>
      </trkpt>
      <trkpt lat="43.40453" lon="5.50373">
        <ele>737.9</ele>
        <time>2017-09-14T08:08:21Z</time>
      </trkpt>
      <trkpt lat="43.40453" lon="5.5036">
        <ele>736.7</ele>
        <time>2017-09-14T08:08:29Z</time>
      </trkpt>
      <trkpt lat="43.40454" lon="5.50347">
        <ele>736.2</ele>
        <time>2017-09-14T08:08:37Z</time>
      </trkpt>
      <trkpt lat="43.40461" lon="5.50338">
        <ele>735.6</ele>
        <time>2017-09-14T08:08:48Z</time>
      </trkpt>
      <trkpt lat="43.40462" lon="5.50325">
        <ele>734.7</ele>
        <time>2017-09-14T08:08:56Z</time>
      </trkpt>
      <trkpt lat="43.4046" lon="5.50313">
        <ele>735.1</ele>
        <time>2017-09-14T08:09:04Z</time>
      </trkpt>
      <trkpt lat="43.40459" lon="5.50299">
        <ele>736.2</ele>
        <time>2017-09-14T08:09:14Z</time>
      </trkpt>
      <trkpt lat="43.40458" lon="5.50287">
        <ele>736.9</ele>
        <time>2017-09-14T08:09:25Z</time>
      </trkpt>
      <trkpt lat="43.40462" lon="5.50275">
        <ele>736.8</ele>
        <time>2017-09-14T08:09:36Z</time>
      </trkpt>
      <trkpt lat="43.40466" lon="5.50263">
        <ele>736</ele>
        <time>2017-09-14T08:09:46Z</time>
      </trkpt>
      <trkpt lat="43.40468" lon="5.5025">
        <ele>736</ele>
        <time>2017-09-14T08:09:54Z</time>
      </trkpt>
      <trkpt lat="43.40469" lon="5.50237">
        <ele>736.8</ele>
        <time>2017-09-14T08:10:02Z</time>
      </trkpt>
      <trkpt lat="43.40472" lon="5.50224">
        <ele>737.3</ele>
        <time>2017-09-14T08:10:11Z</time>
      </trkpt>
      <trkpt lat="43.40474" lon="5.50211">
        <ele>737.9</ele>
        <time>2017-09-14T08:10:19Z</time>
      </trkpt>
      <trkpt lat="43.40476" lon="5.50199">
        <ele>738.1</ele>
        <time>2017-09-14T08:10:28Z</time>
      </trkpt>
      <trkpt lat="43.40475" lon="5.50186">
        <ele>736</ele>
        <time>2017-09-14T08:10:42Z</time>
      </trkpt>
      <trkpt lat="43.40478" lon="5.50174">
        <ele>734.6</ele>
        <time>2017-09-14T08:10:51Z</time>
      </trkpt>
      <trkpt lat="43.4048" lon="5.50161">
        <ele>732.9</ele>
        <time>2017-09-14T08:11:03Z</time>
      </trkpt>
      <trkpt lat="43.40484" lon="5.5015">
        <ele>731.5</ele>
        <time>2017-09-14T08:11:13Z</time>
      </trkpt>
      <trkpt lat="43.40488" lon="5.50138">
        <ele>730.6</ele>
        <time>2017-09-14T08:11:22Z</time>
      </trkpt>
      <trkpt lat="43.40494" lon="5.50129">
        <ele>729.4</ele>
        <time>2017-09-14T08:11:31Z</time>
      </trkpt>
      <trkpt lat="43.405" lon="5.50118">
        <ele>728.8</ele>
        <time>2017-09-14T08:11:41Z</time>
      </trkpt>
      <trkpt lat="43.405" lon="5.50105">
        <ele>728.2</ele>
        <time>2017-09-14T08:11:47Z</time>
      </trkpt>
      <trkpt lat="43.40499" lon="5.50091">
        <ele>727.9</ele>
        <time>2017-09-14T08:11:55Z</time>
      </trkpt>
      <trkpt lat="43.405" lon="5.50077">
        <ele>727.9</ele>
        <time>2017-09-14T08:12:03Z</time>
      </trkpt>
      <trkpt lat="43.40502" lon="5.50065">
        <ele>727.9</ele>
        <time>2017-09-14T08:12:12Z</time>
      </trkpt>
      <trkpt lat="43.40503" lon="5.50052">
        <ele>728.5</ele>
        <time>2017-09-14T08:12:20Z</time>
      </trkpt>
      <trkpt lat="43.40504" lon="5.50038">
        <ele>728.8</ele>
        <time>2017-09-14T08:12:28Z</time>
      </trkpt>
      <trkpt lat="43.40507" lon="5.50026">
        <ele>729.5</ele>
        <time>2017-09-14T08:12:37Z</time>
      </trkpt>
      <trkpt lat="43.40509" lon="5.50013">
        <ele>730.7</ele>
        <time>2017-09-14T08:12:47Z</time>
      </trkpt>
      <trkpt lat="43.40507" lon="5.5">
        <ele>732.5</ele>
        <time>2017-09-14T08:12:56Z</time>
      </trkpt>
      <trkpt lat="43.40506" lon="5.49986">
        <ele>733.6</ele>
        <time>2017-09-14T08:13:06Z</time>
      </trkpt>
      <trkpt lat="43.40506" lon="5.49973">
        <ele>734.7</ele>
        <time>2017-09-14T08:13:17Z</time>
      </trkpt>
      <trkpt lat="43.40508" lon="5.4996">
        <ele>736.4</ele>
        <time>2017-09-14T08:13:26Z</time>
      </trkpt>
      <trkpt lat="43.40508" lon="5.49947">
        <ele>737.2</ele>
        <time>2017-09-14T08:13:34Z</time>
      </trkpt>
      <trkpt lat="43.40507" lon="5.49934">
        <ele>737.9</ele>
        <time>2017-09-14T08:13:44Z</time>
      </trkpt>
      <trkpt lat="43.40511" lon="5.49921">
        <ele>737.8</ele>
        <time>2017-09-14T08:13:53Z</time>
      </trkpt>
      <trkpt lat="43.40513" lon="5.49908">
        <ele>738.2</ele>
        <time>2017-09-14T08:14:02Z</time>
      </trkpt>
      <trkpt lat="43.40515" lon="5.49896">
        <ele>739.2</ele>
        <time>2017-09-14T08:14:10Z</time>
      </trkpt>
      <trkpt lat="43.40519" lon="5.49884">
        <ele>740.8</ele>
        <time>2017-09-14T08:14:21Z</time>
      </trkpt>
      <trkpt lat="43.40524" lon="5.49872">
        <ele>741.4</ele>
        <time>2017-09-14T08:14:33Z</time>
      </trkpt>
      <trkpt lat="43.40532" lon="5.49865">
        <ele>741.3</ele>
        <time>2017-09-14T08:14:42Z</time>
      </trkpt>
      <trkpt lat="43.40537" lon="5.49853">
        <ele>740.7</ele>
        <time>2017-09-14T08:14:54Z</time>
      </trkpt>
      <trkpt lat="43.40542" lon="5.49843">
        <ele>740.2</ele>
        <time>2017-09-14T08:15:03Z</time>
      </trkpt>
      <trkpt lat="43.40547" lon="5.49832">
        <ele>740.9</ele>
        <time>2017-09-14T08:15:24Z</time>
      </trkpt>
      <trkpt lat="43.40553" lon="5.49821">
        <ele>740.7</ele>
        <time>2017-09-14T08:15:31Z</time>
      </trkpt>
      <trkpt lat="43.40561" lon="5.49813">
        <ele>739.2</ele>
        <time>2017-09-14T08:15:40Z</time>
      </trkpt>
      <trkpt lat="43.40565" lon="5.49802">
        <ele>737.2</ele>
        <time>2017-09-14T08:15:52Z</time>
      </trkpt>
      <trkpt lat="43.40573" lon="5.49794">
        <ele>734.8</ele>
        <time>2017-09-14T08:16:02Z</time>
      </trkpt>
      <trkpt lat="43.40581" lon="5.49788">
        <ele>732.9</ele>
        <time>2017-09-14T08:16:13Z</time>
      </trkpt>
      <trkpt lat="43.40578" lon="5.49776">
        <ele>731.2</ele>
        <time>2017-09-14T08:16:35Z</time>
      </trkpt>
      <trkpt lat="43.40578" lon="5.49763">
        <ele>728.2</ele>
        <time>2017-09-14T08:16:47Z</time>
      </trkpt>
      <trkpt lat="43.4058" lon="5.4975">
        <ele>725.8</ele>
        <time>2017-09-14T08:16:58Z</time>
      </trkpt>
      <trkpt lat="43.40578" lon="5.49737">
        <ele>722.8</ele>
        <time>2017-09-14T08:17:10Z</time>
      </trkpt>
      <trkpt lat="43.40577" lon="5.49724">
        <ele>720.5</ele>
        <time>2017-09-14T08:17:21Z</time>
      </trkpt>
      <trkpt lat="43.40579" lon="5.49711">
        <ele>719</ele>
        <time>2017-09-14T08:17:30Z</time>
      </trkpt>
      <trkpt lat="43.40581" lon="5.49697">
        <ele>718</ele>
        <time>2017-09-14T08:17:39Z</time>
      </trkpt>
      <trkpt lat="43.40585" lon="5.49685">
        <ele>717.7</ele>
        <time>2017-09-14T08:17:49Z</time>
      </trkpt>
      <trkpt lat="43.40588" lon="5.49672">
        <ele>717.8</ele>
        <time>2017-09-14T08:18:00Z</time>
      </trkpt>
      <trkpt lat="43.40591" lon="5.49659">
        <ele>718</ele>
        <time>2017-09-14T08:18:10Z</time>
      </trkpt>
      <trkpt lat="43.4059" lon="5.49647">
        <ele>717.7</ele>
        <time>2017-09-14T08:18:21Z</time>
      </trkpt>
      <trkpt lat="43.40594" lon="5.49635">
        <ele>717.7</ele>
        <time>2017-09-14T08:18:30Z</time>
      </trkpt>
      <trkpt lat="43.40598" lon="5.49623">
        <ele>718.2</ele>
        <time>2017-09-14T08:18:41Z</time>
      </trkpt>
      <trkpt lat="43.40603" lon="5.49613">
        <ele>718.1</ele>
        <time>2017-09-14T08:18:50Z</time>
      </trkpt>
      <trkpt lat="43.4061" lon="5.49603">
        <ele>717.9</ele>
        <time>2017-09-14T08:19:00Z</time>
      </trkpt>
      <trkpt lat="43.40619" lon="5.49596">
        <ele>717.3</ele>
        <time>2017-09-14T08:19:06Z</time>
      </trkpt>
      <trkpt lat="43.40626" lon="5.49588">
        <ele>717.2</ele>
        <time>2017-09-14T08:19:12Z</time>
      </trkpt>
      <trkpt lat="43.40633" lon="5.49579">
        <ele>717.1</ele>
        <time>2017-09-14T08:19:19Z</time>
      </trkpt>
      <trkpt lat="43.40638" lon="5.49568">
        <ele>716.6</ele>
        <time>2017-09-14T08:19:27Z</time>
      </trkpt>
      <trkpt lat="43.40641" lon="5.49556">
        <ele>716</ele>
        <time>2017-09-14T08:20:36Z</time>
      </trkpt>
      <trkpt lat="43.40646" lon="5.49545">
        <ele>715.4</ele>
        <time>2017-09-14T08:20:43Z</time>
      </trkpt>
      <trkpt lat="43.4065" lon="5.49533">
        <ele>715</ele>
        <time>2017-09-14T08:20:50Z</time>
      </trkpt>
      <trkpt lat="43.40652" lon="5.49521">
        <ele>714</ele>
        <time>2017-09-14T08:21:38Z</time>
      </trkpt>
      <trkpt lat="43.40657" lon="5.49511">
        <ele>713.1</ele>
        <time>2017-09-14T08:22:13Z</time>
      </trkpt>
      <trkpt lat="43.4066" lon="5.49499">
        <ele>712.5</ele>
        <time>2017-09-14T08:22:21Z</time>
      </trkpt>
      <trkpt lat="43.40663" lon="5.49486">
        <ele>711.7</ele>
        <time>2017-09-14T08:22:29Z</time>
      </trkpt>
      <trkpt lat="43.40666" lon="5.49473">
        <ele>710.6</ele>
        <time>2017-09-14T08:22:37Z</time>
      </trkpt>
      <trkpt lat="43.40668" lon="5.4946">
        <ele>709.7</ele>
        <time>2017-09-14T08:22:44Z</time>
      </trkpt>
      <trkpt lat="43.40668" lon="5.49447">
        <ele>708.8</ele>
        <time>2017-09-14T08:22:51Z</time>
      </trkpt>
      <trkpt lat="43.4067" lon="5.49435">
        <ele>707.7</ele>
        <time>2017-09-14T08:22:59Z</time>
      </trkpt>
      <trkpt lat="43.40674" lon="5.49423">
        <ele>706.1</ele>
        <time>2017-09-14T08:23:07Z</time>
      </trkpt>
      <trkpt lat="43.40675" lon="5.49409">
        <ele>704.7</ele>
        <time>2017-09-14T08:23:15Z</time>
      </trkpt>
      <trkpt lat="43.40675" lon="5.49396">
        <ele>703.3</ele>
        <time>2017-09-14T08:23:23Z</time>
      </trkpt>
      <trkpt lat="43.40677" lon="5.49383">
        <ele>701.6</ele>
        <time>2017-09-14T08:23:32Z</time>
      </trkpt>
      <trkpt lat="43.40679" lon="5.49371">
        <ele>699.8</ele>
        <time>2017-09-14T08:23:40Z</time>
      </trkpt>
      <trkpt lat="43.40679" lon="5.49358">
        <ele>698</ele>
        <time>2017-09-14T08:23:48Z</time>
      </trkpt>
      <trkpt lat="43.40681" lon="5.49346">
        <ele>696</ele>
        <time>2017-09-14T08:23:56Z</time>
      </trkpt>
      <trkpt lat="43.40684" lon="5.49333">
        <ele>694.3</ele>
        <time>2017-09-14T08:24:06Z</time>
      </trkpt>
      <trkpt lat="43.40686" lon="5.4932">
        <ele>693</ele>
        <time>2017-09-14T08:24:14Z</time>
      </trkpt>
      <trkpt lat="43.40687" lon="5.49307">
        <ele>691.4</ele>
        <time>2017-09-14T08:24:23Z</time>
      </trkpt>
      <trkpt lat="43.40686" lon="5.49293">
        <ele>689.7</ele>
        <time>2017-09-14T08:24:32Z</time>
      </trkpt>
      <trkpt lat="43.40686" lon="5.49281">
        <ele>688.1</ele>
        <time>2017-09-14T08:24:41Z</time>
      </trkpt>
      <trkpt lat="43.40686" lon="5.49267">
        <ele>686.1</ele>
        <time>2017-09-14T08:24:50Z</time>
      </trkpt>
      <trkpt lat="43.40684" lon="5.49254">
        <ele>684.3</ele>
        <time>2017-09-14T08:24:59Z</time>
      </trkpt>
      <trkpt lat="43.40675" lon="5.49249">
        <ele>682.5</ele>
        <time>2017-09-14T08:25:08Z</time>
      </trkpt>
      <trkpt lat="43.40666" lon="5.49248">
        <ele>681.8</ele>
        <time>2017-09-14T08:25:18Z</time>
      </trkpt>
      <trkpt lat="43.40657" lon="5.49248">
        <ele>679.8</ele>
        <time>2017-09-14T08:25:28Z</time>
      </trkpt>
      <trkpt lat="43.40648" lon="5.49244">
        <ele>678.1</ele>
        <time>2017-09-14T08:25:37Z</time>
      </trkpt>
      <trkpt lat="43.40638" lon="5.49241">
        <ele>675.1</ele>
        <time>2017-09-14T08:25:46Z</time>
      </trkpt>
      <trkpt lat="43.4063" lon="5.49234">
        <ele>673.5</ele>
        <time>2017-09-14T08:25:55Z</time>
      </trkpt>
      <trkpt lat="43.40622" lon="5.49227">
        <ele>671.6</ele>
        <time>2017-09-14T08:26:05Z</time>
      </trkpt>
      <trkpt lat="43.40613" lon="5.49222">
        <ele>670.2</ele>
        <time>2017-09-14T08:26:12Z</time>
      </trkpt>
      <trkpt lat="43.40603" lon="5.49222">
        <ele>668.6</ele>
        <time>2017-09-14T08:26:19Z</time>
      </trkpt>
      <trkpt lat="43.40594" lon="5.49225">
        <ele>666.6</ele>
        <time>2017-09-14T08:26:29Z</time>
      </trkpt>
      <trkpt lat="43.40584" lon="5.49224">
        <ele>664.6</ele>
        <time>2017-09-14T08:26:39Z</time>
      </trkpt>
      <trkpt lat="43.40575" lon="5.49226">
        <ele>662.7</ele>
        <time>2017-09-14T08:26:49Z</time>
      </trkpt>
      <trkpt lat="43.40568" lon="5.49219">
        <ele>660.8</ele>
        <time>2017-09-14T08:26:58Z</time>
      </trkpt>
      <trkpt lat="43.40562" lon="5.49208">
        <ele>658.5</ele>
        <time>2017-09-14T08:27:09Z</time>
      </trkpt>
      <trkpt lat="43.40554" lon="5.49201">
        <ele>656.4</ele>
        <time>2017-09-14T08:27:19Z</time>
      </trkpt>
      <trkpt lat="43.40545" lon="5.49197">
        <ele>654.2</ele>
        <time>2017-09-14T08:27:30Z</time>
      </trkpt>
      <trkpt lat="43.40536" lon="5.49195">
        <ele>652.5</ele>
        <time>2017-09-14T08:27:39Z</time>
      </trkpt>
      <trkpt lat="43.40527" lon="5.49193">
        <ele>651.6</ele>
        <time>2017-09-14T08:27:47Z</time>
      </trkpt>
      <trkpt lat="43.40518" lon="5.49191">
        <ele>650.1</ele>
        <time>2017-09-14T08:27:55Z</time>
      </trkpt>
      <trkpt lat="43.40509" lon="5.49191">
        <ele>648.4</ele>
        <time>2017-09-14T08:28:04Z</time>
      </trkpt>
      <trkpt lat="43.40499" lon="5.49191">
        <ele>646.6</ele>
        <time>2017-09-14T08:28:15Z</time>
      </trkpt>
      <trkpt lat="43.4049" lon="5.49188">
        <ele>644.8</ele>
        <time>2017-09-14T08:28:25Z</time>
      </trkpt>
      <trkpt lat="43.40482" lon="5.49184">
        <ele>643.5</ele>
        <time>2017-09-14T08:28:33Z</time>
      </trkpt>
      <trkpt lat="43.40474" lon="5.49177">
        <ele>641.5</ele>
        <time>2017-09-14T08:28:43Z</time>
      </trkpt>
      <trkpt lat="43.40466" lon="5.49171">
        <ele>640.2</ele>
        <time>2017-09-14T08:28:52Z</time>
      </trkpt>
      <trkpt lat="43.40462" lon="5.4916">
        <ele>639.1</ele>
        <time>2017-09-14T08:29:01Z</time>
      </trkpt>
      <trkpt lat="43.4046" lon="5.49147">
        <ele>637.6</ele>
        <time>2017-09-14T08:29:10Z</time>
      </trkpt>
      <trkpt lat="43.40458" lon="5.49133">
        <ele>636.4</ele>
        <time>2017-09-14T08:29:19Z</time>
      </trkpt>
      <trkpt lat="43.40457" lon="5.4912">
        <ele>635.1</ele>
        <time>2017-09-14T08:29:29Z</time>
      </trkpt>
      <trkpt lat="43.40456" lon="5.49107">
        <ele>633.2</ele>
        <time>2017-09-14T08:29:39Z</time>
      </trkpt>
      <trkpt lat="43.40456" lon="5.49093">
        <ele>631.7</ele>
        <time>2017-09-14T08:29:49Z</time>
      </trkpt>
      <trkpt lat="43.40452" lon="5.4908">
        <ele>630.2</ele>
        <time>2017-09-14T08:29:58Z</time>
      </trkpt>
      <trkpt lat="43.40446" lon="5.49071">
        <ele>629.2</ele>
        <time>2017-09-14T08:30:07Z</time>
      </trkpt>
      <trkpt lat="43.40438" lon="5.49064">
        <ele>628.2</ele>
        <time>2017-09-14T08:30:14Z</time>
      </trkpt>
      <trkpt lat="43.40431" lon="5.49055">
        <ele>627.4</ele>
        <time>2017-09-14T08:30:22Z</time>
      </trkpt>
      <trkpt lat="43.40423" lon="5.49047">
        <ele>627.1</ele>
        <time>2017-09-14T08:30:30Z</time>
      </trkpt>
      <trkpt lat="43.40415" lon="5.49041">
        <ele>626.6</ele>
        <time>2017-09-14T08:30:39Z</time>
      </trkpt>
      <trkpt lat="43.40406" lon="5.49037">
        <ele>625.2</ele>
        <time>2017-09-14T08:30:49Z</time>
      </trkpt>
      <trkpt lat="43.40397" lon="5.49034">
        <ele>622.9</ele>
        <time>2017-09-14T08:31:00Z</time>
      </trkpt>
      <trkpt lat="43.4039" lon="5.49041">
        <ele>621.7</ele>
        <time>2017-09-14T08:31:12Z</time>
      </trkpt>
      <trkpt lat="43.40385" lon="5.49053">
        <ele>620.3</ele>
        <time>2017-09-14T08:31:22Z</time>
      </trkpt>
      <trkpt lat="43.40375" lon="5.49058">
        <ele>619</ele>
        <time>2017-09-14T08:31:32Z</time>
      </trkpt>
      <trkpt lat="43.40376" lon="5.49044">
        <ele>616.7</ele>
        <time>2017-09-14T08:31:44Z</time>
      </trkpt>
      <trkpt lat="43.40377" lon="5.49031">
        <ele>614.4</ele>
        <time>2017-09-14T08:31:54Z</time>
      </trkpt>
      <trkpt lat="43.40374" lon="5.49019">
        <ele>612</ele>
        <time>2017-09-14T08:32:04Z</time>
      </trkpt>
      <trkpt lat="43.40375" lon="5.49006">
        <ele>610.6</ele>
        <time>2017-09-14T08:32:14Z</time>
      </trkpt>
      <trkpt lat="43.40377" lon="5.48992">
        <ele>608.9</ele>
        <time>2017-09-14T08:32:24Z</time>
      </trkpt>
      <trkpt lat="43.40374" lon="5.48979">
        <ele>607.8</ele>
        <time>2017-09-14T08:32:30Z</time>
      </trkpt>
      <trkpt lat="43.4037" lon="5.48967">
        <ele>607.1</ele>
        <time>2017-09-14T08:32:37Z</time>
      </trkpt>
      <trkpt lat="43.40365" lon="5.48957">
        <ele>606.5</ele>
        <time>2017-09-14T08:32:45Z</time>
      </trkpt>
      <trkpt lat="43.40357" lon="5.48949">
        <ele>606.3</ele>
        <time>2017-09-14T08:32:53Z</time>
      </trkpt>
      <trkpt lat="43.40351" lon="5.48938">
        <ele>605.1</ele>
        <time>2017-09-14T08:33:02Z</time>
      </trkpt>
      <trkpt lat="43.40344" lon="5.4893">
        <ele>604.6</ele>
        <time>2017-09-14T08:33:10Z</time>
      </trkpt>
      <trkpt lat="43.40335" lon="5.48923">
        <ele>604.3</ele>
        <time>2017-09-14T08:33:18Z</time>
      </trkpt>
      <trkpt lat="43.40326" lon="5.48917">
        <ele>603.8</ele>
        <time>2017-09-14T08:33:26Z</time>
      </trkpt>
      <trkpt lat="43.40317" lon="5.48913">
        <ele>603.2</ele>
        <time>2017-09-14T08:33:34Z</time>
      </trkpt>
      <trkpt lat="43.40308" lon="5.48911">
        <ele>602.4</ele>
        <time>2017-09-14T08:33:42Z</time>
      </trkpt>
      <trkpt lat="43.40298" lon="5.48909">
        <ele>600.9</ele>
        <time>2017-09-14T08:33:51Z</time>
      </trkpt>
      <trkpt lat="43.40289" lon="5.48904">
        <ele>599.3</ele>
        <time>2017-09-14T08:34:00Z</time>
      </trkpt>
      <trkpt lat="43.40286" lon="5.48892">
        <ele>598.1</ele>
        <time>2017-09-14T08:34:08Z</time>
      </trkpt>
      <trkpt lat="43.40277" lon="5.48891">
        <ele>597.1</ele>
        <time>2017-09-14T08:34:16Z</time>
      </trkpt>
      <trkpt lat="43.40286" lon="5.48894">
        <ele>597.2</ele>
        <time>2017-09-14T08:34:34Z</time>
      </trkpt>
      <trkpt lat="43.40295" lon="5.48894">
        <ele>597.9</ele>
        <time>2017-09-14T08:34:43Z</time>
      </trkpt>
      <trkpt lat="43.40304" lon="5.4889">
        <ele>598</ele>
        <time>2017-09-14T08:34:51Z</time>
      </trkpt>
      <trkpt lat="43.40314" lon="5.48884">
        <ele>598.5</ele>
        <time>2017-09-14T08:35:01Z</time>
      </trkpt>
      <trkpt lat="43.40322" lon="5.48878">
        <ele>599</ele>
        <time>2017-09-14T08:35:09Z</time>
      </trkpt>
      <trkpt lat="43.40324" lon="5.48865">
        <ele>597.2</ele>
        <time>2017-09-14T08:35:22Z</time>
      </trkpt>
      <trkpt lat="43.40319" lon="5.48854">
        <ele>593.5</ele>
        <time>2017-09-14T08:35:43Z</time>
      </trkpt>
      <trkpt lat="43.40318" lon="5.48841">
        <ele>590.4</ele>
        <time>2017-09-14T08:35:56Z</time>
      </trkpt>
      <trkpt lat="43.40321" lon="5.48829">
        <ele>588.3</ele>
        <time>2017-09-14T08:36:06Z</time>
      </trkpt>
      <trkpt lat="43.40317" lon="5.48817">
        <ele>587.2</ele>
        <time>2017-09-14T08:36:15Z</time>
      </trkpt>
      <trkpt lat="43.40315" lon="5.48804">
        <ele>583.3</ele>
        <time>2017-09-14T08:36:32Z</time>
      </trkpt>
      <trkpt lat="43.40313" lon="5.48791">
        <ele>581.1</ele>
        <time>2017-09-14T08:36:43Z</time>
      </trkpt>
      <trkpt lat="43.4031" lon="5.48778">
        <ele>580</ele>
        <time>2017-09-14T08:36:53Z</time>
      </trkpt>
      <trkpt lat="43.40308" lon="5.48766">
        <ele>578.1</ele>
        <time>2017-09-14T08:37:03Z</time>
      </trkpt>
      <trkpt lat="43.40304" lon="5.48754">
        <ele>576.3</ele>
        <time>2017-09-14T08:37:14Z</time>
      </trkpt>
      <trkpt lat="43.40302" lon="5.48741">
        <ele>573</ele>
        <time>2017-09-14T08:37:28Z</time>
      </trkpt>
      <trkpt lat="43.4031" lon="5.48735">
        <ele>567.8</ele>
        <time>2017-09-14T08:38:09Z</time>
      </trkpt>
      <trkpt lat="43.40309" lon="5.48722">
        <ele>566.1</ele>
        <time>2017-09-14T08:38:22Z</time>
      </trkpt>
      <trkpt lat="43.40311" lon="5.4871">
        <ele>564.1</ele>
        <time>2017-09-14T08:38:31Z</time>
      </trkpt>
      <trkpt lat="43.40306" lon="5.48697">
        <ele>562.1</ele>
        <time>2017-09-14T08:38:41Z</time>
      </trkpt>
      <trkpt lat="43.40309" lon="5.48685">
        <ele>560.6</ele>
        <time>2017-09-14T08:38:48Z</time>
      </trkpt>
      <trkpt lat="43.40307" lon="5.48672">
        <ele>559.4</ele>
        <time>2017-09-14T08:38:54Z</time>
      </trkpt>
      <trkpt lat="43.40308" lon="5.4866">
        <ele>558</ele>
        <time>2017-09-14T08:39:02Z</time>
      </trkpt>
      <trkpt lat="43.40314" lon="5.4865">
        <ele>554.8</ele>
        <time>2017-09-14T08:39:32Z</time>
      </trkpt>
      <trkpt lat="43.40316" lon="5.48636">
        <ele>551.7</ele>
        <time>2017-09-14T08:39:58Z</time>
      </trkpt>
      <trkpt lat="43.40319" lon="5.48625">
        <ele>549</ele>
        <time>2017-09-14T08:40:12Z</time>
      </trkpt>
      <trkpt lat="43.40321" lon="5.48612">
        <ele>547</ele>
        <time>2017-09-14T08:40:23Z</time>
      </trkpt>
      <trkpt lat="43.40323" lon="5.48599">
        <ele>544.5</ele>
        <time>2017-09-14T08:40:37Z</time>
      </trkpt>
      <trkpt lat="43.40324" lon="5.48587">
        <ele>542.5</ele>
        <time>2017-09-14T08:40:48Z</time>
      </trkpt>
      <trkpt lat="43.40324" lon="5.48573">
        <ele>539.8</ele>
        <time>2017-09-14T08:41:00Z</time>
      </trkpt>
      <trkpt lat="43.40319" lon="5.48562">
        <ele>538.4</ele>
        <time>2017-09-14T08:41:14Z</time>
      </trkpt>
      <trkpt lat="43.40314" lon="5.48551">
        <ele>537.3</ele>
        <time>2017-09-14T08:41:31Z</time>
      </trkpt>
      <trkpt lat="43.40308" lon="5.48541">
        <ele>535.2</ele>
        <time>2017-09-14T08:41:44Z</time>
      </trkpt>
      <trkpt lat="43.4031" lon="5.48527">
        <ele>534.4</ele>
        <time>2017-09-14T08:41:56Z</time>
      </trkpt>
      <trkpt lat="43.40311" lon="5.48515">
        <ele>534.8</ele>
        <time>2017-09-14T08:42:10Z</time>
      </trkpt>
      <trkpt lat="43.40321" lon="5.48519">
        <ele>537.9</ele>
        <time>2017-09-14T08:43:14Z</time>
      </trkpt>
      <trkpt lat="43.4033" lon="5.48518">
        <ele>540.3</ele>
        <time>2017-09-14T08:43:26Z</time>
      </trkpt>
      <trkpt lat="43.40339" lon="5.48522">
        <ele>541</ele>
        <time>2017-09-14T08:43:34Z</time>
      </trkpt>
      <trkpt lat="43.40347" lon="5.4853">
        <ele>540.6</ele>
        <time>2017-09-14T08:43:43Z</time>
      </trkpt>
      <trkpt lat="43.40355" lon="5.48537">
        <ele>539</ele>
        <time>2017-09-14T08:43:54Z</time>
      </trkpt>
      <trkpt lat="43.40364" lon="5.48532">
        <ele>535.8</ele>
        <time>2017-09-14T08:44:10Z</time>
      </trkpt>
      <trkpt lat="43.4036" lon="5.48518">
        <ele>534.2</ele>
        <time>2017-09-14T08:44:21Z</time>
      </trkpt>
      <trkpt lat="43.4036" lon="5.48505">
        <ele>531.7</ele>
        <time>2017-09-14T08:44:31Z</time>
      </trkpt>
      <trkpt lat="43.40357" lon="5.48493">
        <ele>530.3</ele>
        <time>2017-09-14T08:44:39Z</time>
      </trkpt>
      <trkpt lat="43.40353" lon="5.48481">
        <ele>528.6</ele>
        <time>2017-09-14T08:44:50Z</time>
      </trkpt>
      <trkpt lat="43.40351" lon="5.48468">
        <ele>527.8</ele>
        <time>2017-09-14T08:44:58Z</time>
      </trkpt>
      <trkpt lat="43.4035" lon="5.48456">
        <ele>526.6</ele>
        <time>2017-09-14T08:45:09Z</time>
      </trkpt>
      <trkpt lat="43.40348" lon="5.48443">
        <ele>527.5</ele>
        <time>2017-09-14T08:45:48Z</time>
      </trkpt>
      <trkpt lat="43.40345" lon="5.48431">
        <ele>529.6</ele>
        <time>2017-09-14T08:45:59Z</time>
      </trkpt>
      <trkpt lat="43.40346" lon="5.48418">
        <ele>531</ele>
        <time>2017-09-14T08:46:10Z</time>
      </trkpt>
      <trkpt lat="43.40352" lon="5.48407">
        <ele>532.7</ele>
        <time>2017-09-14T08:46:28Z</time>
      </trkpt>
      <trkpt lat="43.40354" lon="5.48395">
        <ele>533.4</ele>
        <time>2017-09-14T08:46:41Z</time>
      </trkpt>
      <trkpt lat="43.40354" lon="5.48383">
        <ele>534.8</ele>
        <time>2017-09-14T08:46:50Z</time>
      </trkpt>
      <trkpt lat="43.40357" lon="5.48371">
        <ele>535.8</ele>
        <time>2017-09-14T08:46:59Z</time>
      </trkpt>
      <trkpt lat="43.40363" lon="5.4836">
        <ele>537.7</ele>
        <time>2017-09-14T08:47:11Z</time>
      </trkpt>
      <trkpt lat="43.40371" lon="5.48353">
        <ele>540.4</ele>
        <time>2017-09-14T08:47:42Z</time>
      </trkpt>
      <trkpt lat="43.4038" lon="5.48349">
        <ele>540.6</ele>
        <time>2017-09-14T08:48:04Z</time>
      </trkpt>
      <trkpt lat="43.40389" lon="5.48355">
        <ele>540.8</ele>
        <time>2017-09-14T08:48:14Z</time>
      </trkpt>
      <trkpt lat="43.4038" lon="5.4835">
        <ele>540.8</ele>
        <time>2017-09-14T08:48:57Z</time>
      </trkpt>
      <trkpt lat="43.40372" lon="5.48355">
        <ele>540.2</ele>
        <time>2017-09-14T08:49:06Z</time>
      </trkpt>
      <trkpt lat="43.40368" lon="5.48344">
        <ele>538.3</ele>
        <time>2017-09-14T08:49:25Z</time>
      </trkpt>
      <trkpt lat="43.40364" lon="5.48332">
        <ele>535</ele>
        <time>2017-09-14T08:49:45Z</time>
      </trkpt>
      <trkpt lat="43.40359" lon="5.48322">
        <ele>531.4</ele>
        <time>2017-09-14T08:49:59Z</time>
      </trkpt>
      <trkpt lat="43.40349" lon="5.48321">
        <ele>529.9</ele>
        <time>2017-09-14T08:50:08Z</time>
      </trkpt>
      <trkpt lat="43.4034" lon="5.48319">
        <ele>525.2</ele>
        <time>2017-09-14T08:50:33Z</time>
      </trkpt>
      <trkpt lat="43.40345" lon="5.48309">
        <ele>524.3</ele>
        <time>2017-09-14T08:50:43Z</time>
      </trkpt>
      <trkpt lat="43.40338" lon="5.48317">
        <ele>523.7</ele>
        <time>2017-09-14T08:51:15Z</time>
      </trkpt>
      <trkpt lat="43.40337" lon="5.4833">
        <ele>517</ele>
        <time>2017-09-14T08:51:56Z</time>
      </trkpt>
      <trkpt lat="43.40334" lon="5.48351">
        <ele>515.8</ele>
        <time>2017-09-14T08:53:13Z</time>
      </trkpt>
      <trkpt lat="43.40329" lon="5.48363">
        <ele>516</ele>
        <time>2017-09-14T08:53:31Z</time>
      </trkpt>
      <trkpt lat="43.4032" lon="5.48371">
        <ele>515</ele>
        <time>2017-09-14T08:53:48Z</time>
      </trkpt>
      <trkpt lat="43.40322" lon="5.48358">
        <ele>515.7</ele>
        <time>2017-09-14T08:54:06Z</time>
      </trkpt>
      <trkpt lat="43.40329" lon="5.48346">
        <ele>515.4</ele>
        <time>2017-09-14T08:54:18Z</time>
      </trkpt>
      <trkpt lat="43.40337" lon="5.48339">
        <ele>515.6</ele>
        <time>2017-09-14T08:54:32Z</time>
      </trkpt>
      <trkpt lat="43.40329" lon="5.48331">
        <ele>513.9</ele>
        <time>2017-09-14T08:55:00Z</time>
      </trkpt>
      <trkpt lat="43.40319" lon="5.48327">
        <ele>512.7</ele>
        <time>2017-09-14T08:55:09Z</time>
      </trkpt>
      <trkpt lat="43.40311" lon="5.48318">
        <ele>511.5</ele>
        <time>2017-09-14T08:55:18Z</time>
      </trkpt>
      <trkpt lat="43.4031" lon="5.48331">
        <ele>512.7</ele>
        <time>2017-09-14T08:55:43Z</time>
      </trkpt>
      <trkpt lat="43.40305" lon="5.48341">
        <ele>514.5</ele>
        <time>2017-09-14T08:55:53Z</time>
      </trkpt>
      <trkpt lat="43.40314" lon="5.48342">
        <ele>515.1</ele>
        <time>2017-09-14T08:56:18Z</time>
      </trkpt>
      <trkpt lat="43.40323" lon="5.48338">
        <ele>515.7</ele>
        <time>2017-09-14T08:56:22Z</time>
      </trkpt>
      <trkpt lat="43.4033" lon="5.48331">
        <ele>517.3</ele>
        <time>2017-09-14T08:56:30Z</time>
      </trkpt>
      <trkpt lat="43.40336" lon="5.48321">
        <ele>521</ele>
        <time>2017-09-14T08:56:47Z</time>
      </trkpt>
      <trkpt lat="43.40345" lon="5.48323">
        <ele>524.1</ele>
        <time>2017-09-14T08:57:25Z</time>
      </trkpt>
      <trkpt lat="43.40354" lon="5.48322">
        <ele>528.3</ele>
        <time>2017-09-14T08:57:45Z</time>
      </trkpt>
      <trkpt lat="43.40362" lon="5.4833">
        <ele>531.6</ele>
        <time>2017-09-14T08:58:01Z</time>
      </trkpt>
      <trkpt lat="43.40366" lon="5.48341">
        <ele>535.3</ele>
        <time>2017-09-14T08:58:23Z</time>
      </trkpt>
      <trkpt lat="43.40368" lon="5.48353">
        <ele>539.6</ele>
        <time>2017-09-14T08:58:57Z</time>
      </trkpt>
      <trkpt lat="43.40362" lon="5.48364">
        <ele>538</ele>
        <time>2017-09-14T08:59:39Z</time>
      </trkpt>
      <trkpt lat="43.40357" lon="5.48373">
        <ele>536.7</ele>
        <time>2017-09-14T08:59:50Z</time>
      </trkpt>
      <trkpt lat="43.40355" lon="5.48386">
        <ele>535.2</ele>
        <time>2017-09-14T09:00:08Z</time>
      </trkpt>
      <trkpt lat="43.40355" lon="5.48399">
        <ele>534</ele>
        <time>2017-09-14T09:00:18Z</time>
      </trkpt>
      <trkpt lat="43.40352" lon="5.48412">
        <ele>532.4</ele>
        <time>2017-09-14T09:00:28Z</time>
      </trkpt>
      <trkpt lat="43.40346" lon="5.48423">
        <ele>531.5</ele>
        <time>2017-09-14T09:00:38Z</time>
      </trkpt>
      <trkpt lat="43.40344" lon="5.48436">
        <ele>529.7</ele>
        <time>2017-09-14T09:00:47Z</time>
      </trkpt>
      <trkpt lat="43.40346" lon="5.48448">
        <ele>527.5</ele>
        <time>2017-09-14T09:01:00Z</time>
      </trkpt>
      <trkpt lat="43.40349" lon="5.4846">
        <ele>525.3</ele>
        <time>2017-09-14T09:01:26Z</time>
      </trkpt>
      <trkpt lat="43.40354" lon="5.48472">
        <ele>525.7</ele>
        <time>2017-09-14T09:01:38Z</time>
      </trkpt>
      <trkpt lat="43.40356" lon="5.48485">
        <ele>526.7</ele>
        <time>2017-09-14T09:01:48Z</time>
      </trkpt>
      <trkpt lat="43.40358" lon="5.485">
        <ele>528.1</ele>
        <time>2017-09-14T09:02:00Z</time>
      </trkpt>
      <trkpt lat="43.40359" lon="5.48512">
        <ele>529.2</ele>
        <time>2017-09-14T09:02:09Z</time>
      </trkpt>
      <trkpt lat="43.40361" lon="5.48525">
        <ele>531.5</ele>
        <time>2017-09-14T09:02:20Z</time>
      </trkpt>
      <trkpt lat="43.40363" lon="5.48537">
        <ele>533.1</ele>
        <time>2017-09-14T09:02:31Z</time>
      </trkpt>
      <trkpt lat="43.40356" lon="5.48529">
        <ele>537.5</ele>
        <time>2017-09-14T09:02:54Z</time>
      </trkpt>
      <trkpt lat="43.40347" lon="5.48521">
        <ele>538.2</ele>
        <time>2017-09-14T09:03:02Z</time>
      </trkpt>
      <trkpt lat="43.40338" lon="5.48516">
        <ele>538.7</ele>
        <time>2017-09-14T09:03:10Z</time>
      </trkpt>
      <trkpt lat="43.40329" lon="5.48516">
        <ele>539.3</ele>
        <time>2017-09-14T09:03:18Z</time>
      </trkpt>
      <trkpt lat="43.4032" lon="5.48519">
        <ele>538.1</ele>
        <time>2017-09-14T09:03:29Z</time>
      </trkpt>
      <trkpt lat="43.40312" lon="5.48513">
        <ele>534.5</ele>
        <time>2017-09-14T09:03:44Z</time>
      </trkpt>
      <trkpt lat="43.40307" lon="5.48502">
        <ele>530.6</ele>
        <time>2017-09-14T09:03:59Z</time>
      </trkpt>
      <trkpt lat="43.40302" lon="5.4849">
        <ele>522.8</ele>
        <time>2017-09-14T09:04:29Z</time>
      </trkpt>
      <trkpt lat="43.40294" lon="5.48483">
        <ele>517.2</ele>
        <time>2017-09-14T09:04:50Z</time>
      </trkpt>
      <trkpt lat="43.40285" lon="5.48473">
        <ele>514.8</ele>
        <time>2017-09-14T09:05:00Z</time>
      </trkpt>
      <trkpt lat="43.40283" lon="5.4846">
        <ele>510.6</ele>
        <time>2017-09-14T09:05:19Z</time>
      </trkpt>
      <trkpt lat="43.40278" lon="5.48448">
        <ele>507.5</ele>
        <time>2017-09-14T09:05:34Z</time>
      </trkpt>
      <trkpt lat="43.40272" lon="5.48437">
        <ele>503.8</ele>
        <time>2017-09-14T09:05:50Z</time>
      </trkpt>
      <trkpt lat="43.4028" lon="5.48427">
        <ele>501.7</ele>
        <time>2017-09-14T09:06:07Z</time>
      </trkpt>
      <trkpt lat="43.40289" lon="5.48425">
        <ele>501.2</ele>
        <time>2017-09-14T09:06:17Z</time>
      </trkpt>
      <trkpt lat="43.40287" lon="5.48413">
        <ele>500.9</ele>
        <time>2017-09-14T09:06:30Z</time>
      </trkpt>
      <trkpt lat="43.40284" lon="5.48401">
        <ele>500.4</ele>
        <time>2017-09-14T09:06:38Z</time>
      </trkpt>
      <trkpt lat="43.40275" lon="5.48395">
        <ele>499.2</ele>
        <time>2017-09-14T09:06:48Z</time>
      </trkpt>
      <trkpt lat="43.40268" lon="5.48387">
        <ele>499.4</ele>
        <time>2017-09-14T09:06:56Z</time>
      </trkpt>
      <trkpt lat="43.4027" lon="5.48374">
        <ele>499.3</ele>
        <time>2017-09-14T09:07:05Z</time>
      </trkpt>
      <trkpt lat="43.40278" lon="5.48367">
        <ele>498.9</ele>
        <time>2017-09-14T09:07:10Z</time>
      </trkpt>
      <trkpt lat="43.40287" lon="5.48361">
        <ele>498.8</ele>
        <time>2017-09-14T09:07:14Z</time>
      </trkpt>
      <trkpt lat="43.40277" lon="5.48354">
        <ele>498.7</ele>
        <time>2017-09-14T09:07:21Z</time>
      </trkpt>
      <trkpt lat="43.40244" lon="5.48352">
        <ele>498</ele>
        <time>2017-09-14T09:07:26Z</time>
      </trkpt>
      <trkpt lat="43.40234" lon="5.48351">
        <ele>498</ele>
        <time>2017-09-14T09:07:31Z</time>
      </trkpt>
      <trkpt lat="43.40225" lon="5.48349">
        <ele>496.3</ele>
        <time>2017-09-14T09:07:41Z</time>
      </trkpt>
      <trkpt lat="43.40217" lon="5.48342">
        <ele>492.9</ele>
        <time>2017-09-14T09:07:55Z</time>
      </trkpt>
      <trkpt lat="43.40207" lon="5.48346">
        <ele>489.4</ele>
        <time>2017-09-14T09:08:10Z</time>
      </trkpt>
      <trkpt lat="43.40206" lon="5.48359">
        <ele>488.2</ele>
        <time>2017-09-14T09:08:22Z</time>
      </trkpt>
      <trkpt lat="43.40199" lon="5.48368">
        <ele>486</ele>
        <time>2017-09-14T09:08:44Z</time>
      </trkpt>
      <trkpt lat="43.40194" lon="5.48378">
        <ele>484.5</ele>
        <time>2017-09-14T09:08:54Z</time>
      </trkpt>
      <trkpt lat="43.40184" lon="5.48379">
        <ele>480.7</ele>
        <time>2017-09-14T09:09:10Z</time>
      </trkpt>
      <trkpt lat="43.40175" lon="5.4838">
        <ele>478.6</ele>
        <time>2017-09-14T09:09:20Z</time>
      </trkpt>
      <trkpt lat="43.40166" lon="5.4838">
        <ele>474.5</ele>
        <time>2017-09-14T09:09:40Z</time>
      </trkpt>
      <trkpt lat="43.40159" lon="5.48372">
        <ele>470.1</ele>
        <time>2017-09-14T09:09:57Z</time>
      </trkpt>
      <trkpt lat="43.40151" lon="5.48364">
        <ele>465.5</ele>
        <time>2017-09-14T09:10:20Z</time>
      </trkpt>
      <trkpt lat="43.40142" lon="5.48361">
        <ele>461.7</ele>
        <time>2017-09-14T09:10:34Z</time>
      </trkpt>
      <trkpt lat="43.40135" lon="5.48353">
        <ele>457.2</ele>
        <time>2017-09-14T09:10:51Z</time>
      </trkpt>
      <trkpt lat="43.40132" lon="5.4834">
        <ele>452.9</ele>
        <time>2017-09-14T09:11:08Z</time>
      </trkpt>
      <trkpt lat="43.40129" lon="5.48328">
        <ele>448.4</ele>
        <time>2017-09-14T09:11:25Z</time>
      </trkpt>
      <trkpt lat="43.40121" lon="5.48318">
        <ele>445.5</ele>
        <time>2017-09-14T09:11:35Z</time>
      </trkpt>
      <trkpt lat="43.40113" lon="5.4831">
        <ele>441.8</ele>
        <time>2017-09-14T09:11:54Z</time>
      </trkpt>
      <trkpt lat="43.40106" lon="5.48299">
        <ele>438.4</ele>
        <time>2017-09-14T09:12:09Z</time>
      </trkpt>
      <trkpt lat="43.40101" lon="5.48289">
        <ele>434.2</ele>
        <time>2017-09-14T09:12:26Z</time>
      </trkpt>
      <trkpt lat="43.40096" lon="5.48277">
        <ele>430.6</ele>
        <time>2017-09-14T09:12:40Z</time>
      </trkpt>
      <trkpt lat="43.401" lon="5.48265">
        <ele>430.2</ele>
        <time>2017-09-14T09:16:45Z</time>
      </trkpt>
      <trkpt lat="43.40109" lon="5.48265">
        <ele>430.2</ele>
        <time>2017-09-14T09:17:10Z</time>
      </trkpt>
      <trkpt lat="43.40117" lon="5.48258">
        <ele>429.7</ele>
        <time>2017-09-14T09:18:18Z</time>
      </trkpt>
      <trkpt lat="43.40128" lon="5.48257">
        <ele>429.6</ele>
        <time>2017-09-14T09:18:24Z</time>
      </trkpt>
      <trkpt lat="43.40119" lon="5.48258">
        <ele>429.7</ele>
        <time>2017-09-14T09:18:41Z</time>
      </trkpt>
      <trkpt lat="43.40109" lon="5.48259">
        <ele>430</ele>
        <time>2017-09-14T09:18:51Z</time>
      </trkpt>
      <trkpt lat="43.40098" lon="5.48259">
        <ele>430.1</ele>
        <time>2017-09-14T09:19:03Z</time>
      </trkpt>
      <trkpt lat="43.40089" lon="5.48261">
        <ele>429.9</ele>
        <time>2017-09-14T09:19:29Z</time>
      </trkpt>
      <trkpt lat="43.4008" lon="5.48264">
        <ele>428.8</ele>
        <time>2017-09-14T09:19:39Z</time>
      </trkpt>
      <trkpt lat="43.40083" lon="5.48252">
        <ele>428.7</ele>
        <time>2017-09-14T09:19:57Z</time>
      </trkpt>
      <trkpt lat="43.40074" lon="5.48247">
        <ele>429.4</ele>
        <time>2017-09-14T09:20:23Z</time>
      </trkpt>
      <trkpt lat="43.40066" lon="5.48241">
        <ele>428.1</ele>
        <time>2017-09-14T09:20:31Z</time>
      </trkpt>
      <trkpt lat="43.40057" lon="5.48235">
        <ele>427.2</ele>
        <time>2017-09-14T09:20:41Z</time>
      </trkpt>
      <trkpt lat="43.40048" lon="5.4823">
        <ele>426.6</ele>
        <time>2017-09-14T09:20:49Z</time>
      </trkpt>
      <trkpt lat="43.40039" lon="5.4823">
        <ele>426.4</ele>
        <time>2017-09-14T09:20:57Z</time>
      </trkpt>
      <trkpt lat="43.40029" lon="5.48226">
        <ele>425.8</ele>
        <time>2017-09-14T09:21:06Z</time>
      </trkpt>
      <trkpt lat="43.4002" lon="5.48229">
        <ele>425</ele>
        <time>2017-09-14T09:21:13Z</time>
      </trkpt>
      <trkpt lat="43.40012" lon="5.48234">
        <ele>424.1</ele>
        <time>2017-09-14T09:21:20Z</time>
      </trkpt>
      <trkpt lat="43.40003" lon="5.48241">
        <ele>423.5</ele>
        <time>2017-09-14T09:21:27Z</time>
      </trkpt>
      <trkpt lat="43.39995" lon="5.48247">
        <ele>422.9</ele>
        <time>2017-09-14T09:21:35Z</time>
      </trkpt>
      <trkpt lat="43.39989" lon="5.48257">
        <ele>421.8</ele>
        <time>2017-09-14T09:21:44Z</time>
      </trkpt>
      <trkpt lat="43.39983" lon="5.48266">
        <ele>421.1</ele>
        <time>2017-09-14T09:22:06Z</time>
      </trkpt>
      <trkpt lat="43.39979" lon="5.48277">
        <ele>420.5</ele>
        <time>2017-09-14T09:22:12Z</time>
      </trkpt>
      <trkpt lat="43.39974" lon="5.48289">
        <ele>420</ele>
        <time>2017-09-14T09:22:20Z</time>
      </trkpt>
      <trkpt lat="43.39969" lon="5.48299">
        <ele>419.1</ele>
        <time>2017-09-14T09:22:27Z</time>
      </trkpt>
      <trkpt lat="43.39965" lon="5.48313">
        <ele>418.6</ele>
        <time>2017-09-14T09:22:35Z</time>
      </trkpt>
      <trkpt lat="43.39962" lon="5.48325">
        <ele>417.5</ele>
        <time>2017-09-14T09:22:43Z</time>
      </trkpt>
      <trkpt lat="43.39955" lon="5.48334">
        <ele>415.9</ele>
        <time>2017-09-14T09:22:51Z</time>
      </trkpt>
      <trkpt lat="43.39947" lon="5.48342">
        <ele>415.1</ele>
        <time>2017-09-14T09:23:00Z</time>
      </trkpt>
      <trkpt lat="43.39942" lon="5.48352">
        <ele>413.7</ele>
        <time>2017-09-14T09:23:08Z</time>
      </trkpt>
      <trkpt lat="43.39937" lon="5.48363">
        <ele>412.7</ele>
        <time>2017-09-14T09:23:15Z</time>
      </trkpt>
      <trkpt lat="43.39931" lon="5.48373">
        <ele>412.2</ele>
        <time>2017-09-14T09:23:23Z</time>
      </trkpt>
      <trkpt lat="43.39926" lon="5.48384">
        <ele>411.5</ele>
        <time>2017-09-14T09:23:35Z</time>
      </trkpt>
      <trkpt lat="43.39919" lon="5.48394">
        <ele>411.4</ele>
        <time>2017-09-14T09:23:43Z</time>
      </trkpt>
      <trkpt lat="43.39911" lon="5.48399">
        <ele>411.1</ele>
        <time>2017-09-14T09:23:52Z</time>
      </trkpt>
      <trkpt lat="43.39901" lon="5.48403">
        <ele>410.7</ele>
        <time>2017-09-14T09:23:59Z</time>
      </trkpt>
      <trkpt lat="43.39891" lon="5.48408">
        <ele>410.9</ele>
        <time>2017-09-14T09:24:07Z</time>
      </trkpt>
      <trkpt lat="43.39882" lon="5.48403">
        <ele>409.6</ele>
        <time>2017-09-14T09:24:18Z</time>
      </trkpt>
      <trkpt lat="43.39875" lon="5.48393">
        <ele>408</ele>
        <time>2017-09-14T09:24:25Z</time>
      </trkpt>
      <trkpt lat="43.39866" lon="5.48388">
        <ele>406.9</ele>
        <time>2017-09-14T09:24:33Z</time>
      </trkpt>
      <trkpt lat="43.39857" lon="5.48384">
        <ele>406.4</ele>
        <time>2017-09-14T09:24:39Z</time>
      </trkpt>
      <trkpt lat="43.39849" lon="5.48378">
        <ele>405.8</ele>
        <time>2017-09-14T09:24:45Z</time>
      </trkpt>
      <trkpt lat="43.3984" lon="5.48374">
        <ele>405.7</ele>
        <time>2017-09-14T09:24:51Z</time>
      </trkpt>
      <trkpt lat="43.39831" lon="5.48368">
        <ele>405.3</ele>
        <time>2017-09-14T09:25:00Z</time>
      </trkpt>
      <trkpt lat="43.39823" lon="5.48362">
        <ele>404.7</ele>
        <time>2017-09-14T09:25:10Z</time>
      </trkpt>
      <trkpt lat="43.39813" lon="5.48356">
        <ele>404.3</ele>
        <time>2017-09-14T09:25:19Z</time>
      </trkpt>
      <trkpt lat="43.39805" lon="5.48347">
        <ele>403.6</ele>
        <time>2017-09-14T09:25:27Z</time>
      </trkpt>
      <trkpt lat="43.39795" lon="5.48343">
        <ele>402.8</ele>
        <time>2017-09-14T09:25:34Z</time>
      </trkpt>
      <trkpt lat="43.39784" lon="5.48336">
        <ele>401.8</ele>
        <time>2017-09-14T09:25:44Z</time>
      </trkpt>
      <trkpt lat="43.39775" lon="5.48332">
        <ele>401.3</ele>
        <time>2017-09-14T09:25:50Z</time>
      </trkpt>
      <trkpt lat="43.39766" lon="5.48327">
        <ele>400.9</ele>
        <time>2017-09-14T09:25:58Z</time>
      </trkpt>
      <trkpt lat="43.39756" lon="5.48323">
        <ele>400.6</ele>
        <time>2017-09-14T09:26:04Z</time>
      </trkpt>
      <trkpt lat="43.39746" lon="5.48324">
        <ele>400.4</ele>
        <time>2017-09-14T09:26:10Z</time>
      </trkpt>
      <trkpt lat="43.39736" lon="5.48329">
        <ele>399.5</ele>
        <time>2017-09-14T09:26:19Z</time>
      </trkpt>
      <trkpt lat="43.39728" lon="5.48336">
        <ele>398.9</ele>
        <time>2017-09-14T09:26:25Z</time>
      </trkpt>
      <trkpt lat="43.3972" lon="5.48344">
        <ele>398.5</ele>
        <time>2017-09-14T09:26:33Z</time>
      </trkpt>
      <trkpt lat="43.39711" lon="5.48349">
        <ele>398.2</ele>
        <time>2017-09-14T09:26:40Z</time>
      </trkpt>
      <trkpt lat="43.39702" lon="5.4835">
        <ele>397.6</ele>
        <time>2017-09-14T09:26:46Z</time>
      </trkpt>
      <trkpt lat="43.39696" lon="5.48361">
        <ele>397</ele>
        <time>2017-09-14T09:26:55Z</time>
      </trkpt>
      <trkpt lat="43.39691" lon="5.48371">
        <ele>396.6</ele>
        <time>2017-09-14T09:27:01Z</time>
      </trkpt>
      <trkpt lat="43.39681" lon="5.48376">
        <ele>396.2</ele>
        <time>2017-09-14T09:27:09Z</time>
      </trkpt>
      <trkpt lat="43.3967" lon="5.48382">
        <ele>395.4</ele>
        <time>2017-09-14T09:27:16Z</time>
      </trkpt>
      <trkpt lat="43.39661" lon="5.48383">
        <ele>395</ele>
        <time>2017-09-14T09:27:23Z</time>
      </trkpt>
      <trkpt lat="43.3965" lon="5.48383">
        <ele>394.6</ele>
        <time>2017-09-14T09:27:31Z</time>
      </trkpt>
      <trkpt lat="43.39643" lon="5.48375">
        <ele>394.2</ele>
        <time>2017-09-14T09:27:40Z</time>
      </trkpt>
      <trkpt lat="43.39635" lon="5.48368">
        <ele>393.7</ele>
        <time>2017-09-14T09:27:47Z</time>
      </trkpt>
      <trkpt lat="43.39625" lon="5.48367">
        <ele>393</ele>
        <time>2017-09-14T09:27:55Z</time>
      </trkpt>
      <trkpt lat="43.39614" lon="5.48364">
        <ele>392.9</ele>
        <time>2017-09-14T09:28:03Z</time>
      </trkpt>
      <trkpt lat="43.39604" lon="5.48365">
        <ele>392.7</ele>
        <time>2017-09-14T09:28:09Z</time>
      </trkpt>
      <trkpt lat="43.39598" lon="5.48375">
        <ele>392</ele>
        <time>2017-09-14T09:28:18Z</time>
      </trkpt>
      <trkpt lat="43.39589" lon="5.48372">
        <ele>391.2</ele>
        <time>2017-09-14T09:28:24Z</time>
      </trkpt>
      <trkpt lat="43.3958" lon="5.48377">
        <ele>390.9</ele>
        <time>2017-09-14T09:28:30Z</time>
      </trkpt>
      <trkpt lat="43.39574" lon="5.48386">
        <ele>390.1</ele>
        <time>2017-09-14T09:28:37Z</time>
      </trkpt>
      <trkpt lat="43.3957" lon="5.48399">
        <ele>389.4</ele>
        <time>2017-09-14T09:28:43Z</time>
      </trkpt>
      <trkpt lat="43.39563" lon="5.48407">
        <ele>388.7</ele>
        <time>2017-09-14T09:28:49Z</time>
      </trkpt>
      <trkpt lat="43.39554" lon="5.4841">
        <ele>388.2</ele>
        <time>2017-09-14T09:28:56Z</time>
      </trkpt>
      <trkpt lat="43.39545" lon="5.48415">
        <ele>387.7</ele>
        <time>2017-09-14T09:29:03Z</time>
      </trkpt>
      <trkpt lat="43.39535" lon="5.48414">
        <ele>386.8</ele>
        <time>2017-09-14T09:29:11Z</time>
      </trkpt>
      <trkpt lat="43.39525" lon="5.48416">
        <ele>385.9</ele>
        <time>2017-09-14T09:29:20Z</time>
      </trkpt>
      <trkpt lat="43.39516" lon="5.48419">
        <ele>385.4</ele>
        <time>2017-09-14T09:29:27Z</time>
      </trkpt>
      <trkpt lat="43.39507" lon="5.48418">
        <ele>385.2</ele>
        <time>2017-09-14T09:29:36Z</time>
      </trkpt>
      <trkpt lat="43.39497" lon="5.48421">
        <ele>384.7</ele>
        <time>2017-09-14T09:29:45Z</time>
      </trkpt>
      <trkpt lat="43.39489" lon="5.48427">
        <ele>383.9</ele>
        <time>2017-09-14T09:29:52Z</time>
      </trkpt>
      <trkpt lat="43.39481" lon="5.48434">
        <ele>383.4</ele>
        <time>2017-09-14T09:30:00Z</time>
      </trkpt>
      <trkpt lat="43.39472" lon="5.48434">
        <ele>382.7</ele>
        <time>2017-09-14T09:30:08Z</time>
      </trkpt>
      <trkpt lat="43.39463" lon="5.48437">
        <ele>381.8</ele>
        <time>2017-09-14T09:30:14Z</time>
      </trkpt>
      <trkpt lat="43.39454" lon="5.4844">
        <ele>381.1</ele>
        <time>2017-09-14T09:30:23Z</time>
      </trkpt>
      <trkpt lat="43.39445" lon="5.48442">
        <ele>380.3</ele>
        <time>2017-09-14T09:30:34Z</time>
      </trkpt>
      <trkpt lat="43.39438" lon="5.48454">
        <ele>379.4</ele>
        <time>2017-09-14T09:30:42Z</time>
      </trkpt>
      <trkpt lat="43.39435" lon="5.48466">
        <ele>379.1</ele>
        <time>2017-09-14T09:30:51Z</time>
      </trkpt>
      <trkpt lat="43.39433" lon="5.4848">
        <ele>378.6</ele>
        <time>2017-09-14T09:31:01Z</time>
      </trkpt>
      <trkpt lat="43.39425" lon="5.48487">
        <ele>378.1</ele>
        <time>2017-09-14T09:31:10Z</time>
      </trkpt>
      <trkpt lat="43.39416" lon="5.48488">
        <ele>377.7</ele>
        <time>2017-09-14T09:31:18Z</time>
      </trkpt>
      <trkpt lat="43.39405" lon="5.48489">
        <ele>377.4</ele>
        <time>2017-09-14T09:31:26Z</time>
      </trkpt>
      <trkpt lat="43.39395" lon="5.48489">
        <ele>377.3</ele>
        <time>2017-09-14T09:31:32Z</time>
      </trkpt>
      <trkpt lat="43.39385" lon="5.48491">
        <ele>376.7</ele>
        <time>2017-09-14T09:31:39Z</time>
      </trkpt>
      <trkpt lat="43.39375" lon="5.48487">
        <ele>375.9</ele>
        <time>2017-09-14T09:31:46Z</time>
      </trkpt>
      <trkpt lat="43.39364" lon="5.48487">
        <ele>375.7</ele>
        <time>2017-09-14T09:31:53Z</time>
      </trkpt>
      <trkpt lat="43.39354" lon="5.48485">
        <ele>374.6</ele>
        <time>2017-09-14T09:32:02Z</time>
      </trkpt>
      <trkpt lat="43.39344" lon="5.48484">
        <ele>374</ele>
        <time>2017-09-14T09:32:10Z</time>
      </trkpt>
      <trkpt lat="43.39335" lon="5.48482">
        <ele>373.3</ele>
        <time>2017-09-14T09:32:19Z</time>
      </trkpt>
      <trkpt lat="43.39326" lon="5.48476">
        <ele>372.6</ele>
        <time>2017-09-14T09:32:27Z</time>
      </trkpt>
      <trkpt lat="43.39316" lon="5.48475">
        <ele>372.3</ele>
        <time>2017-09-14T09:32:33Z</time>
      </trkpt>
      <trkpt lat="43.39308" lon="5.4847">
        <ele>371.8</ele>
        <time>2017-09-14T09:32:41Z</time>
      </trkpt>
      <trkpt lat="43.39298" lon="5.48469">
        <ele>370.9</ele>
        <time>2017-09-14T09:32:50Z</time>
      </trkpt>
      <trkpt lat="43.39289" lon="5.48469">
        <ele>370.3</ele>
        <time>2017-09-14T09:32:57Z</time>
      </trkpt>
      <trkpt lat="43.3928" lon="5.48467">
        <ele>369.9</ele>
        <time>2017-09-14T09:33:04Z</time>
      </trkpt>
      <trkpt lat="43.39273" lon="5.48476">
        <ele>369.4</ele>
        <time>2017-09-14T09:33:11Z</time>
      </trkpt>
      <trkpt lat="43.39267" lon="5.48486">
        <ele>368.7</ele>
        <time>2017-09-14T09:33:19Z</time>
      </trkpt>
      <trkpt lat="43.3926" lon="5.48494">
        <ele>368</ele>
        <time>2017-09-14T09:33:25Z</time>
      </trkpt>
      <trkpt lat="43.39252" lon="5.485">
        <ele>367</ele>
        <time>2017-09-14T09:33:32Z</time>
      </trkpt>
      <trkpt lat="43.39245" lon="5.48508">
        <ele>366.5</ele>
        <time>2017-09-14T09:33:39Z</time>
      </trkpt>
      <trkpt lat="43.39235" lon="5.4851">
        <ele>366.1</ele>
        <time>2017-09-14T09:33:47Z</time>
      </trkpt>
      <trkpt lat="43.39226" lon="5.48515">
        <ele>365.8</ele>
        <time>2017-09-14T09:33:55Z</time>
      </trkpt>
      <trkpt lat="43.39217" lon="5.48516">
        <ele>365.1</ele>
        <time>2017-09-14T09:34:04Z</time>
      </trkpt>
      <trkpt lat="43.39207" lon="5.48518">
        <ele>364.5</ele>
        <time>2017-09-14T09:34:12Z</time>
      </trkpt>
      <trkpt lat="43.39197" lon="5.48518">
        <ele>363.9</ele>
        <time>2017-09-14T09:34:19Z</time>
      </trkpt>
      <trkpt lat="43.39188" lon="5.48514">
        <ele>363.4</ele>
        <time>2017-09-14T09:34:28Z</time>
      </trkpt>
      <trkpt lat="43.3918" lon="5.48506">
        <ele>363.2</ele>
        <time>2017-09-14T09:34:37Z</time>
      </trkpt>
      <trkpt lat="43.39172" lon="5.48498">
        <ele>362.9</ele>
        <time>2017-09-14T09:34:44Z</time>
      </trkpt>
      <trkpt lat="43.39163" lon="5.48493">
        <ele>362.2</ele>
        <time>2017-09-14T09:34:51Z</time>
      </trkpt>
      <trkpt lat="43.39157" lon="5.48484">
        <ele>362</ele>
        <time>2017-09-14T09:34:58Z</time>
      </trkpt>
      <trkpt lat="43.39147" lon="5.48479">
        <ele>361.4</ele>
        <time>2017-09-14T09:35:05Z</time>
      </trkpt>
      <trkpt lat="43.39138" lon="5.48476">
        <ele>361.1</ele>
        <time>2017-09-14T09:35:12Z</time>
      </trkpt>
      <trkpt lat="43.39129" lon="5.48478">
        <ele>360.7</ele>
        <time>2017-09-14T09:35:19Z</time>
      </trkpt>
      <trkpt lat="43.39119" lon="5.48481">
        <ele>360.4</ele>
        <time>2017-09-14T09:35:24Z</time>
      </trkpt>
      <trkpt lat="43.3911" lon="5.48487">
        <ele>360.2</ele>
        <time>2017-09-14T09:35:31Z</time>
      </trkpt>
      <trkpt lat="43.39103" lon="5.48496">
        <ele>359.8</ele>
        <time>2017-09-14T09:35:39Z</time>
      </trkpt>
      <trkpt lat="43.39097" lon="5.48507">
        <ele>360.1</ele>
        <time>2017-09-14T09:35:48Z</time>
      </trkpt>
      <trkpt lat="43.39094" lon="5.4852">
        <ele>359.8</ele>
        <time>2017-09-14T09:35:57Z</time>
      </trkpt>
      <trkpt lat="43.39088" lon="5.48529">
        <ele>359.3</ele>
        <time>2017-09-14T09:36:07Z</time>
      </trkpt>
      <trkpt lat="43.39079" lon="5.48532">
        <ele>359.1</ele>
        <time>2017-09-14T09:36:15Z</time>
      </trkpt>
      <trkpt lat="43.39069" lon="5.48532">
        <ele>358.6</ele>
        <time>2017-09-14T09:36:22Z</time>
      </trkpt>
      <trkpt lat="43.3906" lon="5.48536">
        <ele>358.2</ele>
        <time>2017-09-14T09:36:32Z</time>
      </trkpt>
      <trkpt lat="43.3905" lon="5.48536">
        <ele>358.9</ele>
        <time>2017-09-14T09:36:41Z</time>
      </trkpt>
      <trkpt lat="43.39045" lon="5.48525">
        <ele>360</ele>
        <time>2017-09-14T09:36:52Z</time>
      </trkpt>
      <trkpt lat="43.39037" lon="5.48518">
        <ele>360.9</ele>
        <time>2017-09-14T09:36:58Z</time>
      </trkpt>
      <trkpt lat="43.39031" lon="5.48506">
        <ele>362</ele>
        <time>2017-09-14T09:37:09Z</time>
      </trkpt>
      <trkpt lat="43.39026" lon="5.48493">
        <ele>363.5</ele>
        <time>2017-09-14T09:37:20Z</time>
      </trkpt>
      <trkpt lat="43.39018" lon="5.48487">
        <ele>364.7</ele>
        <time>2017-09-14T09:37:28Z</time>
      </trkpt>
      <trkpt lat="43.39011" lon="5.48478">
        <ele>365.9</ele>
        <time>2017-09-14T09:37:37Z</time>
      </trkpt>
      <trkpt lat="43.39007" lon="5.48466">
        <ele>367</ele>
        <time>2017-09-14T09:37:45Z</time>
      </trkpt>
      <trkpt lat="43.39002" lon="5.48453">
        <ele>368.4</ele>
        <time>2017-09-14T09:37:58Z</time>
      </trkpt>
      <trkpt lat="43.38996" lon="5.48443">
        <ele>369.6</ele>
        <time>2017-09-14T09:38:06Z</time>
      </trkpt>
      <trkpt lat="43.38988" lon="5.48436">
        <ele>371.2</ele>
        <time>2017-09-14T09:38:15Z</time>
      </trkpt>
      <trkpt lat="43.38983" lon="5.48425">
        <ele>372.3</ele>
        <time>2017-09-14T09:38:23Z</time>
      </trkpt>
      <trkpt lat="43.38979" lon="5.48413">
        <ele>374.6</ele>
        <time>2017-09-14T09:38:35Z</time>
      </trkpt>
      <trkpt lat="43.38978" lon="5.48401">
        <ele>374.9</ele>
        <time>2017-09-14T09:38:47Z</time>
      </trkpt>
      <trkpt lat="43.38978" lon="5.48388">
        <ele>375</ele>
        <time>2017-09-14T09:38:57Z</time>
      </trkpt>
      <trkpt lat="43.38979" lon="5.48376">
        <ele>375</ele>
        <time>2017-09-14T09:39:03Z</time>
      </trkpt>
      <trkpt lat="43.3898" lon="5.48363">
        <ele>374.8</ele>
        <time>2017-09-14T09:39:08Z</time>
      </trkpt>
      <trkpt lat="43.3898" lon="5.48349">
        <ele>374.6</ele>
        <time>2017-09-14T09:39:17Z</time>
      </trkpt>
      <trkpt lat="43.38984" lon="5.48334">
        <ele>374</ele>
        <time>2017-09-14T09:39:22Z</time>
      </trkpt>
      <trkpt lat="43.38986" lon="5.48322">
        <ele>373.6</ele>
        <time>2017-09-14T09:39:30Z</time>
      </trkpt>
      <trkpt lat="43.38989" lon="5.4831">
        <ele>373.3</ele>
        <time>2017-09-14T09:39:36Z</time>
      </trkpt>
      <trkpt lat="43.38991" lon="5.48296">
        <ele>373</ele>
        <time>2017-09-14T09:39:42Z</time>
      </trkpt>
      <trkpt lat="43.38986" lon="5.48284">
        <ele>373.9</ele>
        <time>2017-09-14T09:39:52Z</time>
      </trkpt>
      <trkpt lat="43.38975" lon="5.48285">
        <ele>375.6</ele>
        <time>2017-09-14T09:40:02Z</time>
      </trkpt>
      <trkpt lat="43.38966" lon="5.48286">
        <ele>377</ele>
        <time>2017-09-14T09:40:10Z</time>
      </trkpt>
      <trkpt lat="43.38957" lon="5.48288">
        <ele>378.8</ele>
        <time>2017-09-14T09:40:19Z</time>
      </trkpt>
      <trkpt lat="43.38948" lon="5.48295">
        <ele>380.1</ele>
        <time>2017-09-14T09:40:28Z</time>
      </trkpt>
      <trkpt lat="43.3894" lon="5.48302">
        <ele>381.5</ele>
        <time>2017-09-14T09:40:38Z</time>
      </trkpt>
      <trkpt lat="43.38932" lon="5.48308">
        <ele>383.1</ele>
        <time>2017-09-14T09:40:49Z</time>
      </trkpt>
      <trkpt lat="43.38924" lon="5.48314">
        <ele>384</ele>
        <time>2017-09-14T09:40:56Z</time>
      </trkpt>
      <trkpt lat="43.38914" lon="5.48318">
        <ele>385.8</ele>
        <time>2017-09-14T09:41:06Z</time>
      </trkpt>
      <trkpt lat="43.38904" lon="5.48322">
        <ele>387.3</ele>
        <time>2017-09-14T09:41:16Z</time>
      </trkpt>
      <trkpt lat="43.38895" lon="5.48329">
        <ele>388.5</ele>
        <time>2017-09-14T09:41:25Z</time>
      </trkpt>
      <trkpt lat="43.38888" lon="5.48337">
        <ele>389.3</ele>
        <time>2017-09-14T09:41:33Z</time>
      </trkpt>
      <trkpt lat="43.38881" lon="5.48346">
        <ele>390.1</ele>
        <time>2017-09-14T09:41:39Z</time>
      </trkpt>
      <trkpt lat="43.38876" lon="5.48356">
        <ele>391.4</ele>
        <time>2017-09-14T09:41:47Z</time>
      </trkpt>
      <trkpt lat="43.38867" lon="5.48363">
        <ele>392.5</ele>
        <time>2017-09-14T09:41:56Z</time>
      </trkpt>
      <trkpt lat="43.38859" lon="5.48371">
        <ele>393.8</ele>
        <time>2017-09-14T09:42:05Z</time>
      </trkpt>
      <trkpt lat="43.38851" lon="5.48382">
        <ele>395.3</ele>
        <time>2017-09-14T09:42:15Z</time>
      </trkpt>
      <trkpt lat="43.38842" lon="5.48385">
        <ele>396.9</ele>
        <time>2017-09-14T09:42:25Z</time>
      </trkpt>
      <trkpt lat="43.38834" lon="5.48381">
        <ele>398.4</ele>
        <time>2017-09-14T09:42:33Z</time>
      </trkpt>
      <trkpt lat="43.38824" lon="5.48379">
        <ele>400.2</ele>
        <time>2017-09-14T09:42:43Z</time>
      </trkpt>
      <trkpt lat="43.38815" lon="5.48379">
        <ele>401.6</ele>
        <time>2017-09-14T09:42:53Z</time>
      </trkpt>
      <trkpt lat="43.38806" lon="5.48379">
        <ele>403</ele>
        <time>2017-09-14T09:43:02Z</time>
      </trkpt>
      <trkpt lat="43.38797" lon="5.48376">
        <ele>403.7</ele>
        <time>2017-09-14T09:43:10Z</time>
      </trkpt>
      <trkpt lat="43.38788" lon="5.48373">
        <ele>404.3</ele>
        <time>2017-09-14T09:43:19Z</time>
      </trkpt>
      <trkpt lat="43.38778" lon="5.48371">
        <ele>404.6</ele>
        <time>2017-09-14T09:43:27Z</time>
      </trkpt>
      <trkpt lat="43.38769" lon="5.48373">
        <ele>405.2</ele>
        <time>2017-09-14T09:43:35Z</time>
      </trkpt>
      <trkpt lat="43.3876" lon="5.48378">
        <ele>406.4</ele>
        <time>2017-09-14T09:43:45Z</time>
      </trkpt>
      <trkpt lat="43.38756" lon="5.4839">
        <ele>407.2</ele>
        <time>2017-09-14T09:43:52Z</time>
      </trkpt>
      <trkpt lat="43.38751" lon="5.48401">
        <ele>407.6</ele>
        <time>2017-09-14T09:43:59Z</time>
      </trkpt>
      <trkpt lat="43.38746" lon="5.48413">
        <ele>408.5</ele>
        <time>2017-09-14T09:44:08Z</time>
      </trkpt>
      <trkpt lat="43.38742" lon="5.48425">
        <ele>409.4</ele>
        <time>2017-09-14T09:44:16Z</time>
      </trkpt>
      <trkpt lat="43.38735" lon="5.48432">
        <ele>410.2</ele>
        <time>2017-09-14T09:44:24Z</time>
      </trkpt>
      <trkpt lat="43.38727" lon="5.48424">
        <ele>410.8</ele>
        <time>2017-09-14T09:44:41Z</time>
      </trkpt>
      <trkpt lat="43.3873" lon="5.48411">
        <ele>411.2</ele>
        <time>2017-09-14T09:44:47Z</time>
      </trkpt>
      <trkpt lat="43.38727" lon="5.48424">
        <ele>411.5</ele>
        <time>2017-09-14T09:45:10Z</time>
      </trkpt>
      <trkpt lat="43.38723" lon="5.48437">
        <ele>411.2</ele>
        <time>2017-09-14T09:45:15Z</time>
      </trkpt>
      <trkpt lat="43.38714" lon="5.48434">
        <ele>409.8</ele>
        <time>2017-09-14T09:45:26Z</time>
      </trkpt>
      <trkpt lat="43.38705" lon="5.48428">
        <ele>408.8</ele>
        <time>2017-09-14T09:45:32Z</time>
      </trkpt>
      <trkpt lat="43.38696" lon="5.4842">
        <ele>407.2</ele>
        <time>2017-09-14T09:45:41Z</time>
      </trkpt>
      <trkpt lat="43.38688" lon="5.48413">
        <ele>405.4</ele>
        <time>2017-09-14T09:45:50Z</time>
      </trkpt>
      <trkpt lat="43.3868" lon="5.48406">
        <ele>403.9</ele>
        <time>2017-09-14T09:45:58Z</time>
      </trkpt>
      <trkpt lat="43.38671" lon="5.48399">
        <ele>402.5</ele>
        <time>2017-09-14T09:46:05Z</time>
      </trkpt>
      <trkpt lat="43.38663" lon="5.48393">
        <ele>401.2</ele>
        <time>2017-09-14T09:46:12Z</time>
      </trkpt>
      <trkpt lat="43.38655" lon="5.48387">
        <ele>400</ele>
        <time>2017-09-14T09:46:18Z</time>
      </trkpt>
      <trkpt lat="43.38646" lon="5.48381">
        <ele>398.9</ele>
        <time>2017-09-14T09:46:24Z</time>
      </trkpt>
      <trkpt lat="43.38637" lon="5.48375">
        <ele>397.8</ele>
        <time>2017-09-14T09:46:31Z</time>
      </trkpt>
      <trkpt lat="43.3863" lon="5.48367">
        <ele>396.5</ele>
        <time>2017-09-14T09:46:39Z</time>
      </trkpt>
      <trkpt lat="43.38621" lon="5.48363">
        <ele>394.1</ele>
        <time>2017-09-14T09:46:51Z</time>
      </trkpt>
      <trkpt lat="43.38621" lon="5.48349">
        <ele>392.8</ele>
        <time>2017-09-14T09:47:00Z</time>
      </trkpt>
      <trkpt lat="43.38624" lon="5.48336">
        <ele>391.9</ele>
        <time>2017-09-14T09:47:09Z</time>
      </trkpt>
      <trkpt lat="43.38627" lon="5.48323">
        <ele>390.2</ele>
        <time>2017-09-14T09:47:17Z</time>
      </trkpt>
      <trkpt lat="43.3863" lon="5.48309">
        <ele>389.5</ele>
        <time>2017-09-14T09:47:24Z</time>
      </trkpt>
      <trkpt lat="43.38634" lon="5.48297">
        <ele>388.5</ele>
        <time>2017-09-14T09:47:33Z</time>
      </trkpt>
      <trkpt lat="43.38638" lon="5.48284">
        <ele>387.7</ele>
        <time>2017-09-14T09:47:40Z</time>
      </trkpt>
      <trkpt lat="43.38643" lon="5.48273">
        <ele>387</ele>
        <time>2017-09-14T09:47:47Z</time>
      </trkpt>
      <trkpt lat="43.38646" lon="5.48259">
        <ele>387.6</ele>
        <time>2017-09-14T09:47:55Z</time>
      </trkpt>
      <trkpt lat="43.38649" lon="5.48244">
        <ele>386.9</ele>
        <time>2017-09-14T09:48:03Z</time>
      </trkpt>
      <trkpt lat="43.3865" lon="5.48231">
        <ele>386.4</ele>
        <time>2017-09-14T09:48:11Z</time>
      </trkpt>
      <trkpt lat="43.38647" lon="5.48219">
        <ele>384.7</ele>
        <time>2017-09-14T09:48:31Z</time>
      </trkpt>
      <trkpt lat="43.38643" lon="5.48206">
        <ele>383.9</ele>
        <time>2017-09-14T09:48:38Z</time>
      </trkpt>
      <trkpt lat="43.38639" lon="5.48195">
        <ele>382.4</ele>
        <time>2017-09-14T09:48:47Z</time>
      </trkpt>
      <trkpt lat="43.38629" lon="5.48196">
        <ele>381.1</ele>
        <time>2017-09-14T09:48:56Z</time>
      </trkpt>
      <trkpt lat="43.3862" lon="5.4819">
        <ele>380</ele>
        <time>2017-09-14T09:49:04Z</time>
      </trkpt>
      <trkpt lat="43.38611" lon="5.48187">
        <ele>378.6</ele>
        <time>2017-09-14T09:49:11Z</time>
      </trkpt>
      <trkpt lat="43.38601" lon="5.48183">
        <ele>377.9</ele>
        <time>2017-09-14T09:49:19Z</time>
      </trkpt>
      <trkpt lat="43.38592" lon="5.4818">
        <ele>377.3</ele>
        <time>2017-09-14T09:49:27Z</time>
      </trkpt>
      <trkpt lat="43.38583" lon="5.48176">
        <ele>376.4</ele>
        <time>2017-09-14T09:49:35Z</time>
      </trkpt>
      <trkpt lat="43.38575" lon="5.48167">
        <ele>375.7</ele>
        <time>2017-09-14T09:49:42Z</time>
      </trkpt>
      <trkpt lat="43.38566" lon="5.4816">
        <ele>374</ele>
        <time>2017-09-14T09:49:58Z</time>
      </trkpt>
      <trkpt lat="43.38559" lon="5.48149">
        <ele>373.2</ele>
        <time>2017-09-14T09:50:05Z</time>
      </trkpt>
      <trkpt lat="43.38552" lon="5.48139">
        <ele>372.5</ele>
        <time>2017-09-14T09:50:12Z</time>
      </trkpt>
      <trkpt lat="43.38544" lon="5.48132">
        <ele>372.5</ele>
        <time>2017-09-14T09:50:19Z</time>
      </trkpt>
      <trkpt lat="43.38535" lon="5.48126">
        <ele>371.7</ele>
        <time>2017-09-14T09:50:26Z</time>
      </trkpt>
      <trkpt lat="43.38525" lon="5.48121">
        <ele>370.9</ele>
        <time>2017-09-14T09:50:33Z</time>
      </trkpt>
      <trkpt lat="43.38516" lon="5.48117">
        <ele>369.9</ele>
        <time>2017-09-14T09:50:42Z</time>
      </trkpt>
      <trkpt lat="43.38507" lon="5.48113">
        <ele>369.3</ele>
        <time>2017-09-14T09:50:54Z</time>
      </trkpt>
      <trkpt lat="43.38499" lon="5.48107">
        <ele>369.2</ele>
        <time>2017-09-14T09:50:59Z</time>
      </trkpt>
      <trkpt lat="43.38489" lon="5.481">
        <ele>369</ele>
        <time>2017-09-14T09:51:03Z</time>
      </trkpt>
      <trkpt lat="43.38478" lon="5.48095">
        <ele>368.5</ele>
        <time>2017-09-14T09:51:07Z</time>
      </trkpt>
      <trkpt lat="43.38469" lon="5.48091">
        <ele>367</ele>
        <time>2017-09-14T09:51:16Z</time>
      </trkpt>
      <trkpt lat="43.38458" lon="5.48089">
        <ele>366.2</ele>
        <time>2017-09-14T09:51:26Z</time>
      </trkpt>
      <trkpt lat="43.38449" lon="5.48084">
        <ele>366.1</ele>
        <time>2017-09-14T09:51:31Z</time>
      </trkpt>
      <trkpt lat="43.38441" lon="5.48076">
        <ele>366.1</ele>
        <time>2017-09-14T09:51:35Z</time>
      </trkpt>
      <trkpt lat="43.38434" lon="5.48067">
        <ele>366.1</ele>
        <time>2017-09-14T09:51:40Z</time>
      </trkpt>
      <trkpt lat="43.38427" lon="5.4806">
        <ele>366.5</ele>
        <time>2017-09-14T09:51:54Z</time>
      </trkpt>
      <trkpt lat="43.38418" lon="5.48053">
        <ele>367.1</ele>
        <time>2017-09-14T09:51:58Z</time>
      </trkpt>
      <trkpt lat="43.38413" lon="5.48043">
        <ele>367.5</ele>
        <time>2017-09-14T09:52:05Z</time>
      </trkpt>
      <trkpt lat="43.38404" lon="5.48035">
        <ele>368.4</ele>
        <time>2017-09-14T09:52:13Z</time>
      </trkpt>
      <trkpt lat="43.38404" lon="5.48021">
        <ele>368.3</ele>
        <time>2017-09-14T09:52:21Z</time>
      </trkpt>
      <trkpt lat="43.38409" lon="5.48011">
        <ele>368.4</ele>
        <time>2017-09-14T09:52:25Z</time>
      </trkpt>
      <trkpt lat="43.38416" lon="5.48002">
        <ele>367.5</ele>
        <time>2017-09-14T09:52:32Z</time>
      </trkpt>
      <trkpt lat="43.38425" lon="5.47997">
        <ele>366.1</ele>
        <time>2017-09-14T09:52:39Z</time>
      </trkpt>
      <trkpt lat="43.38434" lon="5.47993">
        <ele>365.9</ele>
        <time>2017-09-14T09:52:44Z</time>
      </trkpt>
      <trkpt lat="43.38443" lon="5.47988">
        <ele>366.3</ele>
        <time>2017-09-14T09:52:52Z</time>
      </trkpt>
      <trkpt lat="43.38452" lon="5.47982">
        <ele>367.2</ele>
        <time>2017-09-14T09:53:00Z</time>
      </trkpt>
      <trkpt lat="43.38462" lon="5.47978">
        <ele>367.2</ele>
        <time>2017-09-14T09:53:08Z</time>
      </trkpt>
      <trkpt lat="43.38471" lon="5.47972">
        <ele>367.2</ele>
        <time>2017-09-14T09:53:16Z</time>
      </trkpt>
      <trkpt lat="43.38478" lon="5.47964">
        <ele>367.3</ele>
        <time>2017-09-14T09:53:23Z</time>
      </trkpt>
      <trkpt lat="43.38484" lon="5.47953">
        <ele>367.2</ele>
        <time>2017-09-14T09:53:30Z</time>
      </trkpt>
      <trkpt lat="43.38491" lon="5.47942">
        <ele>367.3</ele>
        <time>2017-09-14T09:53:36Z</time>
      </trkpt>
      <trkpt lat="43.38495" lon="5.4793">
        <ele>367</ele>
        <time>2017-09-14T09:53:44Z</time>
      </trkpt>
      <trkpt lat="43.38501" lon="5.47919">
        <ele>366.4</ele>
        <time>2017-09-14T09:53:51Z</time>
      </trkpt>
      <trkpt lat="43.38504" lon="5.47907">
        <ele>366.2</ele>
        <time>2017-09-14T09:53:58Z</time>
      </trkpt>
      <trkpt lat="43.38508" lon="5.47893">
        <ele>366.1</ele>
        <time>2017-09-14T09:54:04Z</time>
      </trkpt>
      <trkpt lat="43.38512" lon="5.47881">
        <ele>365.4</ele>
        <time>2017-09-14T09:54:11Z</time>
      </trkpt>
      <trkpt lat="43.38517" lon="5.47868">
        <ele>365.4</ele>
        <time>2017-09-14T09:54:18Z</time>
      </trkpt>
      <trkpt lat="43.38521" lon="5.47856">
        <ele>365</ele>
        <time>2017-09-14T09:54:25Z</time>
      </trkpt>
      <trkpt lat="43.38525" lon="5.47843">
        <ele>364.9</ele>
        <time>2017-09-14T09:54:32Z</time>
      </trkpt>
      <trkpt lat="43.38527" lon="5.4783">
        <ele>364.1</ele>
        <time>2017-09-14T09:54:39Z</time>
      </trkpt>
      <trkpt lat="43.38528" lon="5.47816">
        <ele>363.8</ele>
        <time>2017-09-14T09:54:46Z</time>
      </trkpt>
      <trkpt lat="43.38533" lon="5.47805">
        <ele>363.8</ele>
        <time>2017-09-14T09:54:54Z</time>
      </trkpt>
      <trkpt lat="43.38542" lon="5.47801">
        <ele>363.8</ele>
        <time>2017-09-14T09:55:03Z</time>
      </trkpt>
      <trkpt lat="43.38551" lon="5.478">
        <ele>363.6</ele>
        <time>2017-09-14T09:55:10Z</time>
      </trkpt>
      <trkpt lat="43.3856" lon="5.47799">
        <ele>363.1</ele>
        <time>2017-09-14T09:55:18Z</time>
      </trkpt>
      <trkpt lat="43.3857" lon="5.47798">
        <ele>363.2</ele>
        <time>2017-09-14T09:55:26Z</time>
      </trkpt>
      <trkpt lat="43.3858" lon="5.47794">
        <ele>363.2</ele>
        <time>2017-09-14T09:55:35Z</time>
      </trkpt>
      <trkpt lat="43.38589" lon="5.47787">
        <ele>363.1</ele>
        <time>2017-09-14T09:55:42Z</time>
      </trkpt>
      <trkpt lat="43.38597" lon="5.47781">
        <ele>363</ele>
        <time>2017-09-14T09:55:50Z</time>
      </trkpt>
      <trkpt lat="43.38607" lon="5.47778">
        <ele>363.1</ele>
        <time>2017-09-14T09:55:58Z</time>
      </trkpt>
      <trkpt lat="43.38616" lon="5.47775">
        <ele>362.9</ele>
        <time>2017-09-14T09:56:06Z</time>
      </trkpt>
      <trkpt lat="43.38625" lon="5.47772">
        <ele>362.7</ele>
        <time>2017-09-14T09:56:16Z</time>
      </trkpt>
      <trkpt lat="43.38635" lon="5.47769">
        <ele>362.5</ele>
        <time>2017-09-14T09:56:25Z</time>
      </trkpt>
      <trkpt lat="43.38643" lon="5.47765">
        <ele>361.5</ele>
        <time>2017-09-14T09:56:33Z</time>
      </trkpt>
      <trkpt lat="43.38651" lon="5.47756">
        <ele>361.2</ele>
        <time>2017-09-14T09:56:40Z</time>
      </trkpt>
      <trkpt lat="43.38657" lon="5.47747">
        <ele>360.8</ele>
        <time>2017-09-14T09:56:47Z</time>
      </trkpt>
      <trkpt lat="43.3866" lon="5.47734">
        <ele>360</ele>
        <time>2017-09-14T09:56:54Z</time>
      </trkpt>
      <trkpt lat="43.3866" lon="5.47721">
        <ele>359.3</ele>
        <time>2017-09-14T09:57:01Z</time>
      </trkpt>
      <trkpt lat="43.38656" lon="5.47709">
        <ele>358.8</ele>
        <time>2017-09-14T09:57:07Z</time>
      </trkpt>
      <trkpt lat="43.38654" lon="5.47697">
        <ele>358</ele>
        <time>2017-09-14T09:57:14Z</time>
      </trkpt>
      <trkpt lat="43.38651" lon="5.47685">
        <ele>357</ele>
        <time>2017-09-14T09:57:20Z</time>
      </trkpt>
      <trkpt lat="43.38651" lon="5.47671">
        <ele>355.7</ele>
        <time>2017-09-14T09:57:29Z</time>
      </trkpt>
      <trkpt lat="43.3865" lon="5.47658">
        <ele>354.8</ele>
        <time>2017-09-14T09:57:36Z</time>
      </trkpt>
      <trkpt lat="43.38649" lon="5.47645">
        <ele>353.7</ele>
        <time>2017-09-14T09:57:43Z</time>
      </trkpt>
      <trkpt lat="43.38647" lon="5.47632">
        <ele>353.1</ele>
        <time>2017-09-14T09:57:51Z</time>
      </trkpt>
      <trkpt lat="43.38645" lon="5.4762">
        <ele>352.2</ele>
        <time>2017-09-14T09:58:00Z</time>
      </trkpt>
      <trkpt lat="43.3865" lon="5.47609">
        <ele>352</ele>
        <time>2017-09-14T09:58:14Z</time>
      </trkpt>
      <trkpt lat="43.38658" lon="5.47601">
        <ele>351.8</ele>
        <time>2017-09-14T09:58:41Z</time>
      </trkpt>
      <trkpt lat="43.38666" lon="5.47596">
        <ele>352.4</ele>
        <time>2017-09-14T09:58:49Z</time>
      </trkpt>
      <trkpt lat="43.38672" lon="5.47586">
        <ele>353.6</ele>
        <time>2017-09-14T09:58:58Z</time>
      </trkpt>
      <trkpt lat="43.38679" lon="5.47576">
        <ele>354.2</ele>
        <time>2017-09-14T09:59:06Z</time>
      </trkpt>
      <trkpt lat="43.38684" lon="5.47565">
        <ele>354.3</ele>
        <time>2017-09-14T09:59:14Z</time>
      </trkpt>
      <trkpt lat="43.38689" lon="5.47555">
        <ele>354.5</ele>
        <time>2017-09-14T09:59:21Z</time>
      </trkpt>
      <trkpt lat="43.38695" lon="5.47544">
        <ele>354.5</ele>
        <time>2017-09-14T09:59:29Z</time>
      </trkpt>
      <trkpt lat="43.387" lon="5.47533">
        <ele>354.6</ele>
        <time>2017-09-14T09:59:37Z</time>
      </trkpt>
      <trkpt lat="43.38705" lon="5.47522">
        <ele>354.9</ele>
        <time>2017-09-14T09:59:45Z</time>
      </trkpt>
      <trkpt lat="43.38712" lon="5.47514">
        <ele>355</ele>
        <time>2017-09-14T09:59:53Z</time>
      </trkpt>
      <trkpt lat="43.3872" lon="5.47507">
        <ele>355.4</ele>
        <time>2017-09-14T10:00:01Z</time>
      </trkpt>
      <trkpt lat="43.38729" lon="5.475">
        <ele>356.1</ele>
        <time>2017-09-14T10:00:10Z</time>
      </trkpt>
      <trkpt lat="43.38738" lon="5.47496">
        <ele>357.3</ele>
        <time>2017-09-14T10:00:18Z</time>
      </trkpt>
      <trkpt lat="43.38746" lon="5.47488">
        <ele>358.4</ele>
        <time>2017-09-14T10:00:29Z</time>
      </trkpt>
      <trkpt lat="43.38756" lon="5.47482">
        <ele>359.6</ele>
        <time>2017-09-14T10:00:39Z</time>
      </trkpt>
      <trkpt lat="43.38765" lon="5.47483">
        <ele>360.3</ele>
        <time>2017-09-14T10:01:01Z</time>
      </trkpt>
      <trkpt lat="43.38775" lon="5.4748">
        <ele>360.4</ele>
        <time>2017-09-14T10:01:09Z</time>
      </trkpt>
      <trkpt lat="43.38783" lon="5.47474">
        <ele>360.7</ele>
        <time>2017-09-14T10:01:17Z</time>
      </trkpt>
      <trkpt lat="43.38793" lon="5.47469">
        <ele>361</ele>
        <time>2017-09-14T10:01:25Z</time>
      </trkpt>
      <trkpt lat="43.38802" lon="5.47464">
        <ele>361.3</ele>
        <time>2017-09-14T10:01:33Z</time>
      </trkpt>
      <trkpt lat="43.38811" lon="5.47459">
        <ele>361.8</ele>
        <time>2017-09-14T10:01:42Z</time>
      </trkpt>
      <trkpt lat="43.38821" lon="5.47458">
        <ele>362.1</ele>
        <time>2017-09-14T10:01:51Z</time>
      </trkpt>
      <trkpt lat="43.38831" lon="5.47458">
        <ele>362.5</ele>
        <time>2017-09-14T10:01:59Z</time>
      </trkpt>
      <trkpt lat="43.38839" lon="5.47452">
        <ele>362.8</ele>
        <time>2017-09-14T10:02:07Z</time>
      </trkpt>
      <trkpt lat="43.38847" lon="5.47446">
        <ele>363.2</ele>
        <time>2017-09-14T10:02:15Z</time>
      </trkpt>
      <trkpt lat="43.38855" lon="5.47437">
        <ele>363.6</ele>
        <time>2017-09-14T10:02:23Z</time>
      </trkpt>
      <trkpt lat="43.38862" lon="5.47428">
        <ele>364.2</ele>
        <time>2017-09-14T10:02:32Z</time>
      </trkpt>
      <trkpt lat="43.38869" lon="5.4742">
        <ele>364.2</ele>
        <time>2017-09-14T10:02:40Z</time>
      </trkpt>
      <trkpt lat="43.38876" lon="5.4741">
        <ele>365.1</ele>
        <time>2017-09-14T10:02:48Z</time>
      </trkpt>
      <trkpt lat="43.38883" lon="5.47402">
        <ele>366.2</ele>
        <time>2017-09-14T10:02:57Z</time>
      </trkpt>
      <trkpt lat="43.38888" lon="5.47391">
        <ele>367</ele>
        <time>2017-09-14T10:03:05Z</time>
      </trkpt>
      <trkpt lat="43.38892" lon="5.4738">
        <ele>367.4</ele>
        <time>2017-09-14T10:03:12Z</time>
      </trkpt>
      <trkpt lat="43.38898" lon="5.47369">
        <ele>367.7</ele>
        <time>2017-09-14T10:03:20Z</time>
      </trkpt>
      <trkpt lat="43.38904" lon="5.47359">
        <ele>368.1</ele>
        <time>2017-09-14T10:03:28Z</time>
      </trkpt>
      <trkpt lat="43.3891" lon="5.47349">
        <ele>368.6</ele>
        <time>2017-09-14T10:03:37Z</time>
      </trkpt>
      <trkpt lat="43.38917" lon="5.4734">
        <ele>369.2</ele>
        <time>2017-09-14T10:03:46Z</time>
      </trkpt>
      <trkpt lat="43.38925" lon="5.47331">
        <ele>369.2</ele>
        <time>2017-09-14T10:03:55Z</time>
      </trkpt>
      <trkpt lat="43.38933" lon="5.47324">
        <ele>369.8</ele>
        <time>2017-09-14T10:04:03Z</time>
      </trkpt>
      <trkpt lat="43.38942" lon="5.47318">
        <ele>370.4</ele>
        <time>2017-09-14T10:04:12Z</time>
      </trkpt>
      <trkpt lat="43.3895" lon="5.47311">
        <ele>371.2</ele>
        <time>2017-09-14T10:04:21Z</time>
      </trkpt>
      <trkpt lat="43.38958" lon="5.47305">
        <ele>371.8</ele>
        <time>2017-09-14T10:04:29Z</time>
      </trkpt>
      <trkpt lat="43.38966" lon="5.47297">
        <ele>372.1</ele>
        <time>2017-09-14T10:04:38Z</time>
      </trkpt>
      <trkpt lat="43.38975" lon="5.47293">
        <ele>372.4</ele>
        <time>2017-09-14T10:04:47Z</time>
      </trkpt>
      <trkpt lat="43.38983" lon="5.47285">
        <ele>373.4</ele>
        <time>2017-09-14T10:04:56Z</time>
      </trkpt>
      <trkpt lat="43.38991" lon="5.4728">
        <ele>374.6</ele>
        <time>2017-09-14T10:05:06Z</time>
      </trkpt>
      <trkpt lat="43.38999" lon="5.47273">
        <ele>374.4</ele>
        <time>2017-09-14T10:05:14Z</time>
      </trkpt>
      <trkpt lat="43.39007" lon="5.47266">
        <ele>375.2</ele>
        <time>2017-09-14T10:05:23Z</time>
      </trkpt>
      <trkpt lat="43.39015" lon="5.47259">
        <ele>374.9</ele>
        <time>2017-09-14T10:05:33Z</time>
      </trkpt>
      <trkpt lat="43.39022" lon="5.4725">
        <ele>374.7</ele>
        <time>2017-09-14T10:05:43Z</time>
      </trkpt>
      <trkpt lat="43.39028" lon="5.4724">
        <ele>375.7</ele>
        <time>2017-09-14T10:05:56Z</time>
      </trkpt>
      <trkpt lat="43.39035" lon="5.47232">
        <ele>375.8</ele>
        <time>2017-09-14T10:06:07Z</time>
      </trkpt>
      <trkpt lat="43.39043" lon="5.47226">
        <ele>376.3</ele>
        <time>2017-09-14T10:06:17Z</time>
      </trkpt>
      <trkpt lat="43.39052" lon="5.47219">
        <ele>376.8</ele>
        <time>2017-09-14T10:06:26Z</time>
      </trkpt>
      <trkpt lat="43.3906" lon="5.4721">
        <ele>376.9</ele>
        <time>2017-09-14T10:06:34Z</time>
      </trkpt>
      <trkpt lat="43.39069" lon="5.47204">
        <ele>377.4</ele>
        <time>2017-09-14T10:06:42Z</time>
      </trkpt>
      <trkpt lat="43.39078" lon="5.47201">
        <ele>378.7</ele>
        <time>2017-09-14T10:06:52Z</time>
      </trkpt>
      <trkpt lat="43.39087" lon="5.47205">
        <ele>380.4</ele>
        <time>2017-09-14T10:07:02Z</time>
      </trkpt>
      <trkpt lat="43.39096" lon="5.47209">
        <ele>380.5</ele>
        <time>2017-09-14T10:07:11Z</time>
      </trkpt>
      <trkpt lat="43.39104" lon="5.47219">
        <ele>381.3</ele>
        <time>2017-09-14T10:07:19Z</time>
      </trkpt>
      <trkpt lat="43.39109" lon="5.47229">
        <ele>381.9</ele>
        <time>2017-09-14T10:07:26Z</time>
      </trkpt>
      <trkpt lat="43.39117" lon="5.47237">
        <ele>382.7</ele>
        <time>2017-09-14T10:07:35Z</time>
      </trkpt>
      <trkpt lat="43.39126" lon="5.47242">
        <ele>383.4</ele>
        <time>2017-09-14T10:07:44Z</time>
      </trkpt>
      <trkpt lat="43.39136" lon="5.47243">
        <ele>384.1</ele>
        <time>2017-09-14T10:07:53Z</time>
      </trkpt>
      <trkpt lat="43.39145" lon="5.47242">
        <ele>385.1</ele>
        <time>2017-09-14T10:08:03Z</time>
      </trkpt>
      <trkpt lat="43.39154" lon="5.47239">
        <ele>386.7</ele>
        <time>2017-09-14T10:08:12Z</time>
      </trkpt>
      <trkpt lat="43.39162" lon="5.47235">
        <ele>388.2</ele>
        <time>2017-09-14T10:08:21Z</time>
      </trkpt>
      <trkpt lat="43.39172" lon="5.47234">
        <ele>389.3</ele>
        <time>2017-09-14T10:08:31Z</time>
      </trkpt>
      <trkpt lat="43.39181" lon="5.47234">
        <ele>390.7</ele>
        <time>2017-09-14T10:08:41Z</time>
      </trkpt>
      <trkpt lat="43.3919" lon="5.47229">
        <ele>392.2</ele>
        <time>2017-09-14T10:08:51Z</time>
      </trkpt>
      <trkpt lat="43.39199" lon="5.47222">
        <ele>393.3</ele>
        <time>2017-09-14T10:09:01Z</time>
      </trkpt>
      <trkpt lat="43.39206" lon="5.47213">
        <ele>394.5</ele>
        <time>2017-09-14T10:09:08Z</time>
      </trkpt>
      <trkpt lat="43.39214" lon="5.47207">
        <ele>395.1</ele>
        <time>2017-09-14T10:09:21Z</time>
      </trkpt>
      <trkpt lat="43.39221" lon="5.47197">
        <ele>396.1</ele>
        <time>2017-09-14T10:09:31Z</time>
      </trkpt>
      <trkpt lat="43.39227" lon="5.47188">
        <ele>397.3</ele>
        <time>2017-09-14T10:09:40Z</time>
      </trkpt>
      <trkpt lat="43.39235" lon="5.47181">
        <ele>398.5</ele>
        <time>2017-09-14T10:09:49Z</time>
      </trkpt>
      <trkpt lat="43.39245" lon="5.47176">
        <ele>399</ele>
        <time>2017-09-14T10:09:57Z</time>
      </trkpt>
      <trkpt lat="43.39254" lon="5.47173">
        <ele>398.2</ele>
        <time>2017-09-14T10:10:05Z</time>
      </trkpt>
      <trkpt lat="43.39264" lon="5.4717">
        <ele>398</ele>
        <time>2017-09-14T10:10:13Z</time>
      </trkpt>
      <trkpt lat="43.39273" lon="5.47167">
        <ele>398.1</ele>
        <time>2017-09-14T10:10:21Z</time>
      </trkpt>
      <trkpt lat="43.39282" lon="5.47164">
        <ele>398</ele>
        <time>2017-09-14T10:10:29Z</time>
      </trkpt>
      <trkpt lat="43.39291" lon="5.47161">
        <ele>397.7</ele>
        <time>2017-09-14T10:10:36Z</time>
      </trkpt>
      <trkpt lat="43.393" lon="5.47154">
        <ele>398.1</ele>
        <time>2017-09-14T10:10:44Z</time>
      </trkpt>
      <trkpt lat="43.39309" lon="5.47151">
        <ele>399.5</ele>
        <time>2017-09-14T10:10:54Z</time>
      </trkpt>
      <trkpt lat="43.39317" lon="5.47145">
        <ele>400.4</ele>
        <time>2017-09-14T10:11:02Z</time>
      </trkpt>
      <trkpt lat="43.39327" lon="5.47146">
        <ele>401.1</ele>
        <time>2017-09-14T10:11:10Z</time>
      </trkpt>
      <trkpt lat="43.39336" lon="5.47142">
        <ele>401.7</ele>
        <time>2017-09-14T10:11:18Z</time>
      </trkpt>
      <trkpt lat="43.39346" lon="5.47139">
        <ele>402.2</ele>
        <time>2017-09-14T10:11:28Z</time>
      </trkpt>
      <trkpt lat="43.39354" lon="5.47134">
        <ele>402.7</ele>
        <time>2017-09-14T10:11:36Z</time>
      </trkpt>
      <trkpt lat="43.39363" lon="5.47129">
        <ele>402.7</ele>
        <time>2017-09-14T10:11:43Z</time>
      </trkpt>
      <trkpt lat="43.39372" lon="5.47124">
        <ele>404.1</ele>
        <time>2017-09-14T10:11:52Z</time>
      </trkpt>
      <trkpt lat="43.39382" lon="5.47122">
        <ele>404.8</ele>
        <time>2017-09-14T10:12:01Z</time>
      </trkpt>
      <trkpt lat="43.39392" lon="5.47123">
        <ele>405.4</ele>
        <time>2017-09-14T10:12:10Z</time>
      </trkpt>
      <trkpt lat="43.39401" lon="5.47122">
        <ele>405.1</ele>
        <time>2017-09-14T10:12:18Z</time>
      </trkpt>
      <trkpt lat="43.39411" lon="5.47124">
        <ele>405.3</ele>
        <time>2017-09-14T10:12:26Z</time>
      </trkpt>
      <trkpt lat="43.3942" lon="5.47122">
        <ele>405.3</ele>
        <time>2017-09-14T10:12:34Z</time>
      </trkpt>
      <trkpt lat="43.39426" lon="5.47112">
        <ele>405.7</ele>
        <time>2017-09-14T10:12:43Z</time>
      </trkpt>
      <trkpt lat="43.39431" lon="5.47101">
        <ele>405.4</ele>
        <time>2017-09-14T10:12:53Z</time>
      </trkpt>
      <trkpt lat="43.39438" lon="5.47092">
        <ele>406.3</ele>
        <time>2017-09-14T10:13:03Z</time>
      </trkpt>
      <trkpt lat="43.39445" lon="5.47083">
        <ele>407.2</ele>
        <time>2017-09-14T10:13:15Z</time>
      </trkpt>
      <trkpt lat="43.39452" lon="5.47073">
        <ele>409.1</ele>
        <time>2017-09-14T10:13:23Z</time>
      </trkpt>
      <trkpt lat="43.3946" lon="5.47066">
        <ele>409.2</ele>
        <time>2017-09-14T10:13:30Z</time>
      </trkpt>
      <trkpt lat="43.39466" lon="5.47056">
        <ele>409.7</ele>
        <time>2017-09-14T10:13:37Z</time>
      </trkpt>
      <trkpt lat="43.39475" lon="5.47051">
        <ele>409.6</ele>
        <time>2017-09-14T10:13:45Z</time>
      </trkpt>
      <trkpt lat="43.39484" lon="5.47046">
        <ele>409.4</ele>
        <time>2017-09-14T10:13:53Z</time>
      </trkpt>
      <trkpt lat="43.39491" lon="5.47038">
        <ele>410</ele>
        <time>2017-09-14T10:14:04Z</time>
      </trkpt>
      <trkpt lat="43.39498" lon="5.47029">
        <ele>410.5</ele>
        <time>2017-09-14T10:14:13Z</time>
      </trkpt>
      <trkpt lat="43.39499" lon="5.47016">
        <ele>410.2</ele>
        <time>2017-09-14T10:14:21Z</time>
      </trkpt>
      <trkpt lat="43.39503" lon="5.47003">
        <ele>410.9</ele>
        <time>2017-09-14T10:14:30Z</time>
      </trkpt>
      <trkpt lat="43.39504" lon="5.46989">
        <ele>411.2</ele>
        <time>2017-09-14T10:14:38Z</time>
      </trkpt>
      <trkpt lat="43.39506" lon="5.46977">
        <ele>411.6</ele>
        <time>2017-09-14T10:14:45Z</time>
      </trkpt>
      <trkpt lat="43.3951" lon="5.46964">
        <ele>412</ele>
        <time>2017-09-14T10:14:53Z</time>
      </trkpt>
      <trkpt lat="43.39516" lon="5.46953">
        <ele>412.3</ele>
        <time>2017-09-14T10:15:03Z</time>
      </trkpt>
      <trkpt lat="43.39517" lon="5.4694">
        <ele>412.9</ele>
        <time>2017-09-14T10:15:09Z</time>
      </trkpt>
      <trkpt lat="43.3952" lon="5.46928">
        <ele>413.7</ele>
        <time>2017-09-14T10:15:20Z</time>
      </trkpt>
      <trkpt lat="43.39522" lon="5.46916">
        <ele>414.2</ele>
        <time>2017-09-14T10:15:28Z</time>
      </trkpt>
      <trkpt lat="43.39522" lon="5.46903">
        <ele>414.7</ele>
        <time>2017-09-14T10:15:35Z</time>
      </trkpt>
      <trkpt lat="43.39521" lon="5.46889">
        <ele>415.4</ele>
        <time>2017-09-14T10:15:45Z</time>
      </trkpt>
      <trkpt lat="43.39524" lon="5.46878">
        <ele>416.2</ele>
        <time>2017-09-14T10:15:54Z</time>
      </trkpt>
      <trkpt lat="43.39531" lon="5.46869">
        <ele>417</ele>
        <time>2017-09-14T10:16:05Z</time>
      </trkpt>
      <trkpt lat="43.39539" lon="5.46861">
        <ele>417.5</ele>
        <time>2017-09-14T10:16:15Z</time>
      </trkpt>
      <trkpt lat="43.39548" lon="5.46857">
        <ele>417.8</ele>
        <time>2017-09-14T10:16:24Z</time>
      </trkpt>
      <trkpt lat="43.39556" lon="5.46849">
        <ele>418.6</ele>
        <time>2017-09-14T10:16:35Z</time>
      </trkpt>
      <trkpt lat="43.39563" lon="5.46842">
        <ele>419</ele>
        <time>2017-09-14T10:16:44Z</time>
      </trkpt>
      <trkpt lat="43.39571" lon="5.46835">
        <ele>420</ele>
        <time>2017-09-14T10:16:55Z</time>
      </trkpt>
      <trkpt lat="43.3958" lon="5.46831">
        <ele>420.4</ele>
        <time>2017-09-14T10:17:04Z</time>
      </trkpt>
      <trkpt lat="43.3959" lon="5.46831">
        <ele>420.6</ele>
        <time>2017-09-14T10:17:12Z</time>
      </trkpt>
      <trkpt lat="43.39595" lon="5.46821">
        <ele>421.3</ele>
        <time>2017-09-14T10:17:21Z</time>
      </trkpt>
      <trkpt lat="43.39601" lon="5.4681">
        <ele>421.9</ele>
        <time>2017-09-14T10:17:29Z</time>
      </trkpt>
      <trkpt lat="43.39606" lon="5.46798">
        <ele>422.9</ele>
        <time>2017-09-14T10:17:39Z</time>
      </trkpt>
      <trkpt lat="43.3961" lon="5.46786">
        <ele>423.9</ele>
        <time>2017-09-14T10:17:47Z</time>
      </trkpt>
      <trkpt lat="43.39614" lon="5.46774">
        <ele>424</ele>
        <time>2017-09-14T10:17:56Z</time>
      </trkpt>
      <trkpt lat="43.39619" lon="5.46762">
        <ele>424.1</ele>
        <time>2017-09-14T10:18:04Z</time>
      </trkpt>
      <trkpt lat="43.39624" lon="5.46752">
        <ele>424.6</ele>
        <time>2017-09-14T10:18:12Z</time>
      </trkpt>
      <trkpt lat="43.39629" lon="5.46741">
        <ele>425.2</ele>
        <time>2017-09-14T10:18:21Z</time>
      </trkpt>
      <trkpt lat="43.39633" lon="5.4673">
        <ele>426.5</ele>
        <time>2017-09-14T10:18:30Z</time>
      </trkpt>
      <trkpt lat="43.39633" lon="5.46717">
        <ele>429.1</ele>
        <time>2017-09-14T10:18:43Z</time>
      </trkpt>
      <trkpt lat="43.39636" lon="5.46704">
        <ele>431.5</ele>
        <time>2017-09-14T10:18:55Z</time>
      </trkpt>
      <trkpt lat="43.39641" lon="5.46694">
        <ele>433.4</ele>
        <time>2017-09-14T10:19:07Z</time>
      </trkpt>
      <trkpt lat="43.39649" lon="5.46689">
        <ele>435.1</ele>
        <time>2017-09-14T10:19:17Z</time>
      </trkpt>
      <trkpt lat="43.39653" lon="5.46677">
        <ele>436.1</ele>
        <time>2017-09-14T10:19:28Z</time>
      </trkpt>
      <trkpt lat="43.39657" lon="5.46664">
        <ele>437.8</ele>
        <time>2017-09-14T10:19:40Z</time>
      </trkpt>
      <trkpt lat="43.3966" lon="5.46652">
        <ele>439.3</ele>
        <time>2017-09-14T10:19:52Z</time>
      </trkpt>
      <trkpt lat="43.39667" lon="5.46643">
        <ele>440</ele>
        <time>2017-09-14T10:19:58Z</time>
      </trkpt>
      <trkpt lat="43.3967" lon="5.46631">
        <ele>440.9</ele>
        <time>2017-09-14T10:20:06Z</time>
      </trkpt>
      <trkpt lat="43.3967" lon="5.46618">
        <ele>441.2</ele>
        <time>2017-09-14T10:20:13Z</time>
      </trkpt>
      <trkpt lat="43.39675" lon="5.46608">
        <ele>442</ele>
        <time>2017-09-14T10:20:22Z</time>
      </trkpt>
      <trkpt lat="43.3968" lon="5.46596">
        <ele>442.8</ele>
        <time>2017-09-14T10:20:32Z</time>
      </trkpt>
      <trkpt lat="43.39682" lon="5.46583">
        <ele>443.5</ele>
        <time>2017-09-14T10:20:41Z</time>
      </trkpt>
      <trkpt lat="43.39677" lon="5.46571">
        <ele>443.9</ele>
        <time>2017-09-14T10:20:50Z</time>
      </trkpt>
      <trkpt lat="43.39674" lon="5.46558">
        <ele>443.1</ele>
        <time>2017-09-14T10:20:57Z</time>
      </trkpt>
      <trkpt lat="43.3968" lon="5.46548">
        <ele>442.5</ele>
        <time>2017-09-14T10:21:07Z</time>
      </trkpt>
      <trkpt lat="43.39685" lon="5.46536">
        <ele>443.4</ele>
        <time>2017-09-14T10:21:15Z</time>
      </trkpt>
      <trkpt lat="43.39692" lon="5.46527">
        <ele>445</ele>
        <time>2017-09-14T10:21:24Z</time>
      </trkpt>
      <trkpt lat="43.39697" lon="5.46515">
        <ele>444.3</ele>
        <time>2017-09-14T10:21:33Z</time>
      </trkpt>
      <trkpt lat="43.397" lon="5.46503">
        <ele>443.2</ele>
        <time>2017-09-14T10:21:41Z</time>
      </trkpt>
      <trkpt lat="43.39701" lon="5.46489">
        <ele>442.8</ele>
        <time>2017-09-14T10:21:48Z</time>
      </trkpt>
      <trkpt lat="43.397" lon="5.46476">
        <ele>442.4</ele>
        <time>2017-09-14T10:21:55Z</time>
      </trkpt>
      <trkpt lat="43.397" lon="5.46464">
        <ele>442.7</ele>
        <time>2017-09-14T10:22:05Z</time>
      </trkpt>
      <trkpt lat="43.39695" lon="5.46452">
        <ele>443.9</ele>
        <time>2017-09-14T10:22:14Z</time>
      </trkpt>
      <trkpt lat="43.39688" lon="5.46444">
        <ele>444.5</ele>
        <time>2017-09-14T10:22:22Z</time>
      </trkpt>
      <trkpt lat="43.39687" lon="5.46431">
        <ele>445.3</ele>
        <time>2017-09-14T10:22:31Z</time>
      </trkpt>
      <trkpt lat="43.39689" lon="5.46417">
        <ele>446.4</ele>
        <time>2017-09-14T10:22:40Z</time>
      </trkpt>
      <trkpt lat="43.39691" lon="5.46405">
        <ele>447.3</ele>
        <time>2017-09-14T10:22:49Z</time>
      </trkpt>
      <trkpt lat="43.39689" lon="5.46391">
        <ele>448.4</ele>
        <time>2017-09-14T10:23:00Z</time>
      </trkpt>
      <trkpt lat="43.3969" lon="5.46379">
        <ele>450.2</ele>
        <time>2017-09-14T10:23:09Z</time>
      </trkpt>
      <trkpt lat="43.39692" lon="5.46366">
        <ele>451.3</ele>
        <time>2017-09-14T10:23:19Z</time>
      </trkpt>
      <trkpt lat="43.39692" lon="5.46353">
        <ele>450.9</ele>
        <time>2017-09-14T10:23:27Z</time>
      </trkpt>
      <trkpt lat="43.39694" lon="5.4634">
        <ele>451.7</ele>
        <time>2017-09-14T10:23:36Z</time>
      </trkpt>
      <trkpt lat="43.39699" lon="5.4633">
        <ele>452.5</ele>
        <time>2017-09-14T10:23:47Z</time>
      </trkpt>
      <trkpt lat="43.39707" lon="5.46322">
        <ele>454.5</ele>
        <time>2017-09-14T10:23:58Z</time>
      </trkpt>
      <trkpt lat="43.39715" lon="5.46319">
        <ele>457.4</ele>
        <time>2017-09-14T10:24:10Z</time>
      </trkpt>
      <trkpt lat="43.39723" lon="5.46311">
        <ele>459.4</ele>
        <time>2017-09-14T10:24:21Z</time>
      </trkpt>
      <trkpt lat="43.39731" lon="5.46306">
        <ele>460.1</ele>
        <time>2017-09-14T10:24:29Z</time>
      </trkpt>
      <trkpt lat="43.3974" lon="5.46306">
        <ele>460.2</ele>
        <time>2017-09-14T10:24:38Z</time>
      </trkpt>
      <trkpt lat="43.39744" lon="5.46292">
        <ele>460.4</ele>
        <time>2017-09-14T10:24:48Z</time>
      </trkpt>
      <trkpt lat="43.39747" lon="5.46281">
        <ele>461.4</ele>
        <time>2017-09-14T10:24:58Z</time>
      </trkpt>
      <trkpt lat="43.39751" lon="5.46269">
        <ele>462.6</ele>
        <time>2017-09-14T10:25:08Z</time>
      </trkpt>
      <trkpt lat="43.39756" lon="5.46258">
        <ele>464.2</ele>
        <time>2017-09-14T10:25:19Z</time>
      </trkpt>
      <trkpt lat="43.39761" lon="5.46247">
        <ele>465.2</ele>
        <time>2017-09-14T10:25:29Z</time>
      </trkpt>
      <trkpt lat="43.3977" lon="5.46242">
        <ele>466.8</ele>
        <time>2017-09-14T10:25:38Z</time>
      </trkpt>
      <trkpt lat="43.39775" lon="5.4623">
        <ele>468.3</ele>
        <time>2017-09-14T10:25:50Z</time>
      </trkpt>
      <trkpt lat="43.39784" lon="5.46234">
        <ele>468.8</ele>
        <time>2017-09-14T10:25:58Z</time>
      </trkpt>
      <trkpt lat="43.39793" lon="5.46237">
        <ele>471.2</ele>
        <time>2017-09-14T10:26:10Z</time>
      </trkpt>
      <trkpt lat="43.39797" lon="5.46226">
        <ele>475.1</ele>
        <time>2017-09-14T10:26:28Z</time>
      </trkpt>
      <trkpt lat="43.39805" lon="5.46219">
        <ele>477.2</ele>
        <time>2017-09-14T10:26:42Z</time>
      </trkpt>
      <trkpt lat="43.39814" lon="5.46215">
        <ele>477.6</ele>
        <time>2017-09-14T10:26:50Z</time>
      </trkpt>
      <trkpt lat="43.39822" lon="5.46218">
        <ele>479</ele>
        <time>2017-09-14T10:27:01Z</time>
      </trkpt>
      <trkpt lat="43.39831" lon="5.46211">
        <ele>480.4</ele>
        <time>2017-09-14T10:27:13Z</time>
      </trkpt>
      <trkpt lat="43.39838" lon="5.46205">
        <ele>481.6</ele>
        <time>2017-09-14T10:27:25Z</time>
      </trkpt>
      <trkpt lat="43.39846" lon="5.46198">
        <ele>483.1</ele>
        <time>2017-09-14T10:27:37Z</time>
      </trkpt>
      <trkpt lat="43.39855" lon="5.46197">
        <ele>484.5</ele>
        <time>2017-09-14T10:27:48Z</time>
      </trkpt>
      <trkpt lat="43.39864" lon="5.46198">
        <ele>485.7</ele>
        <time>2017-09-14T10:27:57Z</time>
      </trkpt>
      <trkpt lat="43.39875" lon="5.46197">
        <ele>486.6</ele>
        <time>2017-09-14T10:28:09Z</time>
      </trkpt>
      <trkpt lat="43.39884" lon="5.46193">
        <ele>487.2</ele>
        <time>2017-09-14T10:28:20Z</time>
      </trkpt>
      <trkpt lat="43.39893" lon="5.4619">
        <ele>487.8</ele>
        <time>2017-09-14T10:28:31Z</time>
      </trkpt>
      <trkpt lat="43.39902" lon="5.46195">
        <ele>489.6</ele>
        <time>2017-09-14T10:28:41Z</time>
      </trkpt>
      <trkpt lat="43.39909" lon="5.46186">
        <ele>491.4</ele>
        <time>2017-09-14T10:28:51Z</time>
      </trkpt>
      <trkpt lat="43.39918" lon="5.46182">
        <ele>493.4</ele>
        <time>2017-09-14T10:29:04Z</time>
      </trkpt>
      <trkpt lat="43.39926" lon="5.4619">
        <ele>494.5</ele>
        <time>2017-09-14T10:29:12Z</time>
      </trkpt>
      <trkpt lat="43.39932" lon="5.46198">
        <ele>495.8</ele>
        <time>2017-09-14T10:29:23Z</time>
      </trkpt>
      <trkpt lat="43.39936" lon="5.4621">
        <ele>496.3</ele>
        <time>2017-09-14T10:29:30Z</time>
      </trkpt>
      <trkpt lat="43.39943" lon="5.46219">
        <ele>496.3</ele>
        <time>2017-09-14T10:29:38Z</time>
      </trkpt>
      <trkpt lat="43.39952" lon="5.46221">
        <ele>497.3</ele>
        <time>2017-09-14T10:29:50Z</time>
      </trkpt>
      <trkpt lat="43.39961" lon="5.4622">
        <ele>498.7</ele>
        <time>2017-09-14T10:30:00Z</time>
      </trkpt>
      <trkpt lat="43.3997" lon="5.46217">
        <ele>500.2</ele>
        <time>2017-09-14T10:30:10Z</time>
      </trkpt>
      <trkpt lat="43.39979" lon="5.46215">
        <ele>501</ele>
        <time>2017-09-14T10:30:19Z</time>
      </trkpt>
      <trkpt lat="43.39988" lon="5.46218">
        <ele>502.2</ele>
        <time>2017-09-14T10:30:31Z</time>
      </trkpt>
      <trkpt lat="43.39997" lon="5.46222">
        <ele>502.9</ele>
        <time>2017-09-14T10:30:44Z</time>
      </trkpt>
      <trkpt lat="43.40005" lon="5.4623">
        <ele>503.9</ele>
        <time>2017-09-14T10:30:52Z</time>
      </trkpt>
      <trkpt lat="43.40015" lon="5.46231">
        <ele>504.8</ele>
        <time>2017-09-14T10:31:03Z</time>
      </trkpt>
      <trkpt lat="43.40021" lon="5.46221">
        <ele>506.2</ele>
        <time>2017-09-14T10:31:10Z</time>
      </trkpt>
      <trkpt lat="43.40027" lon="5.46212">
        <ele>507.4</ele>
        <time>2017-09-14T10:31:20Z</time>
      </trkpt>
      <trkpt lat="43.40033" lon="5.46202">
        <ele>508.9</ele>
        <time>2017-09-14T10:31:31Z</time>
      </trkpt>
      <trkpt lat="43.40041" lon="5.46196">
        <ele>510.7</ele>
        <time>2017-09-14T10:31:44Z</time>
      </trkpt>
      <trkpt lat="43.4005" lon="5.46196">
        <ele>512.1</ele>
        <time>2017-09-14T10:31:56Z</time>
      </trkpt>
      <trkpt lat="43.4006" lon="5.462">
        <ele>513.4</ele>
        <time>2017-09-14T10:32:05Z</time>
      </trkpt>
      <trkpt lat="43.40067" lon="5.46208">
        <ele>514.5</ele>
        <time>2017-09-14T10:32:15Z</time>
      </trkpt>
      <trkpt lat="43.40076" lon="5.46211">
        <ele>515.1</ele>
        <time>2017-09-14T10:32:29Z</time>
      </trkpt>
      <trkpt lat="43.40083" lon="5.46219">
        <ele>516.9</ele>
        <time>2017-09-14T10:32:38Z</time>
      </trkpt>
      <trkpt lat="43.40086" lon="5.46231">
        <ele>517.9</ele>
        <time>2017-09-14T10:32:48Z</time>
      </trkpt>
      <trkpt lat="43.40091" lon="5.46241">
        <ele>517.9</ele>
        <time>2017-09-14T10:32:56Z</time>
      </trkpt>
      <trkpt lat="43.40099" lon="5.46252">
        <ele>518.5</ele>
        <time>2017-09-14T10:33:03Z</time>
      </trkpt>
      <trkpt lat="43.401" lon="5.46265">
        <ele>519.9</ele>
        <time>2017-09-14T10:33:15Z</time>
      </trkpt>
      <trkpt lat="43.401" lon="5.46278">
        <ele>522.1</ele>
        <time>2017-09-14T10:33:30Z</time>
      </trkpt>
      <trkpt lat="43.40103" lon="5.4629">
        <ele>523.5</ele>
        <time>2017-09-14T10:33:40Z</time>
      </trkpt>
      <trkpt lat="43.40106" lon="5.46302">
        <ele>525</ele>
        <time>2017-09-14T10:33:50Z</time>
      </trkpt>
      <trkpt lat="43.40109" lon="5.46315">
        <ele>526</ele>
        <time>2017-09-14T10:34:00Z</time>
      </trkpt>
      <trkpt lat="43.40116" lon="5.46324">
        <ele>528.2</ele>
        <time>2017-09-14T10:34:11Z</time>
      </trkpt>
      <trkpt lat="43.40125" lon="5.46329">
        <ele>529.6</ele>
        <time>2017-09-14T10:34:21Z</time>
      </trkpt>
      <trkpt lat="43.40135" lon="5.46329">
        <ele>530.9</ele>
        <time>2017-09-14T10:34:31Z</time>
      </trkpt>
      <trkpt lat="43.40144" lon="5.46329">
        <ele>532.2</ele>
        <time>2017-09-14T10:34:43Z</time>
      </trkpt>
      <trkpt lat="43.40153" lon="5.46324">
        <ele>534</ele>
        <time>2017-09-14T10:35:04Z</time>
      </trkpt>
      <trkpt lat="43.40162" lon="5.46322">
        <ele>534.7</ele>
        <time>2017-09-14T10:35:18Z</time>
      </trkpt>
      <trkpt lat="43.40171" lon="5.46318">
        <ele>536.2</ele>
        <time>2017-09-14T10:35:30Z</time>
      </trkpt>
      <trkpt lat="43.40181" lon="5.46318">
        <ele>537.9</ele>
        <time>2017-09-14T10:35:40Z</time>
      </trkpt>
      <trkpt lat="43.4019" lon="5.46322">
        <ele>539.2</ele>
        <time>2017-09-14T10:35:49Z</time>
      </trkpt>
      <trkpt lat="43.402" lon="5.46324">
        <ele>540.3</ele>
        <time>2017-09-14T10:36:00Z</time>
      </trkpt>
      <trkpt lat="43.40207" lon="5.46317">
        <ele>541.4</ele>
        <time>2017-09-14T10:36:09Z</time>
      </trkpt>
      <trkpt lat="43.40215" lon="5.4631">
        <ele>542.8</ele>
        <time>2017-09-14T10:36:21Z</time>
      </trkpt>
      <trkpt lat="43.40224" lon="5.46309">
        <ele>544.7</ele>
        <time>2017-09-14T10:36:34Z</time>
      </trkpt>
      <trkpt lat="43.40234" lon="5.46314">
        <ele>547.6</ele>
        <time>2017-09-14T10:36:49Z</time>
      </trkpt>
      <trkpt lat="43.40243" lon="5.46316">
        <ele>550</ele>
        <time>2017-09-14T10:37:02Z</time>
      </trkpt>
      <trkpt lat="43.40252" lon="5.4632">
        <ele>551.6</ele>
        <time>2017-09-14T10:37:16Z</time>
      </trkpt>
      <trkpt lat="43.40261" lon="5.46323">
        <ele>553.5</ele>
        <time>2017-09-14T10:37:29Z</time>
      </trkpt>
      <trkpt lat="43.4027" lon="5.46319">
        <ele>556.4</ele>
        <time>2017-09-14T10:37:46Z</time>
      </trkpt>
      <trkpt lat="43.40279" lon="5.46324">
        <ele>558.1</ele>
        <time>2017-09-14T10:37:57Z</time>
      </trkpt>
      <trkpt lat="43.40288" lon="5.46321">
        <ele>560.6</ele>
        <time>2017-09-14T10:38:14Z</time>
      </trkpt>
      <trkpt lat="43.40293" lon="5.46311">
        <ele>561.9</ele>
        <time>2017-09-14T10:38:28Z</time>
      </trkpt>
      <trkpt lat="43.40302" lon="5.46313">
        <ele>563.6</ele>
        <time>2017-09-14T10:38:40Z</time>
      </trkpt>
      <trkpt lat="43.40312" lon="5.46314">
        <ele>567.2</ele>
        <time>2017-09-14T10:39:02Z</time>
      </trkpt>
      <trkpt lat="43.40321" lon="5.46317">
        <ele>570.5</ele>
        <time>2017-09-14T10:39:22Z</time>
      </trkpt>
      <trkpt lat="43.40329" lon="5.46324">
        <ele>573.7</ele>
        <time>2017-09-14T10:39:40Z</time>
      </trkpt>
      <trkpt lat="43.40338" lon="5.46324">
        <ele>577.1</ele>
        <time>2017-09-14T10:39:58Z</time>
      </trkpt>
      <trkpt lat="43.40347" lon="5.46326">
        <ele>581.1</ele>
        <time>2017-09-14T10:40:19Z</time>
      </trkpt>
      <trkpt lat="43.4035" lon="5.46314">
        <ele>582.3</ele>
        <time>2017-09-14T10:40:45Z</time>
      </trkpt>
      <trkpt lat="43.40359" lon="5.46318">
        <ele>585.7</ele>
        <time>2017-09-14T10:41:16Z</time>
      </trkpt>
      <trkpt lat="43.40368" lon="5.46318">
        <ele>589.4</ele>
        <time>2017-09-14T10:41:33Z</time>
      </trkpt>
      <trkpt lat="43.40372" lon="5.46307">
        <ele>592</ele>
        <time>2017-09-14T10:41:48Z</time>
      </trkpt>
      <trkpt lat="43.40381" lon="5.46302">
        <ele>595.8</ele>
        <time>2017-09-14T10:42:09Z</time>
      </trkpt>
      <trkpt lat="43.40379" lon="5.46289">
        <ele>597.9</ele>
        <time>2017-09-14T10:42:23Z</time>
      </trkpt>
      <trkpt lat="43.40386" lon="5.46282">
        <ele>600.5</ele>
        <time>2017-09-14T10:42:41Z</time>
      </trkpt>
      <trkpt lat="43.40395" lon="5.46285">
        <ele>603.7</ele>
        <time>2017-09-14T10:43:00Z</time>
      </trkpt>
      <trkpt lat="43.40402" lon="5.46294">
        <ele>606.3</ele>
        <time>2017-09-14T10:43:16Z</time>
      </trkpt>
      <trkpt lat="43.40411" lon="5.46295">
        <ele>611.1</ele>
        <time>2017-09-14T10:43:44Z</time>
      </trkpt>
      <trkpt lat="43.4042" lon="5.46292">
        <ele>615.3</ele>
        <time>2017-09-14T10:44:06Z</time>
      </trkpt>
      <trkpt lat="43.40429" lon="5.46295">
        <ele>622.7</ele>
        <time>2017-09-14T10:44:45Z</time>
      </trkpt>
      <trkpt lat="43.40438" lon="5.463">
        <ele>627.7</ele>
        <time>2017-09-14T10:45:20Z</time>
      </trkpt>
      <trkpt lat="43.40447" lon="5.46298">
        <ele>631.7</ele>
        <time>2017-09-14T10:45:41Z</time>
      </trkpt>
      <trkpt lat="43.40442" lon="5.46287">
        <ele>632.6</ele>
        <time>2017-09-14T10:46:39Z</time>
      </trkpt>
      <trkpt lat="43.40452" lon="5.46286">
        <ele>635.7</ele>
        <time>2017-09-14T10:46:56Z</time>
      </trkpt>
      <trkpt lat="43.40461" lon="5.46291">
        <ele>639.6</ele>
        <time>2017-09-14T10:47:15Z</time>
      </trkpt>
      <trkpt lat="43.40469" lon="5.46284">
        <ele>643.8</ele>
        <time>2017-09-14T10:47:46Z</time>
      </trkpt>
      <trkpt lat="43.40478" lon="5.46283">
        <ele>650</ele>
        <time>2017-09-14T10:48:30Z</time>
      </trkpt>
      <trkpt lat="43.40487" lon="5.46281">
        <ele>655.6</ele>
        <time>2017-09-14T10:49:00Z</time>
      </trkpt>
      <trkpt lat="43.40491" lon="5.4627">
        <ele>659.6</ele>
        <time>2017-09-14T10:49:21Z</time>
      </trkpt>
      <trkpt lat="43.40497" lon="5.46279">
        <ele>662.4</ele>
        <time>2017-09-14T10:49:48Z</time>
      </trkpt>
      <trkpt lat="43.40506" lon="5.46277">
        <ele>669.4</ele>
        <time>2017-09-14T10:50:25Z</time>
      </trkpt>
      <trkpt lat="43.40515" lon="5.46277">
        <ele>676</ele>
        <time>2017-09-14T10:51:16Z</time>
      </trkpt>
      <trkpt lat="43.40522" lon="5.46286">
        <ele>679.9</ele>
        <time>2017-09-14T10:51:56Z</time>
      </trkpt>
      <trkpt lat="43.40531" lon="5.46283">
        <ele>685</ele>
        <time>2017-09-14T10:52:16Z</time>
      </trkpt>
      <trkpt lat="43.40524" lon="5.4629">
        <ele>686</ele>
        <time>2017-09-14T10:52:31Z</time>
      </trkpt>
      <trkpt lat="43.40521" lon="5.46303">
        <ele>684.1</ele>
        <time>2017-09-14T10:52:42Z</time>
      </trkpt>
      <trkpt lat="43.4052" lon="5.46315">
        <ele>685.2</ele>
        <time>2017-09-14T10:53:26Z</time>
      </trkpt>
      <trkpt lat="43.40514" lon="5.46307">
        <ele>686.1</ele>
        <time>2017-09-14T11:09:40Z</time>
      </trkpt>
      <trkpt lat="43.40519" lon="5.46318">
        <ele>687.6</ele>
        <time>2017-09-14T11:13:52Z</time>
      </trkpt>
      <trkpt lat="43.40523" lon="5.46329">
        <ele>687.5</ele>
        <time>2017-09-14T11:14:15Z</time>
      </trkpt>
      <trkpt lat="43.40521" lon="5.46317">
        <ele>687.8</ele>
        <time>2017-09-14T11:16:17Z</time>
      </trkpt>
      <trkpt lat="43.40525" lon="5.46305">
        <ele>686.3</ele>
        <time>2017-09-14T11:18:37Z</time>
      </trkpt>
      <trkpt lat="43.40523" lon="5.46292">
        <ele>685.6</ele>
        <time>2017-09-14T11:18:54Z</time>
      </trkpt>
      <trkpt lat="43.40522" lon="5.46291">
        <ele>685.9</ele>
        <time>2017-09-14T11:19:00Z</time>
      </trkpt>
      <trkpt lat="43.40523" lon="5.46304">
        <ele>686</ele>
        <time>2017-09-14T11:21:09Z</time>
      </trkpt>
      <trkpt lat="43.40524" lon="5.46317">
        <ele>686.6</ele>
        <time>2017-09-14T11:21:21Z</time>
      </trkpt>
      <trkpt lat="43.40523" lon="5.4633">
        <ele>687</ele>
        <time>2017-09-14T11:21:34Z</time>
      </trkpt>
      <trkpt lat="43.40526" lon="5.46342">
        <ele>686.3</ele>
        <time>2017-09-14T11:21:53Z</time>
      </trkpt>
      <trkpt lat="43.40524" lon="5.46355">
        <ele>682.5</ele>
        <time>2017-09-14T11:22:18Z</time>
      </trkpt>
      <trkpt lat="43.40528" lon="5.46367">
        <ele>681.2</ele>
        <time>2017-09-14T11:22:28Z</time>
      </trkpt>
      <trkpt lat="43.40531" lon="5.46379">
        <ele>679.9</ele>
        <time>2017-09-14T11:22:41Z</time>
      </trkpt>
      <trkpt lat="43.40529" lon="5.46392">
        <ele>677.9</ele>
        <time>2017-09-14T11:23:01Z</time>
      </trkpt>
      <trkpt lat="43.40532" lon="5.46404">
        <ele>679.4</ele>
        <time>2017-09-14T11:23:13Z</time>
      </trkpt>
      <trkpt lat="43.40537" lon="5.46414">
        <ele>682</ele>
        <time>2017-09-14T11:23:28Z</time>
      </trkpt>
      <trkpt lat="43.4054" lon="5.46403">
        <ele>682.5</ele>
        <time>2017-09-14T11:23:54Z</time>
      </trkpt>
      <trkpt lat="43.40538" lon="5.46391">
        <ele>684.1</ele>
        <time>2017-09-14T11:24:09Z</time>
      </trkpt>
      <trkpt lat="43.4054" lon="5.46403">
        <ele>683.2</ele>
        <time>2017-09-14T11:24:55Z</time>
      </trkpt>
      <trkpt lat="43.4054" lon="5.46416">
        <ele>682.6</ele>
        <time>2017-09-14T11:25:07Z</time>
      </trkpt>
      <trkpt lat="43.40535" lon="5.46427">
        <ele>682.1</ele>
        <time>2017-09-14T11:25:26Z</time>
      </trkpt>
      <trkpt lat="43.40533" lon="5.46439">
        <ele>683.3</ele>
        <time>2017-09-14T11:25:37Z</time>
      </trkpt>
      <trkpt lat="43.40531" lon="5.46451">
        <ele>684.8</ele>
        <time>2017-09-14T11:25:52Z</time>
      </trkpt>
      <trkpt lat="43.40533" lon="5.46463">
        <ele>685.8</ele>
        <time>2017-09-14T11:26:10Z</time>
      </trkpt>
      <trkpt lat="43.4053" lon="5.4645">
        <ele>685.1</ele>
        <time>2017-09-14T11:26:33Z</time>
      </trkpt>
      <trkpt lat="43.40529" lon="5.46438">
        <ele>683.1</ele>
        <time>2017-09-14T11:27:11Z</time>
      </trkpt>
      <trkpt lat="43.40521" lon="5.46445">
        <ele>680.2</ele>
        <time>2017-09-14T11:27:32Z</time>
      </trkpt>
      <trkpt lat="43.40516" lon="5.46457">
        <ele>679.5</ele>
        <time>2017-09-14T11:27:43Z</time>
      </trkpt>
      <trkpt lat="43.40515" lon="5.4647">
        <ele>681.5</ele>
        <time>2017-09-14T11:27:59Z</time>
      </trkpt>
      <trkpt lat="43.40518" lon="5.46482">
        <ele>682.9</ele>
        <time>2017-09-14T11:28:10Z</time>
      </trkpt>
      <trkpt lat="43.40523" lon="5.46493">
        <ele>684.1</ele>
        <time>2017-09-14T11:28:21Z</time>
      </trkpt>
      <trkpt lat="43.40524" lon="5.46506">
        <ele>683.8</ele>
        <time>2017-09-14T11:28:33Z</time>
      </trkpt>
      <trkpt lat="43.40526" lon="5.46518">
        <ele>681.5</ele>
        <time>2017-09-14T11:28:46Z</time>
      </trkpt>
      <trkpt lat="43.40528" lon="5.46531">
        <ele>679.4</ele>
        <time>2017-09-14T11:28:57Z</time>
      </trkpt>
      <trkpt lat="43.40533" lon="5.46541">
        <ele>678.1</ele>
        <time>2017-09-14T11:29:07Z</time>
      </trkpt>
      <trkpt lat="43.40536" lon="5.46553">
        <ele>678.1</ele>
        <time>2017-09-14T11:29:18Z</time>
      </trkpt>
      <trkpt lat="43.40537" lon="5.46567">
        <ele>677.4</ele>
        <time>2017-09-14T11:29:30Z</time>
      </trkpt>
      <trkpt lat="43.40538" lon="5.46579">
        <ele>676.7</ele>
        <time>2017-09-14T11:29:39Z</time>
      </trkpt>
      <trkpt lat="43.40542" lon="5.46591">
        <ele>677.1</ele>
        <time>2017-09-14T11:30:04Z</time>
      </trkpt>
      <trkpt lat="43.40541" lon="5.46604">
        <ele>676.5</ele>
        <time>2017-09-14T11:30:13Z</time>
      </trkpt>
      <trkpt lat="43.4054" lon="5.46616">
        <ele>674.7</ele>
        <time>2017-09-14T11:30:25Z</time>
      </trkpt>
      <trkpt lat="43.40536" lon="5.46628">
        <ele>674.7</ele>
        <time>2017-09-14T11:30:34Z</time>
      </trkpt>
      <trkpt lat="43.40532" lon="5.46639">
        <ele>675.1</ele>
        <time>2017-09-14T11:30:41Z</time>
      </trkpt>
      <trkpt lat="43.40527" lon="5.4665">
        <ele>675.9</ele>
        <time>2017-09-14T11:30:53Z</time>
      </trkpt>
      <trkpt lat="43.40521" lon="5.46659">
        <ele>678.6</ele>
        <time>2017-09-14T11:31:05Z</time>
      </trkpt>
      <trkpt lat="43.40515" lon="5.4667">
        <ele>681.4</ele>
        <time>2017-09-14T11:31:20Z</time>
      </trkpt>
      <trkpt lat="43.4051" lon="5.46682">
        <ele>684.8</ele>
        <time>2017-09-14T11:31:36Z</time>
      </trkpt>
      <trkpt lat="43.40506" lon="5.46693">
        <ele>685.1</ele>
        <time>2017-09-14T11:31:48Z</time>
      </trkpt>
      <trkpt lat="43.40499" lon="5.46702">
        <ele>683.6</ele>
        <time>2017-09-14T11:32:01Z</time>
      </trkpt>
      <trkpt lat="43.40493" lon="5.46712">
        <ele>682.7</ele>
        <time>2017-09-14T11:32:11Z</time>
      </trkpt>
      <trkpt lat="43.4049" lon="5.46724">
        <ele>683.5</ele>
        <time>2017-09-14T11:32:23Z</time>
      </trkpt>
      <trkpt lat="43.40497" lon="5.46731">
        <ele>685.7</ele>
        <time>2017-09-14T11:32:50Z</time>
      </trkpt>
      <trkpt lat="43.4049" lon="5.46725">
        <ele>684.1</ele>
        <time>2017-09-14T11:33:03Z</time>
      </trkpt>
      <trkpt lat="43.4048" lon="5.4673">
        <ele>681.6</ele>
        <time>2017-09-14T11:33:18Z</time>
      </trkpt>
      <trkpt lat="43.40474" lon="5.46739">
        <ele>681.3</ele>
        <time>2017-09-14T11:33:28Z</time>
      </trkpt>
      <trkpt lat="43.40478" lon="5.4675">
        <ele>684.1</ele>
        <time>2017-09-14T11:33:42Z</time>
      </trkpt>
      <trkpt lat="43.40476" lon="5.46763">
        <ele>687.8</ele>
        <time>2017-09-14T11:33:59Z</time>
      </trkpt>
      <trkpt lat="43.40478" lon="5.46775">
        <ele>692</ele>
        <time>2017-09-14T11:34:18Z</time>
      </trkpt>
      <trkpt lat="43.40473" lon="5.46787">
        <ele>694.4</ele>
        <time>2017-09-14T11:34:36Z</time>
      </trkpt>
      <trkpt lat="43.40466" lon="5.46796">
        <ele>695.6</ele>
        <time>2017-09-14T11:34:48Z</time>
      </trkpt>
      <trkpt lat="43.40464" lon="5.46808">
        <ele>697.7</ele>
        <time>2017-09-14T11:35:07Z</time>
      </trkpt>
      <trkpt lat="43.40456" lon="5.46802">
        <ele>699.4</ele>
        <time>2017-09-14T11:35:35Z</time>
      </trkpt>
      <trkpt lat="43.40464" lon="5.46809">
        <ele>700.2</ele>
        <time>2017-09-14T11:36:09Z</time>
      </trkpt>
      <trkpt lat="43.40469" lon="5.46798">
        <ele>697.8</ele>
        <time>2017-09-14T11:36:22Z</time>
      </trkpt>
      <trkpt lat="43.40471" lon="5.46786">
        <ele>696.1</ele>
        <time>2017-09-14T11:36:33Z</time>
      </trkpt>
      <trkpt lat="43.40477" lon="5.46776">
        <ele>694.5</ele>
        <time>2017-09-14T11:36:44Z</time>
      </trkpt>
      <trkpt lat="43.40479" lon="5.46764">
        <ele>691.7</ele>
        <time>2017-09-14T11:36:55Z</time>
      </trkpt>
      <trkpt lat="43.40475" lon="5.46752">
        <ele>688</ele>
        <time>2017-09-14T11:37:14Z</time>
      </trkpt>
      <trkpt lat="43.40472" lon="5.4674">
        <ele>685.5</ele>
        <time>2017-09-14T11:37:27Z</time>
      </trkpt>
      <trkpt lat="43.40482" lon="5.46738">
        <ele>681.9</ele>
        <time>2017-09-14T11:37:44Z</time>
      </trkpt>
      <trkpt lat="43.40491" lon="5.46734">
        <ele>683.1</ele>
        <time>2017-09-14T11:37:56Z</time>
      </trkpt>
      <trkpt lat="43.40493" lon="5.4672">
        <ele>683.8</ele>
        <time>2017-09-14T11:38:06Z</time>
      </trkpt>
      <trkpt lat="43.40496" lon="5.46708">
        <ele>682.6</ele>
        <time>2017-09-14T11:38:14Z</time>
      </trkpt>
      <trkpt lat="43.40501" lon="5.46697">
        <ele>683.7</ele>
        <time>2017-09-14T11:38:26Z</time>
      </trkpt>
      <trkpt lat="43.40508" lon="5.46689">
        <ele>685.3</ele>
        <time>2017-09-14T11:38:36Z</time>
      </trkpt>
      <trkpt lat="43.40513" lon="5.46678">
        <ele>685.6</ele>
        <time>2017-09-14T11:38:45Z</time>
      </trkpt>
      <trkpt lat="43.4052" lon="5.46669">
        <ele>683.2</ele>
        <time>2017-09-14T11:38:57Z</time>
      </trkpt>
      <trkpt lat="43.40522" lon="5.46657">
        <ele>681.2</ele>
        <time>2017-09-14T11:39:19Z</time>
      </trkpt>
      <trkpt lat="43.4053" lon="5.4665">
        <ele>679.1</ele>
        <time>2017-09-14T11:39:34Z</time>
      </trkpt>
      <trkpt lat="43.40535" lon="5.46639">
        <ele>677.3</ele>
        <time>2017-09-14T11:39:44Z</time>
      </trkpt>
      <trkpt lat="43.40537" lon="5.46626">
        <ele>675.9</ele>
        <time>2017-09-14T11:39:54Z</time>
      </trkpt>
      <trkpt lat="43.40538" lon="5.46613">
        <ele>675.7</ele>
        <time>2017-09-14T11:40:03Z</time>
      </trkpt>
      <trkpt lat="43.40538" lon="5.466">
        <ele>676.6</ele>
        <time>2017-09-14T11:40:11Z</time>
      </trkpt>
      <trkpt lat="43.40541" lon="5.46587">
        <ele>677.7</ele>
        <time>2017-09-14T11:40:20Z</time>
      </trkpt>
      <trkpt lat="43.40547" lon="5.46597">
        <ele>675.6</ele>
        <time>2017-09-14T11:40:37Z</time>
      </trkpt>
      <trkpt lat="43.40549" lon="5.4661">
        <ele>674.1</ele>
        <time>2017-09-14T11:40:46Z</time>
      </trkpt>
      <trkpt lat="43.40548" lon="5.46623">
        <ele>671.8</ele>
        <time>2017-09-14T11:40:57Z</time>
      </trkpt>
      <trkpt lat="43.40548" lon="5.46636">
        <ele>670.2</ele>
        <time>2017-09-14T11:41:06Z</time>
      </trkpt>
      <trkpt lat="43.40549" lon="5.46648">
        <ele>668.2</ele>
        <time>2017-09-14T11:41:18Z</time>
      </trkpt>
      <trkpt lat="43.40548" lon="5.46661">
        <ele>665.8</ele>
        <time>2017-09-14T11:41:29Z</time>
      </trkpt>
      <trkpt lat="43.40546" lon="5.46674">
        <ele>664</ele>
        <time>2017-09-14T11:41:39Z</time>
      </trkpt>
      <trkpt lat="43.40548" lon="5.46687">
        <ele>662.5</ele>
        <time>2017-09-14T11:41:50Z</time>
      </trkpt>
      <trkpt lat="43.40551" lon="5.46699">
        <ele>661</ele>
        <time>2017-09-14T11:42:00Z</time>
      </trkpt>
      <trkpt lat="43.40556" lon="5.46709">
        <ele>659.7</ele>
        <time>2017-09-14T11:42:08Z</time>
      </trkpt>
      <trkpt lat="43.40561" lon="5.4672">
        <ele>658.9</ele>
        <time>2017-09-14T11:42:16Z</time>
      </trkpt>
      <trkpt lat="43.40562" lon="5.46733">
        <ele>658.9</ele>
        <time>2017-09-14T11:42:26Z</time>
      </trkpt>
      <trkpt lat="43.40561" lon="5.46747">
        <ele>660.7</ele>
        <time>2017-09-14T11:42:39Z</time>
      </trkpt>
      <trkpt lat="43.40565" lon="5.46759">
        <ele>660.4</ele>
        <time>2017-09-14T11:42:49Z</time>
      </trkpt>
      <trkpt lat="43.40565" lon="5.46772">
        <ele>660.6</ele>
        <time>2017-09-14T11:42:58Z</time>
      </trkpt>
      <trkpt lat="43.40571" lon="5.46781">
        <ele>659.5</ele>
        <time>2017-09-14T11:43:07Z</time>
      </trkpt>
      <trkpt lat="43.40576" lon="5.46792">
        <ele>659</ele>
        <time>2017-09-14T11:43:16Z</time>
      </trkpt>
      <trkpt lat="43.40578" lon="5.46804">
        <ele>660.1</ele>
        <time>2017-09-14T11:43:26Z</time>
      </trkpt>
      <trkpt lat="43.40575" lon="5.46815">
        <ele>658.9</ele>
        <time>2017-09-14T11:44:03Z</time>
      </trkpt>
      <trkpt lat="43.40579" lon="5.46827">
        <ele>653.6</ele>
        <time>2017-09-14T11:44:29Z</time>
      </trkpt>
      <trkpt lat="43.40572" lon="5.46837">
        <ele>649.3</ele>
        <time>2017-09-14T11:44:55Z</time>
      </trkpt>
      <trkpt lat="43.40563" lon="5.4684">
        <ele>649.6</ele>
        <time>2017-09-14T11:45:03Z</time>
      </trkpt>
      <trkpt lat="43.40556" lon="5.46847">
        <ele>650.1</ele>
        <time>2017-09-14T11:45:12Z</time>
      </trkpt>
      <trkpt lat="43.4055" lon="5.46858">
        <ele>649.9</ele>
        <time>2017-09-14T11:45:21Z</time>
      </trkpt>
      <trkpt lat="43.40545" lon="5.4687">
        <ele>650.7</ele>
        <time>2017-09-14T11:45:29Z</time>
      </trkpt>
      <trkpt lat="43.40544" lon="5.46883">
        <ele>650.8</ele>
        <time>2017-09-14T11:45:37Z</time>
      </trkpt>
      <trkpt lat="43.40542" lon="5.46897">
        <ele>650.7</ele>
        <time>2017-09-14T11:45:46Z</time>
      </trkpt>
      <trkpt lat="43.4054" lon="5.4691">
        <ele>650.4</ele>
        <time>2017-09-14T11:45:54Z</time>
      </trkpt>
      <trkpt lat="43.40536" lon="5.46922">
        <ele>650.5</ele>
        <time>2017-09-14T11:46:02Z</time>
      </trkpt>
      <trkpt lat="43.40531" lon="5.46933">
        <ele>650.8</ele>
        <time>2017-09-14T11:46:11Z</time>
      </trkpt>
      <trkpt lat="43.40524" lon="5.4694">
        <ele>651.4</ele>
        <time>2017-09-14T11:46:19Z</time>
      </trkpt>
      <trkpt lat="43.40516" lon="5.46948">
        <ele>652.9</ele>
        <time>2017-09-14T11:46:29Z</time>
      </trkpt>
      <trkpt lat="43.40511" lon="5.46959">
        <ele>653.3</ele>
        <time>2017-09-14T11:46:38Z</time>
      </trkpt>
      <trkpt lat="43.40505" lon="5.46969">
        <ele>654.2</ele>
        <time>2017-09-14T11:46:45Z</time>
      </trkpt>
      <trkpt lat="43.405" lon="5.46981">
        <ele>654.6</ele>
        <time>2017-09-14T11:46:53Z</time>
      </trkpt>
      <trkpt lat="43.40496" lon="5.46992">
        <ele>655.3</ele>
        <time>2017-09-14T11:47:01Z</time>
      </trkpt>
      <trkpt lat="43.4049" lon="5.47002">
        <ele>656.5</ele>
        <time>2017-09-14T11:47:10Z</time>
      </trkpt>
      <trkpt lat="43.40486" lon="5.47015">
        <ele>656.5</ele>
        <time>2017-09-14T11:47:19Z</time>
      </trkpt>
      <trkpt lat="43.40482" lon="5.47026">
        <ele>656</ele>
        <time>2017-09-14T11:47:29Z</time>
      </trkpt>
      <trkpt lat="43.4048" lon="5.47039">
        <ele>654.3</ele>
        <time>2017-09-14T11:47:40Z</time>
      </trkpt>
      <trkpt lat="43.40476" lon="5.47051">
        <ele>652.6</ele>
        <time>2017-09-14T11:47:50Z</time>
      </trkpt>
      <trkpt lat="43.4047" lon="5.47062">
        <ele>651</ele>
        <time>2017-09-14T11:47:59Z</time>
      </trkpt>
      <trkpt lat="43.40466" lon="5.47074">
        <ele>649.4</ele>
        <time>2017-09-14T11:48:08Z</time>
      </trkpt>
      <trkpt lat="43.40461" lon="5.47085">
        <ele>648.6</ele>
        <time>2017-09-14T11:48:17Z</time>
      </trkpt>
      <trkpt lat="43.40455" lon="5.47095">
        <ele>647</ele>
        <time>2017-09-14T11:48:28Z</time>
      </trkpt>
      <trkpt lat="43.40446" lon="5.471">
        <ele>644.4</ele>
        <time>2017-09-14T11:48:39Z</time>
      </trkpt>
      <trkpt lat="43.40437" lon="5.47106">
        <ele>642.9</ele>
        <time>2017-09-14T11:48:48Z</time>
      </trkpt>
      <trkpt lat="43.40428" lon="5.47112">
        <ele>641.2</ele>
        <time>2017-09-14T11:48:56Z</time>
      </trkpt>
      <trkpt lat="43.4042" lon="5.47119">
        <ele>640.1</ele>
        <time>2017-09-14T11:49:04Z</time>
      </trkpt>
      <trkpt lat="43.40413" lon="5.47128">
        <ele>639.6</ele>
        <time>2017-09-14T11:49:13Z</time>
      </trkpt>
      <trkpt lat="43.40406" lon="5.47135">
        <ele>638.7</ele>
        <time>2017-09-14T11:49:23Z</time>
      </trkpt>
      <trkpt lat="43.40406" lon="5.47147">
        <ele>640.6</ele>
        <time>2017-09-14T11:49:59Z</time>
      </trkpt>
      <trkpt lat="43.40409" lon="5.47135">
        <ele>639.8</ele>
        <time>2017-09-14T11:50:29Z</time>
      </trkpt>
      <trkpt lat="43.40416" lon="5.47125">
        <ele>639.4</ele>
        <time>2017-09-14T11:50:52Z</time>
      </trkpt>
      <trkpt lat="43.40423" lon="5.47118">
        <ele>638.9</ele>
        <time>2017-09-14T11:51:00Z</time>
      </trkpt>
      <trkpt lat="43.40431" lon="5.4711">
        <ele>638.7</ele>
        <time>2017-09-14T11:51:09Z</time>
      </trkpt>
      <trkpt lat="43.40439" lon="5.47104">
        <ele>640.2</ele>
        <time>2017-09-14T11:51:18Z</time>
      </trkpt>
      <trkpt lat="43.40447" lon="5.47098">
        <ele>643</ele>
        <time>2017-09-14T11:51:27Z</time>
      </trkpt>
      <trkpt lat="43.40456" lon="5.47094">
        <ele>645.2</ele>
        <time>2017-09-14T11:51:37Z</time>
      </trkpt>
      <trkpt lat="43.40463" lon="5.47087">
        <ele>647</ele>
        <time>2017-09-14T11:51:45Z</time>
      </trkpt>
      <trkpt lat="43.40469" lon="5.47077">
        <ele>648.1</ele>
        <time>2017-09-14T11:51:53Z</time>
      </trkpt>
      <trkpt lat="43.40473" lon="5.47066">
        <ele>649.5</ele>
        <time>2017-09-14T11:52:02Z</time>
      </trkpt>
      <trkpt lat="43.40476" lon="5.47054">
        <ele>650.8</ele>
        <time>2017-09-14T11:52:13Z</time>
      </trkpt>
      <trkpt lat="43.40481" lon="5.47042">
        <ele>653.3</ele>
        <time>2017-09-14T11:52:27Z</time>
      </trkpt>
      <trkpt lat="43.40484" lon="5.47029">
        <ele>655.5</ele>
        <time>2017-09-14T11:52:38Z</time>
      </trkpt>
      <trkpt lat="43.40489" lon="5.47017">
        <ele>657</ele>
        <time>2017-09-14T11:52:47Z</time>
      </trkpt>
      <trkpt lat="43.40493" lon="5.47005">
        <ele>657.4</ele>
        <time>2017-09-14T11:52:55Z</time>
      </trkpt>
      <trkpt lat="43.40499" lon="5.46995">
        <ele>656.9</ele>
        <time>2017-09-14T11:53:03Z</time>
      </trkpt>
      <trkpt lat="43.40503" lon="5.46983">
        <ele>655.9</ele>
        <time>2017-09-14T11:53:11Z</time>
      </trkpt>
      <trkpt lat="43.40507" lon="5.46971">
        <ele>655.4</ele>
        <time>2017-09-14T11:53:19Z</time>
      </trkpt>
      <trkpt lat="43.40511" lon="5.46958">
        <ele>654.2</ele>
        <time>2017-09-14T11:53:27Z</time>
      </trkpt>
      <trkpt lat="43.40515" lon="5.46947">
        <ele>653.6</ele>
        <time>2017-09-14T11:53:35Z</time>
      </trkpt>
      <trkpt lat="43.40522" lon="5.46938">
        <ele>652.3</ele>
        <time>2017-09-14T11:53:44Z</time>
      </trkpt>
      <trkpt lat="43.40531" lon="5.46942">
        <ele>651.5</ele>
        <time>2017-09-14T11:53:51Z</time>
      </trkpt>
      <trkpt lat="43.40524" lon="5.46953">
        <ele>650.8</ele>
        <time>2017-09-14T11:53:59Z</time>
      </trkpt>
      <trkpt lat="43.4052" lon="5.46964">
        <ele>649.9</ele>
        <time>2017-09-14T11:54:06Z</time>
      </trkpt>
      <trkpt lat="43.40516" lon="5.46976">
        <ele>649.7</ele>
        <time>2017-09-14T11:54:14Z</time>
      </trkpt>
      <trkpt lat="43.40516" lon="5.46989">
        <ele>649.1</ele>
        <time>2017-09-14T11:54:23Z</time>
      </trkpt>
      <trkpt lat="43.40518" lon="5.47002">
        <ele>648.2</ele>
        <time>2017-09-14T11:54:32Z</time>
      </trkpt>
      <trkpt lat="43.4052" lon="5.47014">
        <ele>647.8</ele>
        <time>2017-09-14T11:54:39Z</time>
      </trkpt>
      <trkpt lat="43.40523" lon="5.47027">
        <ele>646.1</ele>
        <time>2017-09-14T11:54:48Z</time>
      </trkpt>
      <trkpt lat="43.40523" lon="5.47039">
        <ele>646</ele>
        <time>2017-09-14T11:54:56Z</time>
      </trkpt>
      <trkpt lat="43.4052" lon="5.47051">
        <ele>645.3</ele>
        <time>2017-09-14T11:55:03Z</time>
      </trkpt>
      <trkpt lat="43.40517" lon="5.47064">
        <ele>644.1</ele>
        <time>2017-09-14T11:55:11Z</time>
      </trkpt>
      <trkpt lat="43.40509" lon="5.47072">
        <ele>643.5</ele>
        <time>2017-09-14T11:55:18Z</time>
      </trkpt>
      <trkpt lat="43.40507" lon="5.47085">
        <ele>642.2</ele>
        <time>2017-09-14T11:55:26Z</time>
      </trkpt>
      <trkpt lat="43.40503" lon="5.47097">
        <ele>641.7</ele>
        <time>2017-09-14T11:55:33Z</time>
      </trkpt>
      <trkpt lat="43.405" lon="5.47109">
        <ele>641</ele>
        <time>2017-09-14T11:55:41Z</time>
      </trkpt>
      <trkpt lat="43.40498" lon="5.47122">
        <ele>640.4</ele>
        <time>2017-09-14T11:55:48Z</time>
      </trkpt>
      <trkpt lat="43.40491" lon="5.47131">
        <ele>639.9</ele>
        <time>2017-09-14T11:55:56Z</time>
      </trkpt>
      <trkpt lat="43.40482" lon="5.47136">
        <ele>639</ele>
        <time>2017-09-14T11:56:03Z</time>
      </trkpt>
      <trkpt lat="43.40473" lon="5.47139">
        <ele>637.6</ele>
        <time>2017-09-14T11:56:12Z</time>
      </trkpt>
      <trkpt lat="43.40464" lon="5.47143">
        <ele>636.8</ele>
        <time>2017-09-14T11:56:19Z</time>
      </trkpt>
      <trkpt lat="43.40455" lon="5.47144">
        <ele>635.8</ele>
        <time>2017-09-14T11:56:26Z</time>
      </trkpt>
      <trkpt lat="43.40446" lon="5.47146">
        <ele>635.4</ele>
        <time>2017-09-14T11:56:34Z</time>
      </trkpt>
      <trkpt lat="43.40439" lon="5.47154">
        <ele>634.5</ele>
        <time>2017-09-14T11:56:42Z</time>
      </trkpt>
      <trkpt lat="43.40434" lon="5.47167">
        <ele>633.5</ele>
        <time>2017-09-14T11:56:50Z</time>
      </trkpt>
      <trkpt lat="43.40429" lon="5.47178">
        <ele>633</ele>
        <time>2017-09-14T11:56:58Z</time>
      </trkpt>
      <trkpt lat="43.40423" lon="5.47188">
        <ele>632.6</ele>
        <time>2017-09-14T11:57:05Z</time>
      </trkpt>
      <trkpt lat="43.40417" lon="5.47198">
        <ele>632.5</ele>
        <time>2017-09-14T11:57:13Z</time>
      </trkpt>
      <trkpt lat="43.40414" lon="5.4721">
        <ele>632.3</ele>
        <time>2017-09-14T11:57:21Z</time>
      </trkpt>
      <trkpt lat="43.40419" lon="5.47222">
        <ele>632.3</ele>
        <time>2017-09-14T11:57:28Z</time>
      </trkpt>
      <trkpt lat="43.40422" lon="5.47234">
        <ele>631.9</ele>
        <time>2017-09-14T11:57:35Z</time>
      </trkpt>
      <trkpt lat="43.40428" lon="5.47244">
        <ele>631.4</ele>
        <time>2017-09-14T11:57:42Z</time>
      </trkpt>
      <trkpt lat="43.40433" lon="5.47256">
        <ele>630.9</ele>
        <time>2017-09-14T11:57:49Z</time>
      </trkpt>
      <trkpt lat="43.40438" lon="5.47267">
        <ele>630.6</ele>
        <time>2017-09-14T11:57:57Z</time>
      </trkpt>
      <trkpt lat="43.40444" lon="5.47277">
        <ele>630.7</ele>
        <time>2017-09-14T11:58:04Z</time>
      </trkpt>
      <trkpt lat="43.40448" lon="5.47288">
        <ele>630.8</ele>
        <time>2017-09-14T11:58:12Z</time>
      </trkpt>
      <trkpt lat="43.40451" lon="5.473">
        <ele>631.2</ele>
        <time>2017-09-14T11:58:20Z</time>
      </trkpt>
      <trkpt lat="43.40454" lon="5.47313">
        <ele>631.1</ele>
        <time>2017-09-14T11:58:28Z</time>
      </trkpt>
      <trkpt lat="43.40455" lon="5.47325">
        <ele>630.8</ele>
        <time>2017-09-14T11:58:36Z</time>
      </trkpt>
      <trkpt lat="43.4046" lon="5.47336">
        <ele>631.6</ele>
        <time>2017-09-14T11:58:44Z</time>
      </trkpt>
      <trkpt lat="43.40465" lon="5.47346">
        <ele>632.2</ele>
        <time>2017-09-14T11:58:52Z</time>
      </trkpt>
      <trkpt lat="43.4047" lon="5.47359">
        <ele>632.6</ele>
        <time>2017-09-14T11:59:01Z</time>
      </trkpt>
      <trkpt lat="43.40473" lon="5.47372">
        <ele>633.4</ele>
        <time>2017-09-14T11:59:11Z</time>
      </trkpt>
      <trkpt lat="43.40475" lon="5.47385">
        <ele>632.9</ele>
        <time>2017-09-14T11:59:19Z</time>
      </trkpt>
      <trkpt lat="43.40476" lon="5.47397">
        <ele>632.8</ele>
        <time>2017-09-14T11:59:27Z</time>
      </trkpt>
      <trkpt lat="43.40479" lon="5.47409">
        <ele>632.9</ele>
        <time>2017-09-14T11:59:34Z</time>
      </trkpt>
      <trkpt lat="43.40485" lon="5.47419">
        <ele>632.7</ele>
        <time>2017-09-14T11:59:42Z</time>
      </trkpt>
      <trkpt lat="43.40494" lon="5.47424">
        <ele>632.7</ele>
        <time>2017-09-14T11:59:49Z</time>
      </trkpt>
      <trkpt lat="43.405" lon="5.47434">
        <ele>632.7</ele>
        <time>2017-09-14T11:59:58Z</time>
      </trkpt>
      <trkpt lat="43.40502" lon="5.47446">
        <ele>632.2</ele>
        <time>2017-09-14T12:00:06Z</time>
      </trkpt>
      <trkpt lat="43.405" lon="5.4746">
        <ele>631.1</ele>
        <time>2017-09-14T12:00:15Z</time>
      </trkpt>
      <trkpt lat="43.40496" lon="5.47473">
        <ele>630.1</ele>
        <time>2017-09-14T12:00:24Z</time>
      </trkpt>
      <trkpt lat="43.40497" lon="5.47486">
        <ele>629.5</ele>
        <time>2017-09-14T12:00:40Z</time>
      </trkpt>
      <trkpt lat="43.405" lon="5.47497">
        <ele>629.3</ele>
        <time>2017-09-14T12:00:48Z</time>
      </trkpt>
      <trkpt lat="43.40505" lon="5.47508">
        <ele>628.9</ele>
        <time>2017-09-14T12:00:57Z</time>
      </trkpt>
      <trkpt lat="43.40509" lon="5.47521">
        <ele>628.3</ele>
        <time>2017-09-14T12:01:06Z</time>
      </trkpt>
      <trkpt lat="43.40513" lon="5.47532">
        <ele>628.2</ele>
        <time>2017-09-14T12:01:14Z</time>
      </trkpt>
      <trkpt lat="43.40519" lon="5.47543">
        <ele>628.1</ele>
        <time>2017-09-14T12:01:23Z</time>
      </trkpt>
      <trkpt lat="43.40524" lon="5.47553">
        <ele>627.3</ele>
        <time>2017-09-14T12:01:31Z</time>
      </trkpt>
      <trkpt lat="43.40531" lon="5.47562">
        <ele>626.7</ele>
        <time>2017-09-14T12:01:39Z</time>
      </trkpt>
      <trkpt lat="43.4054" lon="5.47567">
        <ele>625.6</ele>
        <time>2017-09-14T12:01:47Z</time>
      </trkpt>
      <trkpt lat="43.40548" lon="5.4757">
        <ele>624.9</ele>
        <time>2017-09-14T12:01:56Z</time>
      </trkpt>
      <trkpt lat="43.40557" lon="5.47574">
        <ele>624.1</ele>
        <time>2017-09-14T12:02:03Z</time>
      </trkpt>
      <trkpt lat="43.40566" lon="5.47576">
        <ele>622.7</ele>
        <time>2017-09-14T12:02:12Z</time>
      </trkpt>
      <trkpt lat="43.40574" lon="5.47584">
        <ele>622.4</ele>
        <time>2017-09-14T12:02:26Z</time>
      </trkpt>
      <trkpt lat="43.4058" lon="5.47595">
        <ele>621.8</ele>
        <time>2017-09-14T12:02:33Z</time>
      </trkpt>
      <trkpt lat="43.40585" lon="5.47607">
        <ele>622</ele>
        <time>2017-09-14T12:02:41Z</time>
      </trkpt>
      <trkpt lat="43.40589" lon="5.47618">
        <ele>621.6</ele>
        <time>2017-09-14T12:02:48Z</time>
      </trkpt>
      <trkpt lat="43.40595" lon="5.47628">
        <ele>620.8</ele>
        <time>2017-09-14T12:02:56Z</time>
      </trkpt>
      <trkpt lat="43.406" lon="5.47639">
        <ele>620.1</ele>
        <time>2017-09-14T12:03:04Z</time>
      </trkpt>
      <trkpt lat="43.40605" lon="5.4765">
        <ele>619.6</ele>
        <time>2017-09-14T12:03:12Z</time>
      </trkpt>
      <trkpt lat="43.40612" lon="5.4766">
        <ele>619.6</ele>
        <time>2017-09-14T12:03:21Z</time>
      </trkpt>
      <trkpt lat="43.40617" lon="5.47671">
        <ele>619.5</ele>
        <time>2017-09-14T12:03:29Z</time>
      </trkpt>
      <trkpt lat="43.40624" lon="5.47681">
        <ele>618.9</ele>
        <time>2017-09-14T12:03:37Z</time>
      </trkpt>
      <trkpt lat="43.4063" lon="5.47691">
        <ele>618.7</ele>
        <time>2017-09-14T12:03:46Z</time>
      </trkpt>
      <trkpt lat="43.40638" lon="5.47698">
        <ele>618.2</ele>
        <time>2017-09-14T12:03:53Z</time>
      </trkpt>
      <trkpt lat="43.40646" lon="5.47705">
        <ele>617.7</ele>
        <time>2017-09-14T12:04:00Z</time>
      </trkpt>
      <trkpt lat="43.40654" lon="5.47712">
        <ele>617.1</ele>
        <time>2017-09-14T12:04:08Z</time>
      </trkpt>
      <trkpt lat="43.40661" lon="5.4772">
        <ele>616.4</ele>
        <time>2017-09-14T12:04:17Z</time>
      </trkpt>
      <trkpt lat="43.40669" lon="5.47728">
        <ele>615.8</ele>
        <time>2017-09-14T12:04:25Z</time>
      </trkpt>
      <trkpt lat="43.40677" lon="5.47735">
        <ele>614.4</ele>
        <time>2017-09-14T12:04:34Z</time>
      </trkpt>
      <trkpt lat="43.40684" lon="5.47744">
        <ele>613.8</ele>
        <time>2017-09-14T12:04:43Z</time>
      </trkpt>
      <trkpt lat="43.40692" lon="5.47752">
        <ele>612.7</ele>
        <time>2017-09-14T12:04:53Z</time>
      </trkpt>
      <trkpt lat="43.40699" lon="5.47761">
        <ele>612</ele>
        <time>2017-09-14T12:05:01Z</time>
      </trkpt>
      <trkpt lat="43.40705" lon="5.4777">
        <ele>610.8</ele>
        <time>2017-09-14T12:05:10Z</time>
      </trkpt>
      <trkpt lat="43.40712" lon="5.47779">
        <ele>610.5</ele>
        <time>2017-09-14T12:05:18Z</time>
      </trkpt>
      <trkpt lat="43.40718" lon="5.47791">
        <ele>609.3</ele>
        <time>2017-09-14T12:05:27Z</time>
      </trkpt>
      <trkpt lat="43.40724" lon="5.47801">
        <ele>608.7</ele>
        <time>2017-09-14T12:05:36Z</time>
      </trkpt>
      <trkpt lat="43.40727" lon="5.47813">
        <ele>607.8</ele>
        <time>2017-09-14T12:05:44Z</time>
      </trkpt>
      <trkpt lat="43.40733" lon="5.47823">
        <ele>607</ele>
        <time>2017-09-14T12:05:51Z</time>
      </trkpt>
      <trkpt lat="43.40738" lon="5.47834">
        <ele>606.8</ele>
        <time>2017-09-14T12:05:59Z</time>
      </trkpt>
      <trkpt lat="43.40742" lon="5.47847">
        <ele>606.8</ele>
        <time>2017-09-14T12:06:08Z</time>
      </trkpt>
      <trkpt lat="43.40746" lon="5.47859">
        <ele>606.7</ele>
        <time>2017-09-14T12:06:16Z</time>
      </trkpt>
      <trkpt lat="43.40748" lon="5.47871">
        <ele>606.5</ele>
        <time>2017-09-14T12:06:26Z</time>
      </trkpt>
      <trkpt lat="43.40751" lon="5.47885">
        <ele>606.1</ele>
        <time>2017-09-14T12:06:35Z</time>
      </trkpt>
      <trkpt lat="43.40754" lon="5.47897">
        <ele>605.6</ele>
        <time>2017-09-14T12:06:43Z</time>
      </trkpt>
      <trkpt lat="43.40755" lon="5.47911">
        <ele>605.6</ele>
        <time>2017-09-14T12:06:50Z</time>
      </trkpt>
      <trkpt lat="43.40758" lon="5.47923">
        <ele>605.3</ele>
        <time>2017-09-14T12:06:57Z</time>
      </trkpt>
      <trkpt lat="43.40761" lon="5.47936">
        <ele>605.1</ele>
        <time>2017-09-14T12:07:04Z</time>
      </trkpt>
      <trkpt lat="43.40765" lon="5.47947">
        <ele>605</ele>
        <time>2017-09-14T12:07:12Z</time>
      </trkpt>
      <trkpt lat="43.40769" lon="5.4796">
        <ele>605.4</ele>
        <time>2017-09-14T12:07:20Z</time>
      </trkpt>
      <trkpt lat="43.40773" lon="5.47972">
        <ele>605.1</ele>
        <time>2017-09-14T12:07:28Z</time>
      </trkpt>
      <trkpt lat="43.40776" lon="5.47983">
        <ele>604.7</ele>
        <time>2017-09-14T12:07:36Z</time>
      </trkpt>
      <trkpt lat="43.40779" lon="5.47995">
        <ele>604.9</ele>
        <time>2017-09-14T12:07:44Z</time>
      </trkpt>
      <trkpt lat="43.40782" lon="5.48009">
        <ele>605.3</ele>
        <time>2017-09-14T12:07:53Z</time>
      </trkpt>
      <trkpt lat="43.40784" lon="5.48021">
        <ele>605.3</ele>
        <time>2017-09-14T12:08:01Z</time>
      </trkpt>
      <trkpt lat="43.40786" lon="5.48033">
        <ele>604.8</ele>
        <time>2017-09-14T12:08:09Z</time>
      </trkpt>
      <trkpt lat="43.40788" lon="5.48047">
        <ele>604.8</ele>
        <time>2017-09-14T12:08:18Z</time>
      </trkpt>
      <trkpt lat="43.40789" lon="5.4806">
        <ele>604.5</ele>
        <time>2017-09-14T12:08:26Z</time>
      </trkpt>
      <trkpt lat="43.40789" lon="5.48072">
        <ele>604.4</ele>
        <time>2017-09-14T12:08:34Z</time>
      </trkpt>
      <trkpt lat="43.40791" lon="5.48085">
        <ele>604.1</ele>
        <time>2017-09-14T12:08:42Z</time>
      </trkpt>
      <trkpt lat="43.4079" lon="5.48098">
        <ele>604</ele>
        <time>2017-09-14T12:08:51Z</time>
      </trkpt>
      <trkpt lat="43.4079" lon="5.48112">
        <ele>604</ele>
        <time>2017-09-14T12:08:59Z</time>
      </trkpt>
      <trkpt lat="43.4079" lon="5.48125">
        <ele>603.8</ele>
        <time>2017-09-14T12:09:07Z</time>
      </trkpt>
      <trkpt lat="43.40789" lon="5.48137">
        <ele>604</ele>
        <time>2017-09-14T12:09:15Z</time>
      </trkpt>
      <trkpt lat="43.40788" lon="5.48151">
        <ele>604.2</ele>
        <time>2017-09-14T12:09:23Z</time>
      </trkpt>
      <trkpt lat="43.40788" lon="5.48163">
        <ele>603.9</ele>
        <time>2017-09-14T12:09:31Z</time>
      </trkpt>
      <trkpt lat="43.40787" lon="5.48176">
        <ele>604.1</ele>
        <time>2017-09-14T12:09:39Z</time>
      </trkpt>
      <trkpt lat="43.40787" lon="5.48189">
        <ele>603.8</ele>
        <time>2017-09-14T12:09:48Z</time>
      </trkpt>
      <trkpt lat="43.40788" lon="5.48202">
        <ele>603.8</ele>
        <time>2017-09-14T12:09:56Z</time>
      </trkpt>
      <trkpt lat="43.40791" lon="5.48215">
        <ele>603.8</ele>
        <time>2017-09-14T12:10:04Z</time>
      </trkpt>
      <trkpt lat="43.40793" lon="5.48227">
        <ele>604</ele>
        <time>2017-09-14T12:10:12Z</time>
      </trkpt>
      <trkpt lat="43.40794" lon="5.4824">
        <ele>604.1</ele>
        <time>2017-09-14T12:10:20Z</time>
      </trkpt>
      <trkpt lat="43.40796" lon="5.48253">
        <ele>604.2</ele>
        <time>2017-09-14T12:10:29Z</time>
      </trkpt>
      <trkpt lat="43.40798" lon="5.48267">
        <ele>604.5</ele>
        <time>2017-09-14T12:10:37Z</time>
      </trkpt>
      <trkpt lat="43.40801" lon="5.48279">
        <ele>604.9</ele>
        <time>2017-09-14T12:10:46Z</time>
      </trkpt>
      <trkpt lat="43.40805" lon="5.48291">
        <ele>605.2</ele>
        <time>2017-09-14T12:10:55Z</time>
      </trkpt>
      <trkpt lat="43.40809" lon="5.48304">
        <ele>605.4</ele>
        <time>2017-09-14T12:11:03Z</time>
      </trkpt>
      <trkpt lat="43.40811" lon="5.48316">
        <ele>605.6</ele>
        <time>2017-09-14T12:11:11Z</time>
      </trkpt>
      <trkpt lat="43.40814" lon="5.48328">
        <ele>605.9</ele>
        <time>2017-09-14T12:11:19Z</time>
      </trkpt>
      <trkpt lat="43.40818" lon="5.4834">
        <ele>605.9</ele>
        <time>2017-09-14T12:11:28Z</time>
      </trkpt>
      <trkpt lat="43.40823" lon="5.48351">
        <ele>606</ele>
        <time>2017-09-14T12:11:37Z</time>
      </trkpt>
      <trkpt lat="43.40825" lon="5.48364">
        <ele>605.4</ele>
        <time>2017-09-14T12:11:47Z</time>
      </trkpt>
      <trkpt lat="43.40826" lon="5.48378">
        <ele>604.4</ele>
        <time>2017-09-14T12:11:56Z</time>
      </trkpt>
      <trkpt lat="43.40825" lon="5.48391">
        <ele>603.6</ele>
        <time>2017-09-14T12:12:05Z</time>
      </trkpt>
      <trkpt lat="43.40823" lon="5.48404">
        <ele>604</ele>
        <time>2017-09-14T12:12:15Z</time>
      </trkpt>
      <trkpt lat="43.40821" lon="5.48417">
        <ele>605.1</ele>
        <time>2017-09-14T12:12:25Z</time>
      </trkpt>
      <trkpt lat="43.40819" lon="5.4843">
        <ele>606.1</ele>
        <time>2017-09-14T12:12:35Z</time>
      </trkpt>
      <trkpt lat="43.40818" lon="5.48442">
        <ele>607.1</ele>
        <time>2017-09-14T12:12:44Z</time>
      </trkpt>
      <trkpt lat="43.40817" lon="5.48454">
        <ele>608.2</ele>
        <time>2017-09-14T12:12:53Z</time>
      </trkpt>
      <trkpt lat="43.40817" lon="5.48467">
        <ele>609.9</ele>
        <time>2017-09-14T12:13:02Z</time>
      </trkpt>
      <trkpt lat="43.4082" lon="5.48479">
        <ele>610.9</ele>
        <time>2017-09-14T12:13:11Z</time>
      </trkpt>
      <trkpt lat="43.40819" lon="5.48493">
        <ele>611.9</ele>
        <time>2017-09-14T12:13:21Z</time>
      </trkpt>
      <trkpt lat="43.40817" lon="5.48506">
        <ele>612.9</ele>
        <time>2017-09-14T12:13:31Z</time>
      </trkpt>
      <trkpt lat="43.40817" lon="5.48518">
        <ele>614.5</ele>
        <time>2017-09-14T12:13:43Z</time>
      </trkpt>
      <trkpt lat="43.40815" lon="5.48531">
        <ele>615.9</ele>
        <time>2017-09-14T12:13:54Z</time>
      </trkpt>
      <trkpt lat="43.40814" lon="5.48544">
        <ele>618.2</ele>
        <time>2017-09-14T12:14:05Z</time>
      </trkpt>
      <trkpt lat="43.40816" lon="5.48557">
        <ele>619.7</ele>
        <time>2017-09-14T12:14:18Z</time>
      </trkpt>
      <trkpt lat="43.40821" lon="5.48568">
        <ele>621.3</ele>
        <time>2017-09-14T12:14:28Z</time>
      </trkpt>
      <trkpt lat="43.40823" lon="5.48581">
        <ele>623</ele>
        <time>2017-09-14T12:14:38Z</time>
      </trkpt>
      <trkpt lat="43.40822" lon="5.48594">
        <ele>623.4</ele>
        <time>2017-09-14T12:14:47Z</time>
      </trkpt>
      <trkpt lat="43.40822" lon="5.48606">
        <ele>624</ele>
        <time>2017-09-14T12:14:56Z</time>
      </trkpt>
      <trkpt lat="43.40824" lon="5.48619">
        <ele>625.1</ele>
        <time>2017-09-14T12:15:06Z</time>
      </trkpt>
      <trkpt lat="43.40826" lon="5.48632">
        <ele>626.7</ele>
        <time>2017-09-14T12:15:16Z</time>
      </trkpt>
      <trkpt lat="43.40827" lon="5.48644">
        <ele>628.3</ele>
        <time>2017-09-14T12:15:27Z</time>
      </trkpt>
      <trkpt lat="43.40827" lon="5.48658">
        <ele>630.4</ele>
        <time>2017-09-14T12:15:40Z</time>
      </trkpt>
      <trkpt lat="43.40827" lon="5.48671">
        <ele>632.4</ele>
        <time>2017-09-14T12:15:52Z</time>
      </trkpt>
      <trkpt lat="43.40828" lon="5.48684">
        <ele>634.9</ele>
        <time>2017-09-14T12:16:04Z</time>
      </trkpt>
      <trkpt lat="43.40827" lon="5.48697">
        <ele>637</ele>
        <time>2017-09-14T12:16:16Z</time>
      </trkpt>
      <trkpt lat="43.40826" lon="5.4871">
        <ele>641.2</ele>
        <time>2017-09-14T12:16:37Z</time>
      </trkpt>
      <trkpt lat="43.40826" lon="5.48722">
        <ele>642.7</ele>
        <time>2017-09-14T12:16:53Z</time>
      </trkpt>
      <trkpt lat="43.40823" lon="5.48734">
        <ele>646.6</ele>
        <time>2017-09-14T12:17:14Z</time>
      </trkpt>
      <trkpt lat="43.40816" lon="5.48742">
        <ele>647.8</ele>
        <time>2017-09-14T12:17:29Z</time>
      </trkpt>
      <trkpt lat="43.40806" lon="5.48744">
        <ele>647.9</ele>
        <time>2017-09-14T12:17:48Z</time>
      </trkpt>
      <trkpt lat="43.40803" lon="5.48756">
        <ele>646.3</ele>
        <time>2017-09-14T12:19:04Z</time>
      </trkpt>
      <trkpt lat="43.408" lon="5.48768">
        <ele>644.9</ele>
        <time>2017-09-14T12:19:31Z</time>
      </trkpt>
      <trkpt lat="43.40804" lon="5.48779">
        <ele>651.3</ele>
        <time>2017-09-14T12:20:30Z</time>
      </trkpt>
      <trkpt lat="43.40811" lon="5.48787">
        <ele>655.6</ele>
        <time>2017-09-14T12:20:59Z</time>
      </trkpt>
      <trkpt lat="43.4081" lon="5.488">
        <ele>659.7</ele>
        <time>2017-09-14T12:21:18Z</time>
      </trkpt>
      <trkpt lat="43.40817" lon="5.48808">
        <ele>663.5</ele>
        <time>2017-09-14T12:21:43Z</time>
      </trkpt>
      <trkpt lat="43.40818" lon="5.4882">
        <ele>666.8</ele>
        <time>2017-09-14T12:22:01Z</time>
      </trkpt>
      <trkpt lat="43.40818" lon="5.48833">
        <ele>669.2</ele>
        <time>2017-09-14T12:22:17Z</time>
      </trkpt>
      <trkpt lat="43.40813" lon="5.48844">
        <ele>670.3</ele>
        <time>2017-09-14T12:22:34Z</time>
      </trkpt>
      <trkpt lat="43.40814" lon="5.48857">
        <ele>673.5</ele>
        <time>2017-09-14T12:22:51Z</time>
      </trkpt>
      <trkpt lat="43.40811" lon="5.48869">
        <ele>674.9</ele>
        <time>2017-09-14T12:23:03Z</time>
      </trkpt>
      <trkpt lat="43.40813" lon="5.48882">
        <ele>677.8</ele>
        <time>2017-09-14T12:23:18Z</time>
      </trkpt>
      <trkpt lat="43.40812" lon="5.48894">
        <ele>680.7</ele>
        <time>2017-09-14T12:23:36Z</time>
      </trkpt>
      <trkpt lat="43.4081" lon="5.48907">
        <ele>682.4</ele>
        <time>2017-09-14T12:23:50Z</time>
      </trkpt>
      <trkpt lat="43.40806" lon="5.48918">
        <ele>683.2</ele>
        <time>2017-09-14T12:24:03Z</time>
      </trkpt>
      <trkpt lat="43.40806" lon="5.48931">
        <ele>685.6</ele>
        <time>2017-09-14T12:24:17Z</time>
      </trkpt>
      <trkpt lat="43.40808" lon="5.48943">
        <ele>688.3</ele>
        <time>2017-09-14T12:24:33Z</time>
      </trkpt>
      <trkpt lat="43.40809" lon="5.48956">
        <ele>690.8</ele>
        <time>2017-09-14T12:24:48Z</time>
      </trkpt>
      <trkpt lat="43.40809" lon="5.48968">
        <ele>693.3</ele>
        <time>2017-09-14T12:25:06Z</time>
      </trkpt>
      <trkpt lat="43.40808" lon="5.48981">
        <ele>695.6</ele>
        <time>2017-09-14T12:25:20Z</time>
      </trkpt>
      <trkpt lat="43.40802" lon="5.4899">
        <ele>695.8</ele>
        <time>2017-09-14T12:25:34Z</time>
      </trkpt>
      <trkpt lat="43.40797" lon="5.49001">
        <ele>697</ele>
        <time>2017-09-14T12:25:47Z</time>
      </trkpt>
      <trkpt lat="43.40795" lon="5.49014">
        <ele>697.6</ele>
        <time>2017-09-14T12:26:00Z</time>
      </trkpt>
      <trkpt lat="43.40793" lon="5.49027">
        <ele>699.1</ele>
        <time>2017-09-14T12:26:13Z</time>
      </trkpt>
      <trkpt lat="43.40792" lon="5.4904">
        <ele>700.1</ele>
        <time>2017-09-14T12:26:24Z</time>
      </trkpt>
      <trkpt lat="43.40787" lon="5.4905">
        <ele>700.5</ele>
        <time>2017-09-14T12:26:35Z</time>
      </trkpt>
      <trkpt lat="43.40785" lon="5.49063">
        <ele>701.7</ele>
        <time>2017-09-14T12:26:47Z</time>
      </trkpt>
      <trkpt lat="43.40781" lon="5.49075">
        <ele>702.3</ele>
        <time>2017-09-14T12:26:58Z</time>
      </trkpt>
      <trkpt lat="43.40778" lon="5.49087">
        <ele>703.7</ele>
        <time>2017-09-14T12:27:08Z</time>
      </trkpt>
      <trkpt lat="43.40775" lon="5.491">
        <ele>704.8</ele>
        <time>2017-09-14T12:27:18Z</time>
      </trkpt>
      <trkpt lat="43.40775" lon="5.49113">
        <ele>706.4</ele>
        <time>2017-09-14T12:27:30Z</time>
      </trkpt>
      <trkpt lat="43.40773" lon="5.49126">
        <ele>707.8</ele>
        <time>2017-09-14T12:27:42Z</time>
      </trkpt>
      <trkpt lat="43.40769" lon="5.49137">
        <ele>709.3</ele>
        <time>2017-09-14T12:27:52Z</time>
      </trkpt>
      <trkpt lat="43.40767" lon="5.4915">
        <ele>711</ele>
        <time>2017-09-14T12:28:02Z</time>
      </trkpt>
      <trkpt lat="43.40767" lon="5.49162">
        <ele>713</ele>
        <time>2017-09-14T12:28:13Z</time>
      </trkpt>
      <trkpt lat="43.40772" lon="5.49174">
        <ele>715.5</ele>
        <time>2017-09-14T12:28:25Z</time>
      </trkpt>
      <trkpt lat="43.40769" lon="5.49186">
        <ele>716.6</ele>
        <time>2017-09-14T12:28:37Z</time>
      </trkpt>
      <trkpt lat="43.4077" lon="5.49199">
        <ele>717.4</ele>
        <time>2017-09-14T12:28:47Z</time>
      </trkpt>
      <trkpt lat="43.4077" lon="5.49211">
        <ele>718.3</ele>
        <time>2017-09-14T12:28:57Z</time>
      </trkpt>
      <trkpt lat="43.40772" lon="5.49224">
        <ele>719.7</ele>
        <time>2017-09-14T12:29:09Z</time>
      </trkpt>
      <trkpt lat="43.40774" lon="5.49237">
        <ele>720.6</ele>
        <time>2017-09-14T12:29:19Z</time>
      </trkpt>
      <trkpt lat="43.40771" lon="5.49249">
        <ele>720.4</ele>
        <time>2017-09-14T12:29:29Z</time>
      </trkpt>
      <trkpt lat="43.40769" lon="5.49262">
        <ele>720.4</ele>
        <time>2017-09-14T12:29:39Z</time>
      </trkpt>
      <trkpt lat="43.40771" lon="5.49275">
        <ele>721.8</ele>
        <time>2017-09-14T12:29:51Z</time>
      </trkpt>
      <trkpt lat="43.40773" lon="5.49288">
        <ele>724.2</ele>
        <time>2017-09-14T12:30:02Z</time>
      </trkpt>
      <trkpt lat="43.40776" lon="5.493">
        <ele>726.8</ele>
        <time>2017-09-14T12:30:13Z</time>
      </trkpt>
      <trkpt lat="43.40776" lon="5.49312">
        <ele>729.1</ele>
        <time>2017-09-14T12:30:23Z</time>
      </trkpt>
      <trkpt lat="43.40774" lon="5.49325">
        <ele>728.4</ele>
        <time>2017-09-14T12:30:34Z</time>
      </trkpt>
      <trkpt lat="43.40772" lon="5.49338">
        <ele>728.8</ele>
        <time>2017-09-14T12:30:43Z</time>
      </trkpt>
      <trkpt lat="43.40769" lon="5.49351">
        <ele>728.7</ele>
        <time>2017-09-14T12:30:52Z</time>
      </trkpt>
      <trkpt lat="43.40767" lon="5.49364">
        <ele>728.9</ele>
        <time>2017-09-14T12:31:02Z</time>
      </trkpt>
      <trkpt lat="43.40765" lon="5.49377">
        <ele>729.7</ele>
        <time>2017-09-14T12:31:12Z</time>
      </trkpt>
      <trkpt lat="43.40764" lon="5.49389">
        <ele>730.3</ele>
        <time>2017-09-14T12:31:21Z</time>
      </trkpt>
      <trkpt lat="43.40759" lon="5.494">
        <ele>730.4</ele>
        <time>2017-09-14T12:31:30Z</time>
      </trkpt>
      <trkpt lat="43.40757" lon="5.49413">
        <ele>731.7</ele>
        <time>2017-09-14T12:31:39Z</time>
      </trkpt>
      <trkpt lat="43.40752" lon="5.49424">
        <ele>732</ele>
        <time>2017-09-14T12:31:48Z</time>
      </trkpt>
      <trkpt lat="43.40746" lon="5.49434">
        <ele>731.9</ele>
        <time>2017-09-14T12:31:57Z</time>
      </trkpt>
      <trkpt lat="43.40738" lon="5.49442">
        <ele>729.3</ele>
        <time>2017-09-14T12:32:08Z</time>
      </trkpt>
      <trkpt lat="43.40732" lon="5.4945">
        <ele>727.2</ele>
        <time>2017-09-14T12:32:20Z</time>
      </trkpt>
      <trkpt lat="43.40727" lon="5.49462">
        <ele>726.3</ele>
        <time>2017-09-14T12:32:29Z</time>
      </trkpt>
      <trkpt lat="43.40723" lon="5.49472">
        <ele>727.7</ele>
        <time>2017-09-14T12:32:38Z</time>
      </trkpt>
      <trkpt lat="43.40715" lon="5.4948">
        <ele>726.7</ele>
        <time>2017-09-14T12:32:48Z</time>
      </trkpt>
      <trkpt lat="43.40711" lon="5.49492">
        <ele>725.9</ele>
        <time>2017-09-14T12:32:56Z</time>
      </trkpt>
      <trkpt lat="43.40708" lon="5.49504">
        <ele>725.8</ele>
        <time>2017-09-14T12:33:04Z</time>
      </trkpt>
      <trkpt lat="43.407" lon="5.49512">
        <ele>725.7</ele>
        <time>2017-09-14T12:33:13Z</time>
      </trkpt>
      <trkpt lat="43.40693" lon="5.49521">
        <ele>725.5</ele>
        <time>2017-09-14T12:33:22Z</time>
      </trkpt>
      <trkpt lat="43.40686" lon="5.4953">
        <ele>725.3</ele>
        <time>2017-09-14T12:33:32Z</time>
      </trkpt>
      <trkpt lat="43.40681" lon="5.49541">
        <ele>723.1</ele>
        <time>2017-09-14T12:33:41Z</time>
      </trkpt>
      <trkpt lat="43.40673" lon="5.49548">
        <ele>721.1</ele>
        <time>2017-09-14T12:33:54Z</time>
      </trkpt>
      <trkpt lat="43.4067" lon="5.49561">
        <ele>719.8</ele>
        <time>2017-09-14T12:34:04Z</time>
      </trkpt>
      <trkpt lat="43.40665" lon="5.49572">
        <ele>719.5</ele>
        <time>2017-09-14T12:34:14Z</time>
      </trkpt>
      <trkpt lat="43.4066" lon="5.49582">
        <ele>719.9</ele>
        <time>2017-09-14T12:34:22Z</time>
      </trkpt>
      <trkpt lat="43.40654" lon="5.49592">
        <ele>718.9</ele>
        <time>2017-09-14T12:34:32Z</time>
      </trkpt>
      <trkpt lat="43.40651" lon="5.49604">
        <ele>719</ele>
        <time>2017-09-14T12:34:42Z</time>
      </trkpt>
      <trkpt lat="43.40649" lon="5.49618">
        <ele>719.8</ele>
        <time>2017-09-14T12:34:52Z</time>
      </trkpt>
      <trkpt lat="43.40647" lon="5.4963">
        <ele>720.4</ele>
        <time>2017-09-14T12:35:00Z</time>
      </trkpt>
      <trkpt lat="43.40644" lon="5.49642">
        <ele>720.9</ele>
        <time>2017-09-14T12:35:09Z</time>
      </trkpt>
      <trkpt lat="43.40643" lon="5.49655">
        <ele>722.1</ele>
        <time>2017-09-14T12:35:19Z</time>
      </trkpt>
      <trkpt lat="43.40637" lon="5.49665">
        <ele>722.5</ele>
        <time>2017-09-14T12:35:29Z</time>
      </trkpt>
      <trkpt lat="43.40632" lon="5.49675">
        <ele>721.6</ele>
        <time>2017-09-14T12:35:38Z</time>
      </trkpt>
      <trkpt lat="43.4063" lon="5.49688">
        <ele>721.6</ele>
        <time>2017-09-14T12:35:47Z</time>
      </trkpt>
      <trkpt lat="43.40627" lon="5.49701">
        <ele>722</ele>
        <time>2017-09-14T12:35:57Z</time>
      </trkpt>
      <trkpt lat="43.40621" lon="5.4971">
        <ele>721.2</ele>
        <time>2017-09-14T12:36:08Z</time>
      </trkpt>
      <trkpt lat="43.40619" lon="5.49722">
        <ele>719.8</ele>
        <time>2017-09-14T12:36:24Z</time>
      </trkpt>
      <trkpt lat="43.40612" lon="5.4973">
        <ele>721.1</ele>
        <time>2017-09-14T12:36:31Z</time>
      </trkpt>
      <trkpt lat="43.40605" lon="5.49738">
        <ele>722.1</ele>
        <time>2017-09-14T12:36:41Z</time>
      </trkpt>
      <trkpt lat="43.40602" lon="5.49751">
        <ele>722.5</ele>
        <time>2017-09-14T12:36:53Z</time>
      </trkpt>
      <trkpt lat="43.40611" lon="5.49757">
        <ele>724.9</ele>
        <time>2017-09-14T12:37:06Z</time>
      </trkpt>
      <trkpt lat="43.4062" lon="5.49758">
        <ele>728.1</ele>
        <time>2017-09-14T12:37:39Z</time>
      </trkpt>
      <trkpt lat="43.40611" lon="5.49753">
        <ele>726.6</ele>
        <time>2017-09-14T12:38:55Z</time>
      </trkpt>
      <trkpt lat="43.40602" lon="5.49751">
        <ele>724.3</ele>
        <time>2017-09-14T12:39:06Z</time>
      </trkpt>
      <trkpt lat="43.40598" lon="5.49763">
        <ele>722.8</ele>
        <time>2017-09-14T12:39:17Z</time>
      </trkpt>
      <trkpt lat="43.40591" lon="5.49771">
        <ele>720</ele>
        <time>2017-09-14T12:39:27Z</time>
      </trkpt>
      <trkpt lat="43.40586" lon="5.49783">
        <ele>719.4</ele>
        <time>2017-09-14T12:39:37Z</time>
      </trkpt>
      <trkpt lat="43.4058" lon="5.49793">
        <ele>718.2</ele>
        <time>2017-09-14T12:39:47Z</time>
      </trkpt>
      <trkpt lat="43.40572" lon="5.49799">
        <ele>718.2</ele>
        <time>2017-09-14T12:39:55Z</time>
      </trkpt>
      <trkpt lat="43.40563" lon="5.49805">
        <ele>719.3</ele>
        <time>2017-09-14T12:40:05Z</time>
      </trkpt>
      <trkpt lat="43.40557" lon="5.49816">
        <ele>721.5</ele>
        <time>2017-09-14T12:40:17Z</time>
      </trkpt>
      <trkpt lat="43.4055" lon="5.49824">
        <ele>723.5</ele>
        <time>2017-09-14T12:40:28Z</time>
      </trkpt>
      <trkpt lat="43.40543" lon="5.49834">
        <ele>725.1</ele>
        <time>2017-09-14T12:40:39Z</time>
      </trkpt>
      <trkpt lat="43.40538" lon="5.49845">
        <ele>725.3</ele>
        <time>2017-09-14T12:40:48Z</time>
      </trkpt>
      <trkpt lat="43.40534" lon="5.49857">
        <ele>725.8</ele>
        <time>2017-09-14T12:40:59Z</time>
      </trkpt>
      <trkpt lat="43.40527" lon="5.49867">
        <ele>726.2</ele>
        <time>2017-09-14T12:41:09Z</time>
      </trkpt>
      <trkpt lat="43.40521" lon="5.49877">
        <ele>726.3</ele>
        <time>2017-09-14T12:41:18Z</time>
      </trkpt>
      <trkpt lat="43.40516" lon="5.49888">
        <ele>726.5</ele>
        <time>2017-09-14T12:41:27Z</time>
      </trkpt>
      <trkpt lat="43.40513" lon="5.499">
        <ele>725.6</ele>
        <time>2017-09-14T12:41:35Z</time>
      </trkpt>
      <trkpt lat="43.40511" lon="5.49913">
        <ele>723.9</ele>
        <time>2017-09-14T12:41:43Z</time>
      </trkpt>
      <trkpt lat="43.40509" lon="5.49926">
        <ele>723.2</ele>
        <time>2017-09-14T12:41:51Z</time>
      </trkpt>
      <trkpt lat="43.40506" lon="5.49938">
        <ele>721.9</ele>
        <time>2017-09-14T12:42:00Z</time>
      </trkpt>
      <trkpt lat="43.40507" lon="5.49952">
        <ele>722.5</ele>
        <time>2017-09-14T12:42:08Z</time>
      </trkpt>
      <trkpt lat="43.40506" lon="5.49965">
        <ele>722.2</ele>
        <time>2017-09-14T12:42:16Z</time>
      </trkpt>
      <trkpt lat="43.40506" lon="5.49978">
        <ele>721.3</ele>
        <time>2017-09-14T12:42:30Z</time>
      </trkpt>
      <trkpt lat="43.40505" lon="5.4999">
        <ele>720.3</ele>
        <time>2017-09-14T12:42:38Z</time>
      </trkpt>
      <trkpt lat="43.40508" lon="5.50004">
        <ele>719.6</ele>
        <time>2017-09-14T12:42:46Z</time>
      </trkpt>
      <trkpt lat="43.40508" lon="5.50018">
        <ele>718.4</ele>
        <time>2017-09-14T12:42:58Z</time>
      </trkpt>
      <trkpt lat="43.40506" lon="5.5003">
        <ele>716.3</ele>
        <time>2017-09-14T12:43:07Z</time>
      </trkpt>
      <trkpt lat="43.40504" lon="5.50043">
        <ele>715.5</ele>
        <time>2017-09-14T12:43:14Z</time>
      </trkpt>
      <trkpt lat="43.40502" lon="5.50056">
        <ele>714.8</ele>
        <time>2017-09-14T12:43:22Z</time>
      </trkpt>
      <trkpt lat="43.40502" lon="5.5007">
        <ele>714.8</ele>
        <time>2017-09-14T12:43:30Z</time>
      </trkpt>
      <trkpt lat="43.40499" lon="5.50083">
        <ele>715.1</ele>
        <time>2017-09-14T12:43:38Z</time>
      </trkpt>
      <trkpt lat="43.40499" lon="5.50096">
        <ele>714.9</ele>
        <time>2017-09-14T12:43:45Z</time>
      </trkpt>
      <trkpt lat="43.40501" lon="5.5011">
        <ele>714.3</ele>
        <time>2017-09-14T12:43:53Z</time>
      </trkpt>
      <trkpt lat="43.40496" lon="5.50121">
        <ele>714.5</ele>
        <time>2017-09-14T12:44:01Z</time>
      </trkpt>
      <trkpt lat="43.40492" lon="5.50133">
        <ele>715</ele>
        <time>2017-09-14T12:44:11Z</time>
      </trkpt>
      <trkpt lat="43.40487" lon="5.50145">
        <ele>715.2</ele>
        <time>2017-09-14T12:44:21Z</time>
      </trkpt>
      <trkpt lat="43.40481" lon="5.50155">
        <ele>716.8</ele>
        <time>2017-09-14T12:44:31Z</time>
      </trkpt>
      <trkpt lat="43.40479" lon="5.50167">
        <ele>717.9</ele>
        <time>2017-09-14T12:44:41Z</time>
      </trkpt>
      <trkpt lat="43.40474" lon="5.50178">
        <ele>719.8</ele>
        <time>2017-09-14T12:44:52Z</time>
      </trkpt>
      <trkpt lat="43.40472" lon="5.50191">
        <ele>721</ele>
        <time>2017-09-14T12:45:03Z</time>
      </trkpt>
      <trkpt lat="43.40472" lon="5.50203">
        <ele>722.6</ele>
        <time>2017-09-14T12:45:13Z</time>
      </trkpt>
      <trkpt lat="43.4047" lon="5.50217">
        <ele>724.2</ele>
        <time>2017-09-14T12:45:22Z</time>
      </trkpt>
      <trkpt lat="43.40467" lon="5.5023">
        <ele>724.1</ele>
        <time>2017-09-14T12:45:30Z</time>
      </trkpt>
      <trkpt lat="43.40466" lon="5.50243">
        <ele>723.8</ele>
        <time>2017-09-14T12:45:38Z</time>
      </trkpt>
      <trkpt lat="43.40465" lon="5.50257">
        <ele>722.9</ele>
        <time>2017-09-14T12:45:48Z</time>
      </trkpt>
      <trkpt lat="43.40462" lon="5.5027">
        <ele>722.3</ele>
        <time>2017-09-14T12:45:57Z</time>
      </trkpt>
      <trkpt lat="43.40456" lon="5.50282">
        <ele>722.5</ele>
        <time>2017-09-14T12:46:06Z</time>
      </trkpt>
      <trkpt lat="43.40453" lon="5.50294">
        <ele>723.4</ele>
        <time>2017-09-14T12:46:15Z</time>
      </trkpt>
      <trkpt lat="43.40456" lon="5.50306">
        <ele>724.4</ele>
        <time>2017-09-14T12:46:41Z</time>
      </trkpt>
      <trkpt lat="43.4046" lon="5.50318">
        <ele>723</ele>
        <time>2017-09-14T12:46:53Z</time>
      </trkpt>
      <trkpt lat="43.40461" lon="5.50332">
        <ele>720.7</ele>
        <time>2017-09-14T12:47:04Z</time>
      </trkpt>
      <trkpt lat="43.40456" lon="5.50343">
        <ele>721.6</ele>
        <time>2017-09-14T12:47:13Z</time>
      </trkpt>
      <trkpt lat="43.40453" lon="5.50356">
        <ele>722.2</ele>
        <time>2017-09-14T12:47:21Z</time>
      </trkpt>
      <trkpt lat="43.40451" lon="5.5037">
        <ele>722.7</ele>
        <time>2017-09-14T12:47:31Z</time>
      </trkpt>
      <trkpt lat="43.40452" lon="5.50382">
        <ele>724</ele>
        <time>2017-09-14T12:47:43Z</time>
      </trkpt>
      <trkpt lat="43.40456" lon="5.50394">
        <ele>728.4</ele>
        <time>2017-09-14T12:48:05Z</time>
      </trkpt>
      <trkpt lat="43.40461" lon="5.50406">
        <ele>729.6</ele>
        <time>2017-09-14T12:48:19Z</time>
      </trkpt>
      <trkpt lat="43.40464" lon="5.50418">
        <ele>729.2</ele>
        <time>2017-09-14T12:48:30Z</time>
      </trkpt>
      <trkpt lat="43.40466" lon="5.50431">
        <ele>728.8</ele>
        <time>2017-09-14T12:48:42Z</time>
      </trkpt>
      <trkpt lat="43.4047" lon="5.50443">
        <ele>727.7</ele>
        <time>2017-09-14T12:48:51Z</time>
      </trkpt>
      <trkpt lat="43.4047" lon="5.50456">
        <ele>727.2</ele>
        <time>2017-09-14T12:49:01Z</time>
      </trkpt>
      <trkpt lat="43.40468" lon="5.50468">
        <ele>726.1</ele>
        <time>2017-09-14T12:49:10Z</time>
      </trkpt>
      <trkpt lat="43.40464" lon="5.5048">
        <ele>724.3</ele>
        <time>2017-09-14T12:49:20Z</time>
      </trkpt>
      <trkpt lat="43.40465" lon="5.50493">
        <ele>723.6</ele>
        <time>2017-09-14T12:49:28Z</time>
      </trkpt>
      <trkpt lat="43.40462" lon="5.50505">
        <ele>723.8</ele>
        <time>2017-09-14T12:49:37Z</time>
      </trkpt>
      <trkpt lat="43.40459" lon="5.50518">
        <ele>724.2</ele>
        <time>2017-09-14T12:49:45Z</time>
      </trkpt>
      <trkpt lat="43.40463" lon="5.50531">
        <ele>726.4</ele>
        <time>2017-09-14T12:49:54Z</time>
      </trkpt>
      <trkpt lat="43.40468" lon="5.50542">
        <ele>727.1</ele>
        <time>2017-09-14T12:50:06Z</time>
      </trkpt>
      <trkpt lat="43.40471" lon="5.50553">
        <ele>725.4</ele>
        <time>2017-09-14T12:50:22Z</time>
      </trkpt>
      <trkpt lat="43.40473" lon="5.50566">
        <ele>724</ele>
        <time>2017-09-14T12:50:34Z</time>
      </trkpt>
      <trkpt lat="43.40477" lon="5.50578">
        <ele>722.4</ele>
        <time>2017-09-14T12:50:44Z</time>
      </trkpt>
      <trkpt lat="43.40478" lon="5.50591">
        <ele>719.9</ele>
        <time>2017-09-14T12:50:55Z</time>
      </trkpt>
      <trkpt lat="43.4048" lon="5.50605">
        <ele>718.4</ele>
        <time>2017-09-14T12:51:03Z</time>
      </trkpt>
      <trkpt lat="43.40484" lon="5.50616">
        <ele>717.6</ele>
        <time>2017-09-14T12:51:12Z</time>
      </trkpt>
      <trkpt lat="43.40484" lon="5.5063">
        <ele>716</ele>
        <time>2017-09-14T12:51:20Z</time>
      </trkpt>
      <trkpt lat="43.40487" lon="5.50644">
        <ele>715</ele>
        <time>2017-09-14T12:51:29Z</time>
      </trkpt>
      <trkpt lat="43.4049" lon="5.50655">
        <ele>713.5</ele>
        <time>2017-09-14T12:51:38Z</time>
      </trkpt>
      <trkpt lat="43.4049" lon="5.50669">
        <ele>714</ele>
        <time>2017-09-14T12:51:47Z</time>
      </trkpt>
      <trkpt lat="43.40491" lon="5.50682">
        <ele>714</ele>
        <time>2017-09-14T12:51:54Z</time>
      </trkpt>
      <trkpt lat="43.40495" lon="5.50694">
        <ele>715.2</ele>
        <time>2017-09-14T12:52:02Z</time>
      </trkpt>
      <trkpt lat="43.40495" lon="5.50707">
        <ele>717.6</ele>
        <time>2017-09-14T12:52:15Z</time>
      </trkpt>
      <trkpt lat="43.40499" lon="5.50719">
        <ele>716.2</ele>
        <time>2017-09-14T12:52:26Z</time>
      </trkpt>
      <trkpt lat="43.40502" lon="5.50732">
        <ele>714.8</ele>
        <time>2017-09-14T12:52:34Z</time>
      </trkpt>
      <trkpt lat="43.40505" lon="5.50746">
        <ele>713</ele>
        <time>2017-09-14T12:52:43Z</time>
      </trkpt>
      <trkpt lat="43.40506" lon="5.50758">
        <ele>712.3</ele>
        <time>2017-09-14T12:52:51Z</time>
      </trkpt>
      <trkpt lat="43.40508" lon="5.5077">
        <ele>711.7</ele>
        <time>2017-09-14T12:53:01Z</time>
      </trkpt>
      <trkpt lat="43.40511" lon="5.50783">
        <ele>711.7</ele>
        <time>2017-09-14T12:53:08Z</time>
      </trkpt>
      <trkpt lat="43.40514" lon="5.50795">
        <ele>711.7</ele>
        <time>2017-09-14T12:53:17Z</time>
      </trkpt>
      <trkpt lat="43.40517" lon="5.50808">
        <ele>711.1</ele>
        <time>2017-09-14T12:53:25Z</time>
      </trkpt>
      <trkpt lat="43.40519" lon="5.5082">
        <ele>710.6</ele>
        <time>2017-09-14T12:53:32Z</time>
      </trkpt>
      <trkpt lat="43.4052" lon="5.50833">
        <ele>710.8</ele>
        <time>2017-09-14T12:53:41Z</time>
      </trkpt>
      <trkpt lat="43.40523" lon="5.50845">
        <ele>711.2</ele>
        <time>2017-09-14T12:53:50Z</time>
      </trkpt>
      <trkpt lat="43.40523" lon="5.50858">
        <ele>711.5</ele>
        <time>2017-09-14T12:53:59Z</time>
      </trkpt>
      <trkpt lat="43.40526" lon="5.50871">
        <ele>711.8</ele>
        <time>2017-09-14T12:54:07Z</time>
      </trkpt>
      <trkpt lat="43.40529" lon="5.50884">
        <ele>710.5</ele>
        <time>2017-09-14T12:54:17Z</time>
      </trkpt>
      <trkpt lat="43.40534" lon="5.50895">
        <ele>708.9</ele>
        <time>2017-09-14T12:54:27Z</time>
      </trkpt>
      <trkpt lat="43.4054" lon="5.50905">
        <ele>707.5</ele>
        <time>2017-09-14T12:54:37Z</time>
      </trkpt>
      <trkpt lat="43.40543" lon="5.50917">
        <ele>706.5</ele>
        <time>2017-09-14T12:54:45Z</time>
      </trkpt>
      <trkpt lat="43.40547" lon="5.50929">
        <ele>706.1</ele>
        <time>2017-09-14T12:54:52Z</time>
      </trkpt>
      <trkpt lat="43.40553" lon="5.50939">
        <ele>706.4</ele>
        <time>2017-09-14T12:55:01Z</time>
      </trkpt>
      <trkpt lat="43.40552" lon="5.50952">
        <ele>706.5</ele>
        <time>2017-09-14T12:55:10Z</time>
      </trkpt>
      <trkpt lat="43.40555" lon="5.50965">
        <ele>706.3</ele>
        <time>2017-09-14T12:55:20Z</time>
      </trkpt>
      <trkpt lat="43.40555" lon="5.50979">
        <ele>707.5</ele>
        <time>2017-09-14T12:55:28Z</time>
      </trkpt>
      <trkpt lat="43.40557" lon="5.50991">
        <ele>708.4</ele>
        <time>2017-09-14T12:55:36Z</time>
      </trkpt>
      <trkpt lat="43.4056" lon="5.51004">
        <ele>708.9</ele>
        <time>2017-09-14T12:55:47Z</time>
      </trkpt>
      <trkpt lat="43.40561" lon="5.51016">
        <ele>710</ele>
        <time>2017-09-14T12:55:56Z</time>
      </trkpt>
      <trkpt lat="43.40561" lon="5.51029">
        <ele>711.8</ele>
        <time>2017-09-14T12:56:06Z</time>
      </trkpt>
      <trkpt lat="43.40562" lon="5.51042">
        <ele>713.7</ele>
        <time>2017-09-14T12:56:17Z</time>
      </trkpt>
      <trkpt lat="43.40562" lon="5.51055">
        <ele>715.1</ele>
        <time>2017-09-14T12:56:28Z</time>
      </trkpt>
      <trkpt lat="43.40564" lon="5.51067">
        <ele>716.3</ele>
        <time>2017-09-14T12:56:37Z</time>
      </trkpt>
      <trkpt lat="43.40565" lon="5.5108">
        <ele>717.6</ele>
        <time>2017-09-14T12:56:47Z</time>
      </trkpt>
      <trkpt lat="43.40566" lon="5.51093">
        <ele>719.5</ele>
        <time>2017-09-14T12:56:58Z</time>
      </trkpt>
      <trkpt lat="43.40566" lon="5.51105">
        <ele>721.9</ele>
        <time>2017-09-14T12:57:10Z</time>
      </trkpt>
      <trkpt lat="43.40568" lon="5.51118">
        <ele>723</ele>
        <time>2017-09-14T12:57:21Z</time>
      </trkpt>
      <trkpt lat="43.40573" lon="5.5113">
        <ele>724.2</ele>
        <time>2017-09-14T12:57:32Z</time>
      </trkpt>
      <trkpt lat="43.40574" lon="5.51143">
        <ele>725.6</ele>
        <time>2017-09-14T12:57:41Z</time>
      </trkpt>
      <trkpt lat="43.40577" lon="5.51155">
        <ele>727.9</ele>
        <time>2017-09-14T12:57:52Z</time>
      </trkpt>
      <trkpt lat="43.40581" lon="5.51167">
        <ele>729.1</ele>
        <time>2017-09-14T12:58:02Z</time>
      </trkpt>
      <trkpt lat="43.40586" lon="5.51178">
        <ele>729.9</ele>
        <time>2017-09-14T12:58:11Z</time>
      </trkpt>
      <trkpt lat="43.40595" lon="5.5118">
        <ele>730.2</ele>
        <time>2017-09-14T12:58:23Z</time>
      </trkpt>
      <trkpt lat="43.40603" lon="5.51173">
        <ele>728.5</ele>
        <time>2017-09-14T12:58:36Z</time>
      </trkpt>
      <trkpt lat="43.40612" lon="5.51172">
        <ele>727.3</ele>
        <time>2017-09-14T12:58:45Z</time>
      </trkpt>
      <trkpt lat="43.4062" lon="5.51164">
        <ele>725.9</ele>
        <time>2017-09-14T12:58:55Z</time>
      </trkpt>
      <trkpt lat="43.40628" lon="5.51156">
        <ele>725.1</ele>
        <time>2017-09-14T12:59:03Z</time>
      </trkpt>
      <trkpt lat="43.40635" lon="5.51149">
        <ele>723.8</ele>
        <time>2017-09-14T12:59:11Z</time>
      </trkpt>
      <trkpt lat="43.4064" lon="5.51138">
        <ele>722.4</ele>
        <time>2017-09-14T12:59:19Z</time>
      </trkpt>
      <trkpt lat="43.40647" lon="5.51129">
        <ele>720.8</ele>
        <time>2017-09-14T12:59:26Z</time>
      </trkpt>
      <trkpt lat="43.40654" lon="5.5112">
        <ele>719.7</ele>
        <time>2017-09-14T12:59:34Z</time>
      </trkpt>
      <trkpt lat="43.40659" lon="5.51108">
        <ele>718.2</ele>
        <time>2017-09-14T12:59:42Z</time>
      </trkpt>
      <trkpt lat="43.40662" lon="5.51095">
        <ele>717.8</ele>
        <time>2017-09-14T12:59:50Z</time>
      </trkpt>
      <trkpt lat="43.40665" lon="5.51082">
        <ele>717.2</ele>
        <time>2017-09-14T12:59:58Z</time>
      </trkpt>
      <trkpt lat="43.40669" lon="5.5107">
        <ele>716.5</ele>
        <time>2017-09-14T13:00:06Z</time>
      </trkpt>
      <trkpt lat="43.40674" lon="5.51058">
        <ele>715.4</ele>
        <time>2017-09-14T13:00:15Z</time>
      </trkpt>
      <trkpt lat="43.40678" lon="5.51046">
        <ele>714</ele>
        <time>2017-09-14T13:00:22Z</time>
      </trkpt>
      <trkpt lat="43.40683" lon="5.51036">
        <ele>712.5</ele>
        <time>2017-09-14T13:00:30Z</time>
      </trkpt>
      <trkpt lat="43.40689" lon="5.51025">
        <ele>711.3</ele>
        <time>2017-09-14T13:00:37Z</time>
      </trkpt>
      <trkpt lat="43.40696" lon="5.51017">
        <ele>709.9</ele>
        <time>2017-09-14T13:00:46Z</time>
      </trkpt>
      <trkpt lat="43.40704" lon="5.5101">
        <ele>708.6</ele>
        <time>2017-09-14T13:00:54Z</time>
      </trkpt>
      <trkpt lat="43.40711" lon="5.51002">
        <ele>707.5</ele>
        <time>2017-09-14T13:01:02Z</time>
      </trkpt>
      <trkpt lat="43.40719" lon="5.50996">
        <ele>706.5</ele>
        <time>2017-09-14T13:01:10Z</time>
      </trkpt>
      <trkpt lat="43.40727" lon="5.50988">
        <ele>705.4</ele>
        <time>2017-09-14T13:01:18Z</time>
      </trkpt>
      <trkpt lat="43.40732" lon="5.50979">
        <ele>704.8</ele>
        <time>2017-09-14T13:01:25Z</time>
      </trkpt>
      <trkpt lat="43.40741" lon="5.50972">
        <ele>704.1</ele>
        <time>2017-09-14T13:01:33Z</time>
      </trkpt>
      <trkpt lat="43.40749" lon="5.50966">
        <ele>703.4</ele>
        <time>2017-09-14T13:01:41Z</time>
      </trkpt>
      <trkpt lat="43.40755" lon="5.50957">
        <ele>701.7</ele>
        <time>2017-09-14T13:02:01Z</time>
      </trkpt>
      <trkpt lat="43.40759" lon="5.50945">
        <ele>699.3</ele>
        <time>2017-09-14T13:02:10Z</time>
      </trkpt>
      <trkpt lat="43.4076" lon="5.50932">
        <ele>696.5</ele>
        <time>2017-09-14T13:02:20Z</time>
      </trkpt>
      <trkpt lat="43.40764" lon="5.50922">
        <ele>693.3</ele>
        <time>2017-09-14T13:02:36Z</time>
      </trkpt>
      <trkpt lat="43.40773" lon="5.50918">
        <ele>690.9</ele>
        <time>2017-09-14T13:02:50Z</time>
      </trkpt>
      <trkpt lat="43.40781" lon="5.50926">
        <ele>688.1</ele>
        <time>2017-09-14T13:02:59Z</time>
      </trkpt>
      <trkpt lat="43.40787" lon="5.50935">
        <ele>685.8</ele>
        <time>2017-09-14T13:03:09Z</time>
      </trkpt>
      <trkpt lat="43.40793" lon="5.50946">
        <ele>684</ele>
        <time>2017-09-14T13:03:20Z</time>
      </trkpt>
      <trkpt lat="43.40799" lon="5.50955">
        <ele>681.2</ele>
        <time>2017-09-14T13:03:32Z</time>
      </trkpt>
      <trkpt lat="43.40804" lon="5.50967">
        <ele>678.9</ele>
        <time>2017-09-14T13:03:41Z</time>
      </trkpt>
      <trkpt lat="43.40809" lon="5.50977">
        <ele>676.9</ele>
        <time>2017-09-14T13:03:49Z</time>
      </trkpt>
      <trkpt lat="43.40818" lon="5.5098">
        <ele>675.4</ele>
        <time>2017-09-14T13:03:58Z</time>
      </trkpt>
      <trkpt lat="43.40828" lon="5.50982">
        <ele>674.4</ele>
        <time>2017-09-14T13:04:07Z</time>
      </trkpt>
      <trkpt lat="43.40837" lon="5.50983">
        <ele>673.4</ele>
        <time>2017-09-14T13:04:16Z</time>
      </trkpt>
      <trkpt lat="43.40845" lon="5.50988">
        <ele>672.2</ele>
        <time>2017-09-14T13:04:26Z</time>
      </trkpt>
      <trkpt lat="43.40854" lon="5.50991">
        <ele>671.4</ele>
        <time>2017-09-14T13:04:36Z</time>
      </trkpt>
      <trkpt lat="43.40863" lon="5.50994">
        <ele>669.2</ele>
        <time>2017-09-14T13:04:47Z</time>
      </trkpt>
      <trkpt lat="43.40873" lon="5.50997">
        <ele>668.3</ele>
        <time>2017-09-14T13:04:55Z</time>
      </trkpt>
      <trkpt lat="43.40881" lon="5.51003">
        <ele>666.6</ele>
        <time>2017-09-14T13:05:05Z</time>
      </trkpt>
      <trkpt lat="43.4089" lon="5.51008">
        <ele>665.9</ele>
        <time>2017-09-14T13:05:14Z</time>
      </trkpt>
      <trkpt lat="43.40898" lon="5.51014">
        <ele>663.9</ele>
        <time>2017-09-14T13:05:23Z</time>
      </trkpt>
      <trkpt lat="43.40906" lon="5.5102">
        <ele>661.8</ele>
        <time>2017-09-14T13:05:34Z</time>
      </trkpt>
      <trkpt lat="43.40911" lon="5.5103">
        <ele>659.3</ele>
        <time>2017-09-14T13:05:47Z</time>
      </trkpt>
      <trkpt lat="43.40921" lon="5.51032">
        <ele>657.9</ele>
        <time>2017-09-14T13:05:55Z</time>
      </trkpt>
      <trkpt lat="43.4093" lon="5.51034">
        <ele>656.4</ele>
        <time>2017-09-14T13:06:02Z</time>
      </trkpt>
      <trkpt lat="43.40938" lon="5.51041">
        <ele>654.7</ele>
        <time>2017-09-14T13:06:12Z</time>
      </trkpt>
      <trkpt lat="43.40945" lon="5.5105">
        <ele>652.6</ele>
        <time>2017-09-14T13:06:25Z</time>
      </trkpt>
      <trkpt lat="43.40954" lon="5.51046">
        <ele>649.2</ele>
        <time>2017-09-14T13:06:42Z</time>
      </trkpt>
      <trkpt lat="43.40963" lon="5.51045">
        <ele>647.7</ele>
        <time>2017-09-14T13:06:50Z</time>
      </trkpt>
      <trkpt lat="43.40965" lon="5.51057">
        <ele>646.7</ele>
        <time>2017-09-14T13:06:59Z</time>
      </trkpt>
      <trkpt lat="43.40963" lon="5.51069">
        <ele>645.3</ele>
        <time>2017-09-14T13:07:09Z</time>
      </trkpt>
      <trkpt lat="43.40959" lon="5.51081">
        <ele>643.1</ele>
        <time>2017-09-14T13:07:22Z</time>
      </trkpt>
      <trkpt lat="43.40958" lon="5.51094">
        <ele>640.2</ele>
        <time>2017-09-14T13:07:36Z</time>
      </trkpt>
      <trkpt lat="43.40958" lon="5.51108">
        <ele>638.4</ele>
        <time>2017-09-14T13:07:47Z</time>
      </trkpt>
      <trkpt lat="43.40959" lon="5.51121">
        <ele>635.5</ele>
        <time>2017-09-14T13:08:01Z</time>
      </trkpt>
      <trkpt lat="43.40959" lon="5.51134">
        <ele>633.4</ele>
        <time>2017-09-14T13:08:11Z</time>
      </trkpt>
      <trkpt lat="43.40964" lon="5.51146">
        <ele>630.4</ele>
        <time>2017-09-14T13:08:22Z</time>
      </trkpt>
      <trkpt lat="43.4097" lon="5.51156">
        <ele>627.1</ele>
        <time>2017-09-14T13:08:34Z</time>
      </trkpt>
      <trkpt lat="43.40977" lon="5.51165">
        <ele>624.6</ele>
        <time>2017-09-14T13:08:44Z</time>
      </trkpt>
      <trkpt lat="43.40979" lon="5.51178">
        <ele>622.9</ele>
        <time>2017-09-14T13:08:54Z</time>
      </trkpt>
      <trkpt lat="43.40983" lon="5.5119">
        <ele>621.7</ele>
        <time>2017-09-14T13:09:06Z</time>
      </trkpt>
      <trkpt lat="43.40987" lon="5.51202">
        <ele>620.6</ele>
        <time>2017-09-14T13:09:15Z</time>
      </trkpt>
      <trkpt lat="43.40992" lon="5.51213">
        <ele>619.6</ele>
        <time>2017-09-14T13:09:23Z</time>
      </trkpt>
      <trkpt lat="43.40997" lon="5.51225">
        <ele>617.3</ele>
        <time>2017-09-14T13:09:34Z</time>
      </trkpt>
      <trkpt lat="43.41005" lon="5.51233">
        <ele>615.5</ele>
        <time>2017-09-14T13:09:44Z</time>
      </trkpt>
      <trkpt lat="43.41011" lon="5.51243">
        <ele>612.9</ele>
        <time>2017-09-14T13:09:56Z</time>
      </trkpt>
      <trkpt lat="43.41015" lon="5.51256">
        <ele>611.1</ele>
        <time>2017-09-14T13:10:06Z</time>
      </trkpt>
      <trkpt lat="43.41018" lon="5.51269">
        <ele>607.8</ele>
        <time>2017-09-14T13:10:17Z</time>
      </trkpt>
      <trkpt lat="43.41024" lon="5.5128">
        <ele>605.3</ele>
        <time>2017-09-14T13:10:26Z</time>
      </trkpt>
      <trkpt lat="43.41029" lon="5.5129">
        <ele>604</ele>
        <time>2017-09-14T13:10:34Z</time>
      </trkpt>
      <trkpt lat="43.41035" lon="5.51301">
        <ele>602.9</ele>
        <time>2017-09-14T13:10:44Z</time>
      </trkpt>
      <trkpt lat="43.41039" lon="5.51312">
        <ele>602.4</ele>
        <time>2017-09-14T13:10:53Z</time>
      </trkpt>
      <trkpt lat="43.41042" lon="5.51324">
        <ele>601.2</ele>
        <time>2017-09-14T13:11:00Z</time>
      </trkpt>
      <trkpt lat="43.41047" lon="5.51335">
        <ele>601</ele>
        <time>2017-09-14T13:11:08Z</time>
      </trkpt>
      <trkpt lat="43.41051" lon="5.51348">
        <ele>599.4</ele>
        <time>2017-09-14T13:11:17Z</time>
      </trkpt>
      <trkpt lat="43.41053" lon="5.5136">
        <ele>598.7</ele>
        <time>2017-09-14T13:11:24Z</time>
      </trkpt>
      <trkpt lat="43.41056" lon="5.51372">
        <ele>597</ele>
        <time>2017-09-14T13:11:33Z</time>
      </trkpt>
      <trkpt lat="43.41065" lon="5.51375">
        <ele>595.1</ele>
        <time>2017-09-14T13:11:43Z</time>
      </trkpt>
      <trkpt lat="43.41075" lon="5.51377">
        <ele>592.8</ele>
        <time>2017-09-14T13:11:56Z</time>
      </trkpt>
      <trkpt lat="43.41084" lon="5.51372">
        <ele>590.4</ele>
        <time>2017-09-14T13:12:07Z</time>
      </trkpt>
      <trkpt lat="43.41093" lon="5.51372">
        <ele>588.5</ele>
        <time>2017-09-14T13:12:15Z</time>
      </trkpt>
      <trkpt lat="43.41102" lon="5.51374">
        <ele>586.8</ele>
        <time>2017-09-14T13:12:23Z</time>
      </trkpt>
      <trkpt lat="43.41112" lon="5.51371">
        <ele>585.2</ele>
        <time>2017-09-14T13:12:31Z</time>
      </trkpt>
      <trkpt lat="43.4112" lon="5.51362">
        <ele>583.4</ele>
        <time>2017-09-14T13:12:38Z</time>
      </trkpt>
      <trkpt lat="43.41123" lon="5.51351">
        <ele>581.9</ele>
        <time>2017-09-14T13:12:47Z</time>
      </trkpt>
      <trkpt lat="43.41121" lon="5.51338">
        <ele>579</ele>
        <time>2017-09-14T13:12:55Z</time>
      </trkpt>
      <trkpt lat="43.41118" lon="5.51326">
        <ele>576.6</ele>
        <time>2017-09-14T13:13:04Z</time>
      </trkpt>
      <trkpt lat="43.41116" lon="5.51313">
        <ele>574.4</ele>
        <time>2017-09-14T13:13:13Z</time>
      </trkpt>
      <trkpt lat="43.41114" lon="5.513">
        <ele>571.6</ele>
        <time>2017-09-14T13:13:21Z</time>
      </trkpt>
      <trkpt lat="43.41116" lon="5.51287">
        <ele>570.4</ele>
        <time>2017-09-14T13:13:29Z</time>
      </trkpt>
      <trkpt lat="43.41119" lon="5.51274">
        <ele>570.1</ele>
        <time>2017-09-14T13:13:36Z</time>
      </trkpt>
      <trkpt lat="43.41124" lon="5.51262">
        <ele>568.4</ele>
        <time>2017-09-14T13:13:44Z</time>
      </trkpt>
      <trkpt lat="43.41128" lon="5.5125">
        <ele>567.3</ele>
        <time>2017-09-14T13:13:51Z</time>
      </trkpt>
      <trkpt lat="43.4113" lon="5.51237">
        <ele>566.7</ele>
        <time>2017-09-14T13:13:58Z</time>
      </trkpt>
      <trkpt lat="43.41132" lon="5.51224">
        <ele>564.6</ele>
        <time>2017-09-14T13:14:06Z</time>
      </trkpt>
      <trkpt lat="43.41131" lon="5.51211">
        <ele>562.3</ele>
        <time>2017-09-14T13:14:15Z</time>
      </trkpt>
      <trkpt lat="43.41134" lon="5.51198">
        <ele>560.5</ele>
        <time>2017-09-14T13:14:23Z</time>
      </trkpt>
      <trkpt lat="43.41136" lon="5.51186">
        <ele>558.1</ele>
        <time>2017-09-14T13:14:30Z</time>
      </trkpt>
      <trkpt lat="43.41138" lon="5.51173">
        <ele>556.6</ele>
        <time>2017-09-14T13:14:40Z</time>
      </trkpt>
      <trkpt lat="43.41144" lon="5.51163">
        <ele>555.7</ele>
        <time>2017-09-14T13:14:47Z</time>
      </trkpt>
      <trkpt lat="43.41149" lon="5.5115">
        <ele>554.7</ele>
        <time>2017-09-14T13:14:54Z</time>
      </trkpt>
      <trkpt lat="43.41154" lon="5.5114">
        <ele>553.9</ele>
        <time>2017-09-14T13:15:01Z</time>
      </trkpt>
      <trkpt lat="43.41156" lon="5.51126">
        <ele>552.1</ele>
        <time>2017-09-14T13:15:08Z</time>
      </trkpt>
      <trkpt lat="43.41158" lon="5.51113">
        <ele>550.8</ele>
        <time>2017-09-14T13:15:15Z</time>
      </trkpt>
      <trkpt lat="43.4116" lon="5.51101">
        <ele>549</ele>
        <time>2017-09-14T13:15:22Z</time>
      </trkpt>
      <trkpt lat="43.41163" lon="5.51089">
        <ele>547.2</ele>
        <time>2017-09-14T13:15:30Z</time>
      </trkpt>
      <trkpt lat="43.41166" lon="5.51077">
        <ele>546.1</ele>
        <time>2017-09-14T13:15:37Z</time>
      </trkpt>
      <trkpt lat="43.41169" lon="5.51064">
        <ele>544.1</ele>
        <time>2017-09-14T13:15:45Z</time>
      </trkpt>
      <trkpt lat="43.41173" lon="5.51051">
        <ele>542.7</ele>
        <time>2017-09-14T13:15:53Z</time>
      </trkpt>
      <trkpt lat="43.41177" lon="5.51038">
        <ele>541.1</ele>
        <time>2017-09-14T13:16:01Z</time>
      </trkpt>
      <trkpt lat="43.41178" lon="5.51025">
        <ele>540.2</ele>
        <time>2017-09-14T13:16:08Z</time>
      </trkpt>
      <trkpt lat="43.41182" lon="5.51013">
        <ele>538.5</ele>
        <time>2017-09-14T13:16:16Z</time>
      </trkpt>
      <trkpt lat="43.41188" lon="5.51004">
        <ele>538</ele>
        <time>2017-09-14T13:16:24Z</time>
      </trkpt>
      <trkpt lat="43.41195" lon="5.50994">
        <ele>536.9</ele>
        <time>2017-09-14T13:16:31Z</time>
      </trkpt>
      <trkpt lat="43.41203" lon="5.50988">
        <ele>536.7</ele>
        <time>2017-09-14T13:16:39Z</time>
      </trkpt>
      <trkpt lat="43.41209" lon="5.50978">
        <ele>535.4</ele>
        <time>2017-09-14T13:16:46Z</time>
      </trkpt>
      <trkpt lat="43.41216" lon="5.50969">
        <ele>534.4</ele>
        <time>2017-09-14T13:16:55Z</time>
      </trkpt>
      <trkpt lat="43.41223" lon="5.50959">
        <ele>533.8</ele>
        <time>2017-09-14T13:17:03Z</time>
      </trkpt>
      <trkpt lat="43.41232" lon="5.5095">
        <ele>533.4</ele>
        <time>2017-09-14T13:17:11Z</time>
      </trkpt>
      <trkpt lat="43.41239" lon="5.50939">
        <ele>532.8</ele>
        <time>2017-09-14T13:17:20Z</time>
      </trkpt>
      <trkpt lat="43.41245" lon="5.5093">
        <ele>532</ele>
        <time>2017-09-14T13:17:27Z</time>
      </trkpt>
      <trkpt lat="43.4125" lon="5.50919">
        <ele>530.4</ele>
        <time>2017-09-14T13:17:35Z</time>
      </trkpt>
      <trkpt lat="43.41257" lon="5.5091">
        <ele>529.1</ele>
        <time>2017-09-14T13:17:42Z</time>
      </trkpt>
      <trkpt lat="43.41262" lon="5.50899">
        <ele>527.8</ele>
        <time>2017-09-14T13:17:49Z</time>
      </trkpt>
      <trkpt lat="43.41267" lon="5.50887">
        <ele>525.5</ele>
        <time>2017-09-14T13:17:58Z</time>
      </trkpt>
      <trkpt lat="43.41271" lon="5.50874">
        <ele>523.9</ele>
        <time>2017-09-14T13:18:06Z</time>
      </trkpt>
      <trkpt lat="43.41277" lon="5.50863">
        <ele>522.1</ele>
        <time>2017-09-14T13:18:15Z</time>
      </trkpt>
      <trkpt lat="43.41282" lon="5.50852">
        <ele>521.1</ele>
        <time>2017-09-14T13:18:22Z</time>
      </trkpt>
      <trkpt lat="43.41286" lon="5.5084">
        <ele>519.4</ele>
        <time>2017-09-14T13:18:30Z</time>
      </trkpt>
      <trkpt lat="43.41289" lon="5.50827">
        <ele>518</ele>
        <time>2017-09-14T13:18:39Z</time>
      </trkpt>
      <trkpt lat="43.41293" lon="5.50816">
        <ele>516.5</ele>
        <time>2017-09-14T13:18:46Z</time>
      </trkpt>
      <trkpt lat="43.41299" lon="5.50805">
        <ele>515.4</ele>
        <time>2017-09-14T13:18:54Z</time>
      </trkpt>
      <trkpt lat="43.41303" lon="5.50793">
        <ele>513.8</ele>
        <time>2017-09-14T13:19:02Z</time>
      </trkpt>
      <trkpt lat="43.41307" lon="5.50782">
        <ele>511.5</ele>
        <time>2017-09-14T13:19:10Z</time>
      </trkpt>
      <trkpt lat="43.41311" lon="5.50769">
        <ele>510.9</ele>
        <time>2017-09-14T13:19:18Z</time>
      </trkpt>
      <trkpt lat="43.41316" lon="5.50758">
        <ele>509.4</ele>
        <time>2017-09-14T13:19:26Z</time>
      </trkpt>
      <trkpt lat="43.4132" lon="5.50745">
        <ele>508</ele>
        <time>2017-09-14T13:19:34Z</time>
      </trkpt>
      <trkpt lat="43.41323" lon="5.50732">
        <ele>507</ele>
        <time>2017-09-14T13:19:43Z</time>
      </trkpt>
      <trkpt lat="43.41327" lon="5.50721">
        <ele>505.3</ele>
        <time>2017-09-14T13:19:51Z</time>
      </trkpt>
      <trkpt lat="43.41336" lon="5.50714">
        <ele>504.5</ele>
        <time>2017-09-14T13:19:59Z</time>
      </trkpt>
      <trkpt lat="43.41333" lon="5.50701">
        <ele>502.9</ele>
        <time>2017-09-14T13:20:12Z</time>
      </trkpt>
      <trkpt lat="43.41337" lon="5.5069">
        <ele>502.2</ele>
        <time>2017-09-14T13:20:20Z</time>
      </trkpt>
      <trkpt lat="43.41341" lon="5.50679">
        <ele>502.1</ele>
        <time>2017-09-14T13:20:27Z</time>
      </trkpt>
      <trkpt lat="43.41346" lon="5.50668">
        <ele>501.4</ele>
        <time>2017-09-14T13:20:35Z</time>
      </trkpt>
      <trkpt lat="43.41352" lon="5.50658">
        <ele>500.4</ele>
        <time>2017-09-14T13:20:43Z</time>
      </trkpt>
      <trkpt lat="43.41357" lon="5.50647">
        <ele>499.8</ele>
        <time>2017-09-14T13:20:51Z</time>
      </trkpt>
      <trkpt lat="43.41358" lon="5.50634">
        <ele>499.1</ele>
        <time>2017-09-14T13:21:00Z</time>
      </trkpt>
      <trkpt lat="43.41361" lon="5.5062">
        <ele>498.6</ele>
        <time>2017-09-14T13:21:07Z</time>
      </trkpt>
      <trkpt lat="43.41362" lon="5.50619">
        <ele>498.2</ele>
        <time>2017-09-14T13:21:08Z</time>
      </trkpt>
      <trkpt lat="43.41362" lon="5.50632">
        <ele>498.5</ele>
        <time>2017-09-14T13:27:46Z</time>
      </trkpt>
      <trkpt lat="43.4136" lon="5.50644">
        <ele>498.5</ele>
        <time>2017-09-14T13:27:54Z</time>
      </trkpt>
      <trkpt lat="43.41358" lon="5.50656">
        <ele>499.1</ele>
        <time>2017-09-14T13:28:02Z</time>
      </trkpt>
      <trkpt lat="43.41356" lon="5.50669">
        <ele>498.4</ele>
        <time>2017-09-14T13:28:10Z</time>
      </trkpt>
      <trkpt lat="43.41355" lon="5.50682">
        <ele>497.2</ele>
        <time>2017-09-14T13:28:17Z</time>
      </trkpt>
      <trkpt lat="43.41353" lon="5.50695">
        <ele>496.5</ele>
        <time>2017-09-14T13:28:25Z</time>
      </trkpt>
      <trkpt lat="43.41352" lon="5.50709">
        <ele>495.6</ele>
        <time>2017-09-14T13:28:33Z</time>
      </trkpt>
      <trkpt lat="43.41353" lon="5.50723">
        <ele>496.2</ele>
        <time>2017-09-14T13:28:41Z</time>
      </trkpt>
      <trkpt lat="43.41356" lon="5.50735">
        <ele>496.1</ele>
        <time>2017-09-14T13:28:50Z</time>
      </trkpt>
      <trkpt lat="43.41358" lon="5.50747">
        <ele>495.5</ele>
        <time>2017-09-14T13:28:58Z</time>
      </trkpt>
    </trkseg>
  </trk>
</gpx>